Wetterdaten: Samstag, 25.01.2025
Datum Zeit Temp. I. Temp. A. Feuchte I. Feuchte A. Luftdruck Regen Wind Richtung Richtung Sonnenschein Solar Taupunkt Windchill Windböen
25.01.2025 00:00 21,9 °C 8,1 °C 51 % 81 % 1007,7 hPa 0,0 l/m² 9,2 km/h (2 Bft) S 178 ° 0 min 0 W/m² 5,0 °C 6,0 °C 11,3 km/h (2 Bft)
25.01.2025 00:01 21,9 °C 8,1 °C 51 % 81 % 1007,7 hPa 0,0 l/m² 9,4 km/h (2 Bft) S-SO 166 ° 0 min 0 W/m² 5,0 °C 5,9 °C 12,9 km/h (3 Bft)
25.01.2025 00:02 21,9 °C 8,1 °C 51 % 81 % 1007,7 hPa 0,0 l/m² 9,5 km/h (2 Bft) S 174 ° 0 min 0 W/m² 5,0 °C 5,8 °C 12,9 km/h (3 Bft)
25.01.2025 00:03 21,9 °C 8,1 °C 51 % 81 % 1007,7 hPa 0,0 l/m² 9,5 km/h (2 Bft) S 169 ° 0 min 0 W/m² 5,0 °C 5,8 °C 11,3 km/h (2 Bft)
25.01.2025 00:04 21,9 °C 8,0 °C 51 % 81 % 1007,7 hPa 0,0 l/m² 8,3 km/h (2 Bft) S 171 ° 0 min 0 W/m² 4,9 °C 6,5 °C 11,3 km/h (2 Bft)
25.01.2025 00:05 21,9 °C 8,1 °C 51 % 81 % 1007,8 hPa 0,0 l/m² 7,6 km/h (2 Bft) S 169 ° 0 min 0 W/m² 5,0 °C 7,2 °C 9,7 km/h (2 Bft)
25.01.2025 00:06 21,9 °C 8,0 °C 51 % 81 % 1007,7 hPa 0,0 l/m² 8,0 km/h (2 Bft) S 179 ° 0 min 0 W/m² 4,9 °C 6,8 °C 11,3 km/h (2 Bft)
25.01.2025 00:07 21,9 °C 8,0 °C 51 % 81 % 1007,6 hPa 0,0 l/m² 7,8 km/h (2 Bft) S 172 ° 0 min 0 W/m² 4,9 °C 6,9 °C 9,7 km/h (2 Bft)
25.01.2025 00:08 21,9 °C 8,0 °C 51 % 81 % 1007,6 hPa 0,0 l/m² 9,5 km/h (2 Bft) S-SO 163 ° 0 min 0 W/m² 4,9 °C 5,7 °C 11,3 km/h (2 Bft)
25.01.2025 00:09 21,9 °C 7,9 °C 51 % 82 % 1007,7 hPa 0,0 l/m² 8,8 km/h (2 Bft) S-SO 160 ° 0 min 0 W/m² 5,0 °C 6,1 °C 12,9 km/h (3 Bft)
25.01.2025 00:10 21,9 °C 7,9 °C 51 % 82 % 1007,7 hPa 0,0 l/m² 8,2 km/h (2 Bft) S-SO 162 ° 0 min 0 W/m² 5,0 °C 6,5 °C 9,7 km/h (2 Bft)
25.01.2025 00:12 21,9 °C 7,9 °C 51 % 82 % 1007,7 hPa 0,0 l/m² 8,2 km/h (2 Bft) S-SO 156 ° 0 min 0 W/m² 5,0 °C 6,5 °C 12,9 km/h (3 Bft)
25.01.2025 00:14 21,9 °C 7,9 °C 51 % 82 % 1007,6 hPa 0,0 l/m² 8,5 km/h (2 Bft) S-SO 154 ° 0 min 0 W/m² 5,0 °C 6,3 °C 11,3 km/h (2 Bft)
25.01.2025 00:15 21,9 °C 7,9 °C 51 % 82 % 1007,6 hPa 0,0 l/m² 8,5 km/h (2 Bft) S-SO 159 ° 0 min 0 W/m² 5,0 °C 6,3 °C 11,3 km/h (2 Bft)
25.01.2025 00:16 21,9 °C 7,9 °C 51 % 82 % 1007,6 hPa 0,0 l/m² 8,6 km/h (2 Bft) S-SO 159 ° 0 min 0 W/m² 5,0 °C 6,2 °C 9,7 km/h (2 Bft)
25.01.2025 00:17 21,9 °C 7,9 °C 51 % 82 % 1007,6 hPa 0,0 l/m² 8,4 km/h (2 Bft) S-SO 159 ° 0 min 0 W/m² 5,0 °C 6,4 °C 9,7 km/h (2 Bft)
25.01.2025 00:18 21,9 °C 7,9 °C 51 % 82 % 1007,6 hPa 0,0 l/m² 8,5 km/h (2 Bft) S-SO 165 ° 0 min 0 W/m² 5,0 °C 6,3 °C 11,3 km/h (2 Bft)
25.01.2025 00:19 21,9 °C 7,9 °C 51 % 82 % 1007,7 hPa 0,0 l/m² 7,8 km/h (2 Bft) S-SO 159 ° 0 min 0 W/m² 5,0 °C 6,8 °C 9,7 km/h (2 Bft)
25.01.2025 00:21 21,9 °C 7,9 °C 51 % 82 % 1007,8 hPa 0,0 l/m² 6,8 km/h (2 Bft) S-SO 165 ° 0 min 0 W/m² 5,0 °C 7,6 °C 9,7 km/h (2 Bft)
25.01.2025 00:23 21,9 °C 7,9 °C 51 % 82 % 1007,8 hPa 0,0 l/m² 6,8 km/h (2 Bft) S-SO 163 ° 0 min 0 W/m² 5,0 °C 7,6 °C 9,7 km/h (2 Bft)
25.01.2025 00:24 21,9 °C 7,8 °C 51 % 82 % 1007,8 hPa 0,0 l/m² 7,6 km/h (2 Bft) S 171 ° 0 min 0 W/m² 4,9 °C 6,8 °C 11,3 km/h (2 Bft)
25.01.2025 00:25 21,9 °C 7,9 °C 51 % 82 % 1007,7 hPa 0,0 l/m² 6,8 km/h (2 Bft) S-SO 162 ° 0 min 0 W/m² 5,0 °C 7,6 °C 9,7 km/h (2 Bft)
25.01.2025 00:27 21,9 °C 7,8 °C 51 % 82 % 1007,8 hPa 0,0 l/m² 5,6 km/h (2 Bft) S-SO 162 ° 0 min 0 W/m² 4,9 °C 7,8 °C 8,0 km/h (2 Bft)
25.01.2025 00:28 21,9 °C 7,8 °C 51 % 82 % 1007,8 hPa 0,0 l/m² 7,2 km/h (2 Bft) S-SO 163 ° 0 min 0 W/m² 4,9 °C 7,2 °C 9,7 km/h (2 Bft)
25.01.2025 00:29 21,8 °C 7,8 °C 51 % 82 % 1007,8 hPa 0,0 l/m² 7,0 km/h (2 Bft) S-SO 163 ° 0 min 0 W/m² 4,9 °C 7,3 °C 8,0 km/h (2 Bft)
25.01.2025 00:31 21,9 °C 7,8 °C 51 % 82 % 1007,8 hPa 0,0 l/m² 7,0 km/h (2 Bft) S-SO 163 ° 0 min 0 W/m² 4,9 °C 7,3 °C 9,7 km/h (2 Bft)
25.01.2025 00:33 21,9 °C 7,8 °C 51 % 82 % 1007,8 hPa 0,0 l/m² 6,5 km/h (2 Bft) S-SO 163 ° 0 min 0 W/m² 4,9 °C 7,7 °C 9,7 km/h (2 Bft)
25.01.2025 00:34 21,9 °C 7,8 °C 51 % 82 % 1007,8 hPa 0,0 l/m² 7,4 km/h (2 Bft) S-SO 162 ° 0 min 0 W/m² 4,9 °C 7,0 °C 9,7 km/h (2 Bft)
25.01.2025 00:35 21,9 °C 7,7 °C 51 % 82 % 1007,8 hPa 0,0 l/m² 7,5 km/h (2 Bft) S-SO 164 ° 0 min 0 W/m² 4,8 °C 6,8 °C 9,7 km/h (2 Bft)
25.01.2025 00:36 21,9 °C 7,7 °C 51 % 82 % 1007,8 hPa 0,0 l/m² 8,0 km/h (2 Bft) S-SO 165 ° 0 min 0 W/m² 4,8 °C 6,4 °C 9,7 km/h (2 Bft)
25.01.2025 00:37 21,8 °C 7,7 °C 51 % 82 % 1007,8 hPa 0,0 l/m² 8,7 km/h (2 Bft) S-SO 165 ° 0 min 0 W/m² 4,8 °C 5,9 °C 9,7 km/h (2 Bft)
25.01.2025 00:38 21,9 °C 7,7 °C 51 % 82 % 1007,9 hPa 0,0 l/m² 9,9 km/h (2 Bft) S-SO 164 ° 0 min 0 W/m² 4,8 °C 5,1 °C 14,5 km/h (3 Bft)
25.01.2025 00:39 21,8 °C 7,7 °C 51 % 82 % 1007,8 hPa 0,0 l/m² 8,5 km/h (2 Bft) S-SO 165 ° 0 min 0 W/m² 4,8 °C 6,1 °C 12,9 km/h (3 Bft)
25.01.2025 00:41 21,9 °C 7,7 °C 51 % 83 % 1007,8 hPa 0,0 l/m² 7,9 km/h (2 Bft) S-SO 165 ° 0 min 0 W/m² 5,0 °C 6,5 °C 11,3 km/h (2 Bft)
25.01.2025 00:43 21,9 °C 7,6 °C 51 % 83 % 1007,7 hPa 0,0 l/m² 8,2 km/h (2 Bft) S-SO 163 ° 0 min 0 W/m² 4,9 °C 6,2 °C 9,7 km/h (2 Bft)
25.01.2025 00:45 21,9 °C 7,6 °C 51 % 83 % 1007,6 hPa 0,0 l/m² 6,4 km/h (2 Bft) S-SO 160 ° 0 min 0 W/m² 4,9 °C 7,6 °C 8,0 km/h (2 Bft)
25.01.2025 00:46 21,8 °C 7,6 °C 51 % 83 % 1007,7 hPa 0,0 l/m² 6,6 km/h (2 Bft) S-SO 167 ° 0 min 0 W/m² 4,9 °C 7,5 °C 9,7 km/h (2 Bft)
25.01.2025 00:47 21,9 °C 7,6 °C 51 % 83 % 1007,7 hPa 0,0 l/m² 7,0 km/h (2 Bft) S-SO 162 ° 0 min 0 W/m² 4,9 °C 7,1 °C 9,7 km/h (2 Bft)
25.01.2025 00:48 21,8 °C 7,6 °C 51 % 83 % 1007,7 hPa 0,0 l/m² 6,9 km/h (2 Bft) S 177 ° 0 min 0 W/m² 4,9 °C 7,2 °C 8,0 km/h (2 Bft)
25.01.2025 00:49 21,8 °C 7,6 °C 51 % 83 % 1007,7 hPa 0,0 l/m² 6,7 km/h (2 Bft) S 171 ° 0 min 0 W/m² 4,9 °C 7,4 °C 11,3 km/h (2 Bft)
25.01.2025 00:51 21,8 °C 7,5 °C 51 % 83 % 1007,7 hPa 0,0 l/m² 8,5 km/h (2 Bft) S 169 ° 0 min 0 W/m² 4,8 °C 5,9 °C 12,9 km/h (3 Bft)
25.01.2025 00:53 21,8 °C 7,5 °C 51 % 83 % 1007,8 hPa 0,0 l/m² 8,3 km/h (2 Bft) S-SO 166 ° 0 min 0 W/m² 4,8 °C 6,0 °C 9,7 km/h (2 Bft)
25.01.2025 00:54 21,8 °C 7,5 °C 51 % 84 % 1007,8 hPa 0,0 l/m² 9,4 km/h (2 Bft) S 174 ° 0 min 0 W/m² 5,0 °C 5,2 °C 11,3 km/h (2 Bft)
25.01.2025 00:55 21,9 °C 7,6 °C 51 % 84 % 1007,8 hPa 0,0 l/m² 8,6 km/h (2 Bft) S-SO 165 ° 0 min 0 W/m² 5,1 °C 5,9 °C 11,3 km/h (2 Bft)
25.01.2025 00:56 21,8 °C 7,5 °C 51 % 84 % 1007,7 hPa 0,0 l/m² 7,5 km/h (2 Bft) S-SO 167 ° 0 min 0 W/m² 5,0 °C 6,6 °C 8,0 km/h (2 Bft)
25.01.2025 00:57 21,8 °C 7,5 °C 51 % 84 % 1007,8 hPa 0,0 l/m² 7,5 km/h (2 Bft) S 169 ° 0 min 0 W/m² 5,0 °C 6,6 °C 9,7 km/h (2 Bft)
25.01.2025 00:58 21,8 °C 7,5 °C 51 % 84 % 1007,8 hPa 0,0 l/m² 6,8 km/h (2 Bft) S-SO 165 ° 0 min 0 W/m² 5,0 °C 7,2 °C 9,7 km/h (2 Bft)
25.01.2025 00:59 21,8 °C 7,5 °C 51 % 84 % 1007,8 hPa 0,0 l/m² 7,7 km/h (2 Bft) S 172 ° 0 min 0 W/m² 5,0 °C 6,5 °C 9,7 km/h (2 Bft)
25.01.2025 01:01 21,8 °C 7,6 °C 51 % 84 % 1007,9 hPa 0,0 l/m² 7,4 km/h (2 Bft) S 179 ° 0 min 0 W/m² 5,1 °C 6,8 °C 9,7 km/h (2 Bft)
25.01.2025 01:03 21,8 °C 7,5 °C 51 % 84 % 1007,8 hPa 0,0 l/m² 5,3 km/h (1 Bft) S-SO 160 ° 0 min 0 W/m² 5,0 °C 7,5 °C 8,0 km/h (2 Bft)
25.01.2025 01:04 21,8 °C 7,6 °C 51 % 84 % 1007,8 hPa 0,0 l/m² 2,5 km/h (1 Bft) S-SO 160 ° 0 min 0 W/m² 5,1 °C 7,6 °C 3,2 km/h (1 Bft)
25.01.2025 01:05 21,8 °C 7,5 °C 51 % 84 % 1008,0 hPa 0,0 l/m² 4,2 km/h (1 Bft) S-SO 166 ° 0 min 0 W/m² 5,0 °C 7,5 °C 8,0 km/h (2 Bft)
25.01.2025 01:06 21,8 °C 7,5 °C 51 % 84 % 1007,9 hPa 0,0 l/m² 5,4 km/h (2 Bft) S-SO 165 ° 0 min 0 W/m² 5,0 °C 7,5 °C 8,0 km/h (2 Bft)
25.01.2025 01:07 21,8 °C 7,5 °C 51 % 84 % 1007,9 hPa 0,0 l/m² 4,9 km/h (1 Bft) S-SO 161 ° 0 min 0 W/m² 5,0 °C 7,5 °C 8,0 km/h (2 Bft)
25.01.2025 01:08 21,8 °C 7,6 °C 51 % 84 % 1007,9 hPa 0,0 l/m² 4,8 km/h (1 Bft) S-SO 165 ° 0 min 0 W/m² 5,1 °C 7,6 °C 9,7 km/h (2 Bft)
25.01.2025 01:09 21,8 °C 7,6 °C 51 % 84 % 1007,9 hPa 0,0 l/m² 7,6 km/h (2 Bft) S-SO 167 ° 0 min 0 W/m² 5,1 °C 6,6 °C 9,7 km/h (2 Bft)
25.01.2025 01:10 21,8 °C 7,6 °C 51 % 84 % 1007,8 hPa 0,0 l/m² 6,4 km/h (2 Bft) S 171 ° 0 min 0 W/m² 5,1 °C 7,6 °C 9,7 km/h (2 Bft)
25.01.2025 01:12 21,8 °C 7,5 °C 51 % 84 % 1007,8 hPa 0,0 l/m² 7,0 km/h (2 Bft) S 169 ° 0 min 0 W/m² 5,0 °C 7,0 °C 9,7 km/h (2 Bft)
25.01.2025 01:13 21,8 °C 7,6 °C 51 % 84 % 1007,8 hPa 0,0 l/m² 5,9 km/h (2 Bft) S 171 ° 0 min 0 W/m² 5,1 °C 7,6 °C 11,3 km/h (2 Bft)
25.01.2025 01:14 21,8 °C 7,6 °C 51 % 84 % 1007,8 hPa 0,0 l/m² 6,8 km/h (2 Bft) S 169 ° 0 min 0 W/m² 5,1 °C 7,3 °C 9,7 km/h (2 Bft)
25.01.2025 01:15 21,8 °C 7,6 °C 51 % 84 % 1007,8 hPa 0,0 l/m² 9,1 km/h (2 Bft) S-SO 167 ° 0 min 0 W/m² 5,1 °C 5,5 °C 12,9 km/h (3 Bft)
25.01.2025 01:16 21,8 °C 7,6 °C 51 % 84 % 1007,7 hPa 0,0 l/m² 8,0 km/h (2 Bft) S-SO 167 ° 0 min 0 W/m² 5,1 °C 6,3 °C 9,7 km/h (2 Bft)
25.01.2025 01:17 21,8 °C 7,6 °C 51 % 84 % 1007,7 hPa 0,0 l/m² 6,3 km/h (2 Bft) S-SO 167 ° 0 min 0 W/m² 5,1 °C 7,6 °C 8,0 km/h (2 Bft)
25.01.2025 01:18 21,8 °C 7,6 °C 51 % 84 % 1007,8 hPa 0,0 l/m² 5,5 km/h (2 Bft) S 169 ° 0 min 0 W/m² 5,1 °C 7,6 °C 8,0 km/h (2 Bft)
25.01.2025 01:19 21,8 °C 7,6 °C 51 % 84 % 1007,7 hPa 0,0 l/m² 4,4 km/h (1 Bft) S 169 ° 0 min 0 W/m² 5,1 °C 7,6 °C 6,4 km/h (2 Bft)
25.01.2025 01:21 21,8 °C 7,7 °C 51 % 85 % 1007,8 hPa 0,0 l/m² 5,5 km/h (2 Bft) S 174 ° 0 min 0 W/m² 5,3 °C 7,7 °C 8,0 km/h (2 Bft)
25.01.2025 01:23 21,8 °C 7,7 °C 51 % 84 % 1007,9 hPa 0,0 l/m² 6,4 km/h (2 Bft) S 177 ° 0 min 0 W/m² 5,2 °C 7,7 °C 9,7 km/h (2 Bft)
25.01.2025 01:24 21,8 °C 7,7 °C 51 % 84 % 1007,7 hPa 0,0 l/m² 3,9 km/h (1 Bft) S 177 ° 0 min 0 W/m² 5,2 °C 7,7 °C 6,4 km/h (2 Bft)
25.01.2025 01:25 21,8 °C 7,7 °C 51 % 84 % 1007,8 hPa 0,0 l/m² 4,3 km/h (1 Bft) S 177 ° 0 min 0 W/m² 5,2 °C 7,7 °C 6,4 km/h (2 Bft)
25.01.2025 01:26 21,8 °C 7,7 °C 51 % 84 % 1007,8 hPa 0,0 l/m² 6,4 km/h (2 Bft) S 169 ° 0 min 0 W/m² 5,2 °C 7,7 °C 9,7 km/h (2 Bft)
25.01.2025 01:27 21,8 °C 7,7 °C 51 % 84 % 1007,8 hPa 0,0 l/m² 5,7 km/h (2 Bft) S-SO 168 ° 0 min 0 W/m² 5,2 °C 7,7 °C 8,0 km/h (2 Bft)
25.01.2025 01:28 21,8 °C 7,7 °C 51 % 84 % 1007,7 hPa 0,0 l/m² 7,2 km/h (2 Bft) S-SO 167 ° 0 min 0 W/m² 5,2 °C 7,1 °C 8,0 km/h (2 Bft)
25.01.2025 01:29 21,8 °C 7,7 °C 51 % 84 % 1007,7 hPa 0,0 l/m² 8,5 km/h (2 Bft) S-SO 166 ° 0 min 0 W/m² 5,2 °C 6,1 °C 9,7 km/h (2 Bft)
25.01.2025 01:31 21,8 °C 7,7 °C 51 % 84 % 1007,7 hPa 0,0 l/m² 6,5 km/h (2 Bft) S-SO 157 ° 0 min 0 W/m² 5,2 °C 7,6 °C 9,7 km/h (2 Bft)
25.01.2025 01:33 21,8 °C 7,7 °C 51 % 84 % 1007,7 hPa 0,0 l/m² 4,5 km/h (1 Bft) S-SO 158 ° 0 min 0 W/m² 5,2 °C 7,7 °C 8,0 km/h (2 Bft)
25.01.2025 01:34 21,8 °C 7,7 °C 51 % 84 % 1007,6 hPa 0,0 l/m² 4,7 km/h (1 Bft) S-SO 157 ° 0 min 0 W/m² 5,2 °C 7,7 °C 8,0 km/h (2 Bft)
25.01.2025 01:35 21,8 °C 7,7 °C 51 % 84 % 1007,6 hPa 0,0 l/m² 4,5 km/h (1 Bft) S-SO 157 ° 0 min 0 W/m² 5,2 °C 7,7 °C 4,8 km/h (1 Bft)
25.01.2025 01:36 21,8 °C 7,8 °C 51 % 84 % 1007,7 hPa 0,0 l/m² 4,4 km/h (1 Bft) S-SO 157 ° 0 min 0 W/m² 5,3 °C 7,8 °C 8,0 km/h (2 Bft)
25.01.2025 01:37 21,8 °C 7,7 °C 51 % 84 % 1007,6 hPa 0,0 l/m² 3,0 km/h (1 Bft) S-SO 157 ° 0 min 0 W/m² 5,2 °C 7,7 °C 4,8 km/h (1 Bft)
25.01.2025 01:38 21,8 °C 7,8 °C 51 % 84 % 1007,6 hPa 0,0 l/m² 2,1 km/h (1 Bft) S-SO 157 ° 0 min 0 W/m² 5,3 °C 7,8 °C 4,8 km/h (1 Bft)
25.01.2025 01:39 21,8 °C 7,8 °C 51 % 84 % 1007,6 hPa 0,0 l/m² 2,4 km/h (1 Bft) S-SO 157 ° 0 min 0 W/m² 5,3 °C 7,8 °C 3,2 km/h (1 Bft)
25.01.2025 01:40 21,8 °C 7,8 °C 51 % 84 % 1007,6 hPa 0,0 l/m² 1,3 km/h (1 Bft) S-SO 157 ° 0 min 0 W/m² 5,3 °C 7,8 °C 3,2 km/h (1 Bft)
25.01.2025 01:42 21,8 °C 7,8 °C 51 % 84 % 1007,6 hPa 0,0 l/m² 3,0 km/h (1 Bft) S-SO 157 ° 0 min 0 W/m² 5,3 °C 7,8 °C 8,0 km/h (2 Bft)
25.01.2025 01:44 21,8 °C 7,8 °C 51 % 84 % 1007,6 hPa 0,0 l/m² 2,1 km/h (1 Bft) S-SO 157 ° 0 min 0 W/m² 5,3 °C 7,8 °C 4,8 km/h (1 Bft)
25.01.2025 01:45 21,7 °C 7,8 °C 51 % 84 % 1007,7 hPa 0,0 l/m² 1,2 km/h (1 Bft) S-SO 157 ° 0 min 0 W/m² 5,3 °C 7,8 °C 3,2 km/h (1 Bft)
25.01.2025 01:46 21,8 °C 7,8 °C 51 % 84 % 1007,6 hPa 0,0 l/m² 1,3 km/h (1 Bft) S-SO 157 ° 0 min 0 W/m² 5,3 °C 7,8 °C 3,2 km/h (1 Bft)
25.01.2025 01:47 21,8 °C 7,8 °C 51 % 84 % 1007,6 hPa 0,0 l/m² 0,0 km/h (0 Bft) S-SO 157 ° 0 min 0 W/m² 5,3 °C 7,8 °C 0,0 km/h (0 Bft)
25.01.2025 01:48 21,8 °C 7,8 °C 51 % 84 % 1007,6 hPa 0,0 l/m² 0,0 km/h (0 Bft) S-SO 157 ° 0 min 0 W/m² 5,3 °C 7,8 °C 0,0 km/h (0 Bft)
25.01.2025 01:49 21,8 °C 7,8 °C 51 % 84 % 1007,6 hPa 0,0 l/m² 0,8 km/h (0 Bft) S-SO 157 ° 0 min 0 W/m² 5,3 °C 7,8 °C 1,6 km/h (1 Bft)
25.01.2025 01:51 21,8 °C 7,9 °C 51 % 84 % 1007,6 hPa 0,0 l/m² 2,7 km/h (1 Bft) S-SO 157 ° 0 min 0 W/m² 5,4 °C 7,9 °C 4,8 km/h (1 Bft)
25.01.2025 01:53 21,7 °C 7,9 °C 51 % 84 % 1007,6 hPa 0,0 l/m² 3,2 km/h (1 Bft) S-SO 157 ° 0 min 0 W/m² 5,4 °C 7,9 °C 4,8 km/h (1 Bft)
25.01.2025 01:54 21,8 °C 7,9 °C 51 % 84 % 1007,4 hPa 0,0 l/m² 3,5 km/h (1 Bft) S-SO 157 ° 0 min 0 W/m² 5,4 °C 7,9 °C 4,8 km/h (1 Bft)
25.01.2025 01:55 21,8 °C 7,9 °C 51 % 84 % 1007,5 hPa 0,0 l/m² 2,6 km/h (1 Bft) S-SO 157 ° 0 min 0 W/m² 5,4 °C 7,9 °C 4,8 km/h (1 Bft)
25.01.2025 01:56 21,7 °C 7,9 °C 51 % 84 % 1007,5 hPa 0,0 l/m² 2,5 km/h (1 Bft) S-SO 157 ° 0 min 0 W/m² 5,4 °C 7,9 °C 3,2 km/h (1 Bft)
25.01.2025 01:57 21,7 °C 7,9 °C 51 % 84 % 1007,5 hPa 0,0 l/m² 3,8 km/h (1 Bft) S-SO 157 ° 0 min 0 W/m² 5,4 °C 7,9 °C 4,8 km/h (1 Bft)
25.01.2025 01:58 21,7 °C 7,9 °C 51 % 83 % 1007,4 hPa 0,0 l/m² 4,0 km/h (1 Bft) S-SO 157 ° 0 min 0 W/m² 5,2 °C 7,9 °C 4,8 km/h (1 Bft)
25.01.2025 01:59 21,8 °C 7,9 °C 51 % 84 % 1007,5 hPa 0,0 l/m² 3,8 km/h (1 Bft) S-SO 157 ° 0 min 0 W/m² 5,4 °C 7,9 °C 4,8 km/h (1 Bft)
25.01.2025 02:00 21,8 °C 7,9 °C 51 % 84 % 1007,4 hPa 0,0 l/m² 3,6 km/h (1 Bft) S-SO 157 ° 0 min 0 W/m² 5,4 °C 7,9 °C 8,0 km/h (2 Bft)
25.01.2025 02:02 21,7 °C 7,9 °C 51 % 83 % 1007,4 hPa 0,0 l/m² 3,8 km/h (1 Bft) S-SO 157 ° 0 min 0 W/m² 5,2 °C 7,9 °C 4,8 km/h (1 Bft)
25.01.2025 02:04 21,7 °C 7,9 °C 51 % 84 % 1007,3 hPa 0,0 l/m² 2,5 km/h (1 Bft) S-SO 157 ° 0 min 0 W/m² 5,4 °C 7,9 °C 4,8 km/h (1 Bft)
25.01.2025 02:05 21,8 °C 7,9 °C 51 % 83 % 1007,3 hPa 0,0 l/m² 4,3 km/h (1 Bft) S-SO 157 ° 0 min 0 W/m² 5,2 °C 7,9 °C 8,0 km/h (2 Bft)
25.01.2025 02:06 21,7 °C 7,9 °C 51 % 84 % 1007,4 hPa 0,0 l/m² 4,0 km/h (1 Bft) S-SO 157 ° 0 min 0 W/m² 5,4 °C 7,9 °C 4,8 km/h (1 Bft)
25.01.2025 02:07 21,7 °C 7,9 °C 51 % 84 % 1007,3 hPa 0,0 l/m² 2,5 km/h (1 Bft) S-SO 157 ° 0 min 0 W/m² 5,4 °C 7,9 °C 4,8 km/h (1 Bft)
25.01.2025 02:08 21,7 °C 7,9 °C 51 % 84 % 1007,3 hPa 0,0 l/m² 2,4 km/h (1 Bft) S-SO 157 ° 0 min 0 W/m² 5,4 °C 7,9 °C 3,2 km/h (1 Bft)
25.01.2025 02:09 21,7 °C 7,9 °C 51 % 84 % 1007,2 hPa 0,0 l/m² 2,6 km/h (1 Bft) S-SO 157 ° 0 min 0 W/m² 5,4 °C 7,9 °C 3,2 km/h (1 Bft)
25.01.2025 02:10 21,7 °C 8,0 °C 51 % 84 % 1007,2 hPa 0,0 l/m² 2,9 km/h (1 Bft) S-SO 157 ° 0 min 0 W/m² 5,5 °C 8,0 °C 4,8 km/h (1 Bft)
25.01.2025 02:11 21,7 °C 7,9 °C 51 % 84 % 1007,1 hPa 0,0 l/m² 1,8 km/h (1 Bft) S-SO 157 ° 0 min 0 W/m² 5,4 °C 7,9 °C 3,2 km/h (1 Bft)
25.01.2025 02:12 21,7 °C 7,9 °C 51 % 84 % 1007,1 hPa 0,0 l/m² 1,9 km/h (1 Bft) S-SO 157 ° 0 min 0 W/m² 5,4 °C 7,9 °C 4,8 km/h (1 Bft)
25.01.2025 02:13 21,7 °C 7,9 °C 51 % 84 % 1007,2 hPa 0,0 l/m² 2,1 km/h (1 Bft) S-SO 157 ° 0 min 0 W/m² 5,4 °C 7,9 °C 3,2 km/h (1 Bft)
25.01.2025 02:14 21,7 °C 7,9 °C 51 % 84 % 1007,2 hPa 0,0 l/m² 3,4 km/h (1 Bft) S-SO 159 ° 0 min 0 W/m² 5,4 °C 7,9 °C 6,4 km/h (2 Bft)
25.01.2025 02:15 21,7 °C 8,0 °C 51 % 84 % 1007,2 hPa 0,0 l/m² 4,1 km/h (1 Bft) S-SO 168 ° 0 min 0 W/m² 5,5 °C 8,0 °C 9,7 km/h (2 Bft)
25.01.2025 02:16 21,7 °C 8,0 °C 51 % 84 % 1007,1 hPa 0,0 l/m² 5,8 km/h (2 Bft) S-SO 154 ° 0 min 0 W/m² 5,5 °C 8,0 °C 8,0 km/h (2 Bft)
25.01.2025 02:17 21,7 °C 8,0 °C 51 % 84 % 1007,1 hPa 0,0 l/m² 6,8 km/h (2 Bft) S-SO 153 ° 0 min 0 W/m² 5,5 °C 7,7 °C 9,7 km/h (2 Bft)
25.01.2025 02:18 21,7 °C 7,9 °C 51 % 84 % 1007,0 hPa 0,0 l/m² 6,4 km/h (2 Bft) S-SO 152 ° 0 min 0 W/m² 5,4 °C 7,9 °C 8,0 km/h (2 Bft)
25.01.2025 02:19 21,7 °C 7,9 °C 51 % 84 % 1007,1 hPa 0,0 l/m² 7,0 km/h (2 Bft) S-SO 157 ° 0 min 0 W/m² 5,4 °C 7,4 °C 9,7 km/h (2 Bft)
25.01.2025 02:20 21,7 °C 8,0 °C 51 % 84 % 1007,1 hPa 0,0 l/m² 6,0 km/h (2 Bft) S-SO 158 ° 0 min 0 W/m² 5,5 °C 8,0 °C 8,0 km/h (2 Bft)
25.01.2025 02:22 21,7 °C 8,0 °C 51 % 84 % 1007,1 hPa 0,0 l/m² 6,8 km/h (2 Bft) S-SO 157 ° 0 min 0 W/m² 5,5 °C 7,7 °C 11,3 km/h (2 Bft)
25.01.2025 02:24 21,7 °C 8,0 °C 51 % 84 % 1007,3 hPa 0,0 l/m² 5,3 km/h (1 Bft) S-SO 160 ° 0 min 0 W/m² 5,5 °C 8,0 °C 9,7 km/h (2 Bft)
25.01.2025 02:25 21,7 °C 8,0 °C 51 % 84 % 1007,2 hPa 0,0 l/m² 5,6 km/h (2 Bft) S-SO 158 ° 0 min 0 W/m² 5,5 °C 8,0 °C 8,0 km/h (2 Bft)
25.01.2025 02:26 21,7 °C 8,0 °C 51 % 84 % 1007,2 hPa 0,0 l/m² 5,6 km/h (2 Bft) S-SO 161 ° 0 min 0 W/m² 5,5 °C 8,0 °C 9,7 km/h (2 Bft)
25.01.2025 02:27 21,7 °C 8,0 °C 51 % 84 % 1007,2 hPa 0,0 l/m² 5,0 km/h (1 Bft) S-SO 157 ° 0 min 0 W/m² 5,5 °C 8,0 °C 8,0 km/h (2 Bft)
25.01.2025 02:28 21,7 °C 8,0 °C 51 % 84 % 1007,2 hPa 0,0 l/m² 3,6 km/h (1 Bft) S-SO 154 ° 0 min 0 W/m² 5,5 °C 8,0 °C 6,4 km/h (2 Bft)
25.01.2025 02:29 21,7 °C 8,1 °C 51 % 84 % 1007,2 hPa 0,0 l/m² 5,7 km/h (2 Bft) S-SO 155 ° 0 min 0 W/m² 5,6 °C 8,1 °C 9,7 km/h (2 Bft)
25.01.2025 02:31 21,7 °C 8,1 °C 51 % 84 % 1007,1 hPa 0,0 l/m² 6,0 km/h (2 Bft) S-SO 154 ° 0 min 0 W/m² 5,6 °C 8,1 °C 8,0 km/h (2 Bft)
25.01.2025 02:33 21,7 °C 8,1 °C 51 % 83 % 1007,2 hPa 0,0 l/m² 5,5 km/h (2 Bft) S-SO 155 ° 0 min 0 W/m² 5,4 °C 8,1 °C 11,3 km/h (2 Bft)
25.01.2025 02:34 21,7 °C 8,1 °C 51 % 83 % 1007,1 hPa 0,0 l/m² 9,3 km/h (2 Bft) S-SO 167 ° 0 min 0 W/m² 5,4 °C 5,9 °C 11,3 km/h (2 Bft)
25.01.2025 02:35 21,7 °C 8,1 °C 51 % 83 % 1007,2 hPa 0,0 l/m² 7,5 km/h (2 Bft) S-SO 161 ° 0 min 0 W/m² 5,4 °C 7,2 °C 9,7 km/h (2 Bft)
25.01.2025 02:36 21,7 °C 8,2 °C 51 % 83 % 1007,1 hPa 0,0 l/m² 4,3 km/h (1 Bft) SO 136 ° 0 min 0 W/m² 5,5 °C 8,2 °C 8,0 km/h (2 Bft)
25.01.2025 02:37 21,7 °C 8,2 °C 51 % 83 % 1007,1 hPa 0,0 l/m² 5,6 km/h (2 Bft) SO 132 ° 0 min 0 W/m² 5,5 °C 8,2 °C 11,3 km/h (2 Bft)
25.01.2025 02:38 21,7 °C 8,2 °C 51 % 83 % 1007,0 hPa 0,0 l/m² 4,7 km/h (1 Bft) SO 138 ° 0 min 0 W/m² 5,5 °C 8,2 °C 8,0 km/h (2 Bft)
25.01.2025 02:39 21,7 °C 8,2 °C 51 % 83 % 1007,0 hPa 0,0 l/m² 4,0 km/h (1 Bft) SO 138 ° 0 min 0 W/m² 5,5 °C 8,2 °C 8,0 km/h (2 Bft)
25.01.2025 02:40 21,7 °C 8,2 °C 51 % 83 % 1007,1 hPa 0,0 l/m² 4,4 km/h (1 Bft) SO 138 ° 0 min 0 W/m² 5,5 °C 8,2 °C 4,8 km/h (1 Bft)
25.01.2025 02:42 21,7 °C 8,2 °C 51 % 83 % 1006,9 hPa 0,0 l/m² 4,3 km/h (1 Bft) SO 138 ° 0 min 0 W/m² 5,5 °C 8,2 °C 6,4 km/h (2 Bft)
25.01.2025 02:44 21,7 °C 8,3 °C 51 % 83 % 1007,0 hPa 0,0 l/m² 1,9 km/h (1 Bft) S-SO 152 ° 0 min 0 W/m² 5,6 °C 8,3 °C 8,0 km/h (2 Bft)
25.01.2025 02:45 21,7 °C 8,3 °C 51 % 83 % 1007,0 hPa 0,0 l/m² 6,7 km/h (2 Bft) SO 136 ° 0 min 0 W/m² 5,6 °C 8,1 °C 11,3 km/h (2 Bft)
25.01.2025 02:46 21,7 °C 8,3 °C 51 % 83 % 1006,9 hPa 0,0 l/m² 4,4 km/h (1 Bft) SO 134 ° 0 min 0 W/m² 5,6 °C 8,3 °C 4,8 km/h (1 Bft)
25.01.2025 02:47 21,7 °C 8,3 °C 51 % 83 % 1006,9 hPa 0,0 l/m² 5,1 km/h (1 Bft) SO 139 ° 0 min 0 W/m² 5,6 °C 8,3 °C 8,0 km/h (2 Bft)
25.01.2025 02:48 21,7 °C 8,3 °C 51 % 83 % 1006,9 hPa 0,0 l/m² 5,0 km/h (1 Bft) SO 144 ° 0 min 0 W/m² 5,6 °C 8,3 °C 6,4 km/h (2 Bft)
25.01.2025 02:49 21,7 °C 8,3 °C 51 % 83 % 1007,0 hPa 0,0 l/m² 5,4 km/h (2 Bft) SO 145 ° 0 min 0 W/m² 5,6 °C 8,3 °C 6,4 km/h (2 Bft)
25.01.2025 02:50 21,7 °C 8,3 °C 51 % 82 % 1007,0 hPa 0,0 l/m² 4,3 km/h (1 Bft) SO 144 ° 0 min 0 W/m² 5,4 °C 8,3 °C 6,4 km/h (2 Bft)
25.01.2025 02:52 21,7 °C 8,4 °C 51 % 82 % 1006,8 hPa 0,0 l/m² 5,2 km/h (1 Bft) SO 134 ° 0 min 0 W/m² 5,5 °C 8,4 °C 11,3 km/h (2 Bft)
25.01.2025 02:54 21,7 °C 8,4 °C 51 % 82 % 1006,8 hPa 0,0 l/m² 6,2 km/h (2 Bft) SO 146 ° 0 min 0 W/m² 5,5 °C 8,4 °C 11,3 km/h (2 Bft)
25.01.2025 02:55 21,7 °C 8,5 °C 51 % 82 % 1006,9 hPa 0,0 l/m² 3,7 km/h (1 Bft) S-SO 152 ° 0 min 0 W/m² 5,6 °C 8,5 °C 6,4 km/h (2 Bft)
25.01.2025 02:56 21,7 °C 8,5 °C 51 % 82 % 1006,9 hPa 0,0 l/m² 4,0 km/h (1 Bft) S-SO 152 ° 0 min 0 W/m² 5,6 °C 8,5 °C 4,8 km/h (1 Bft)
25.01.2025 02:57 21,7 °C 8,5 °C 51 % 82 % 1006,9 hPa 0,0 l/m² 4,9 km/h (1 Bft) SO 145 ° 0 min 0 W/m² 5,6 °C 8,5 °C 8,0 km/h (2 Bft)
25.01.2025 02:58 21,7 °C 8,6 °C 51 % 82 % 1006,8 hPa 0,0 l/m² 6,0 km/h (2 Bft) SO 143 ° 0 min 0 W/m² 5,7 °C 8,6 °C 8,0 km/h (2 Bft)
25.01.2025 02:59 21,7 °C 8,6 °C 51 % 82 % 1006,9 hPa 0,0 l/m² 6,8 km/h (2 Bft) SO 136 ° 0 min 0 W/m² 5,7 °C 8,3 °C 8,0 km/h (2 Bft)
25.01.2025 03:00 21,7 °C 8,6 °C 51 % 82 % 1006,7 hPa 0,0 l/m² 9,0 km/h (2 Bft) SO 146 ° 0 min 0 W/m² 5,7 °C 6,7 °C 11,3 km/h (2 Bft)
25.01.2025 03:01 21,7 °C 8,6 °C 51 % 82 % 1006,8 hPa 0,0 l/m² 6,4 km/h (2 Bft) SO 135 ° 0 min 0 W/m² 5,7 °C 8,6 °C 8,0 km/h (2 Bft)
25.01.2025 03:06 21,7 °C 8,7 °C 51 % 81 % 1006,7 hPa 0,0 l/m² 9,4 km/h (2 Bft) SO 135 ° 0 min 0 W/m² 5,6 °C 6,5 °C 12,9 km/h (3 Bft)
25.01.2025 03:08 21,7 °C 8,8 °C 51 % 81 % 1006,7 hPa 0,0 l/m² 8,7 km/h (2 Bft) SO 132 ° 0 min 0 W/m² 5,7 °C 7,1 °C 11,3 km/h (2 Bft)
25.01.2025 03:09 21,7 °C 8,8 °C 51 % 81 % 1006,7 hPa 0,0 l/m² 7,2 km/h (2 Bft) SO 138 ° 0 min 0 W/m² 5,7 °C 8,2 °C 8,0 km/h (2 Bft)
25.01.2025 03:11 21,6 °C 8,8 °C 51 % 81 % 1006,7 hPa 0,0 l/m² 7,4 km/h (2 Bft) S-SO 151 ° 0 min 0 W/m² 5,7 °C 8,0 °C 11,3 km/h (2 Bft)
25.01.2025 03:13 21,7 °C 8,8 °C 51 % 80 % 1006,7 hPa 0,0 l/m² 6,6 km/h (2 Bft) SO 146 ° 0 min 0 W/m² 5,5 °C 8,7 °C 9,7 km/h (2 Bft)
25.01.2025 03:15 21,7 °C 8,9 °C 51 % 80 % 1006,7 hPa 0,0 l/m² 3,2 km/h (1 Bft) SO 146 ° 0 min 0 W/m² 5,6 °C 8,9 °C 6,4 km/h (2 Bft)
25.01.2025 03:17 21,7 °C 8,9 °C 51 % 80 % 1006,7 hPa 0,0 l/m² 3,0 km/h (1 Bft) SO 146 ° 0 min 0 W/m² 5,6 °C 8,9 °C 6,4 km/h (2 Bft)
25.01.2025 03:19 21,7 °C 8,9 °C 51 % 80 % 1006,8 hPa 0,0 l/m² 3,7 km/h (1 Bft) O 90 ° 0 min 0 W/m² 5,6 °C 8,9 °C 6,4 km/h (2 Bft)
25.01.2025 03:20 21,7 °C 8,9 °C 51 % 80 % 1006,7 hPa 0,0 l/m² 4,6 km/h (1 Bft) O 84 ° 0 min 0 W/m² 5,6 °C 8,9 °C 6,4 km/h (2 Bft)
25.01.2025 03:22 21,7 °C 8,9 °C 51 % 80 % 1006,7 hPa 0,0 l/m² 4,8 km/h (1 Bft) O 90 ° 0 min 0 W/m² 5,6 °C 8,9 °C 9,7 km/h (2 Bft)
25.01.2025 03:23 21,7 °C 9,0 °C 51 % 80 % 1006,7 hPa 0,0 l/m² 5,7 km/h (2 Bft) O 101 ° 0 min 0 W/m² 5,7 °C 9,0 °C 9,7 km/h (2 Bft)
25.01.2025 03:25 21,7 °C 9,1 °C 51 % 80 % 1006,8 hPa 0,0 l/m² 7,1 km/h (2 Bft) O 83 ° 0 min 0 W/m² 5,8 °C 8,6 °C 9,7 km/h (2 Bft)
25.01.2025 03:27 21,7 °C 9,1 °C 51 % 79 % 1006,7 hPa 0,0 l/m² 9,8 km/h (2 Bft) O 87 ° 0 min 0 W/m² 5,7 °C 6,7 °C 12,9 km/h (3 Bft)
25.01.2025 03:29 21,7 °C 9,1 °C 51 % 79 % 1007,3 hPa 0,0 l/m² 9,5 km/h (2 Bft) O 86 ° 0 min 0 W/m² 5,7 °C 6,9 °C 12,9 km/h (3 Bft)
25.01.2025 03:30 21,7 °C 9,1 °C 51 % 79 % 1006,7 hPa 0,0 l/m² 10,1 km/h (2 Bft) O 96 ° 0 min 0 W/m² 5,7 °C 6,5 °C 11,3 km/h (2 Bft)
25.01.2025 03:32 21,7 °C 9,1 °C 51 % 79 % 1006,7 hPa 0,0 l/m² 8,8 km/h (2 Bft) O 95 ° 0 min 0 W/m² 5,7 °C 7,4 °C 11,3 km/h (2 Bft)
25.01.2025 03:33 21,7 °C 9,2 °C 51 % 79 % 1006,7 hPa 0,0 l/m² 7,6 km/h (2 Bft) O 84 ° 0 min 0 W/m² 5,8 °C 8,3 °C 9,7 km/h (2 Bft)
25.01.2025 03:35 21,7 °C 9,1 °C 51 % 79 % 1006,7 hPa 0,0 l/m² 7,5 km/h (2 Bft) O 80 ° 0 min 0 W/m² 5,7 °C 8,3 °C 11,3 km/h (2 Bft)
25.01.2025 03:37 21,7 °C 9,1 °C 51 % 79 % 1006,6 hPa 0,0 l/m² 11,1 km/h (2 Bft) O 96 ° 0 min 0 W/m² 5,7 °C 6,0 °C 14,5 km/h (3 Bft)
25.01.2025 03:39 21,7 °C 9,1 °C 51 % 79 % 1006,6 hPa 0,0 l/m² 10,4 km/h (2 Bft) O-SO 104 ° 0 min 0 W/m² 5,7 °C 6,4 °C 12,9 km/h (3 Bft)
25.01.2025 03:40 21,7 °C 9,1 °C 51 % 79 % 1006,6 hPa 0,0 l/m² 10,0 km/h (2 Bft) O-SO 113 ° 0 min 0 W/m² 5,7 °C 6,6 °C 11,3 km/h (2 Bft)
25.01.2025 03:41 21,7 °C 9,1 °C 51 % 79 % 1006,4 hPa 0,0 l/m² 5,5 km/h (2 Bft) O-SO 105 ° 0 min 0 W/m² 5,7 °C 9,1 °C 6,4 km/h (2 Bft)
25.01.2025 03:43 21,7 °C 9,1 °C 51 % 79 % 1006,4 hPa 0,0 l/m² 5,6 km/h (2 Bft) O-SO 107 ° 0 min 0 W/m² 5,7 °C 9,1 °C 9,7 km/h (2 Bft)
25.01.2025 03:44 21,7 °C 9,1 °C 51 % 79 % 1006,4 hPa 0,0 l/m² 4,5 km/h (1 Bft) O-SO 104 ° 0 min 0 W/m² 5,7 °C 9,1 °C 6,4 km/h (2 Bft)
25.01.2025 03:47 21,7 °C 9,1 °C 51 % 79 % 1006,5 hPa 0,0 l/m² 5,7 km/h (2 Bft) O-SO 115 ° 0 min 0 W/m² 5,7 °C 9,1 °C 9,7 km/h (2 Bft)
25.01.2025 03:49 21,7 °C 9,1 °C 51 % 79 % 1006,4 hPa 0,0 l/m² 4,3 km/h (1 Bft) O 101 ° 0 min 0 W/m² 5,7 °C 9,1 °C 9,7 km/h (2 Bft)
25.01.2025 03:50 21,7 °C 9,1 °C 51 % 79 % 1006,4 hPa 0,0 l/m² 4,5 km/h (1 Bft) O 98 ° 0 min 0 W/m² 5,7 °C 9,1 °C 6,4 km/h (2 Bft)
25.01.2025 03:52 21,7 °C 9,0 °C 51 % 79 % 1006,4 hPa 0,0 l/m² 5,3 km/h (1 Bft) O 96 ° 0 min 0 W/m² 5,6 °C 9,0 °C 6,4 km/h (2 Bft)
25.01.2025 03:53 21,7 °C 8,9 °C 51 % 79 % 1006,4 hPa 0,0 l/m² 6,5 km/h (2 Bft) O 97 ° 0 min 0 W/m² 5,5 °C 8,9 °C 9,7 km/h (2 Bft)
25.01.2025 03:55 21,7 °C 8,9 °C 51 % 79 % 1006,3 hPa 0,0 l/m² 4,6 km/h (1 Bft) O 99 ° 0 min 0 W/m² 5,5 °C 8,9 °C 6,4 km/h (2 Bft)
25.01.2025 03:57 21,7 °C 8,9 °C 51 % 79 % 1006,4 hPa 0,0 l/m² 5,3 km/h (1 Bft) O 98 ° 0 min 0 W/m² 5,5 °C 8,9 °C 9,7 km/h (2 Bft)
25.01.2025 03:59 21,7 °C 8,8 °C 51 % 79 % 1006,4 hPa 0,0 l/m² 5,5 km/h (2 Bft) O 98 ° 0 min 0 W/m² 5,4 °C 8,8 °C 9,7 km/h (2 Bft)
25.01.2025 04:00 21,7 °C 8,8 °C 51 % 79 % 1006,3 hPa 0,0 l/m² 4,8 km/h (1 Bft) O 98 ° 0 min 0 W/m² 5,4 °C 8,8 °C 6,4 km/h (2 Bft)
25.01.2025 04:02 21,7 °C 8,8 °C 51 % 79 % 1006,3 hPa 0,0 l/m² 4,4 km/h (1 Bft) O 98 ° 0 min 0 W/m² 5,4 °C 8,8 °C 6,4 km/h (2 Bft)
25.01.2025 04:03 21,7 °C 8,7 °C 51 % 79 % 1006,3 hPa 0,0 l/m² 6,0 km/h (2 Bft) O 91 ° 0 min 0 W/m² 5,3 °C 8,7 °C 6,4 km/h (2 Bft)
25.01.2025 04:05 21,7 °C 8,7 °C 51 % 79 % 1006,3 hPa 0,0 l/m² 5,6 km/h (2 Bft) O 98 ° 0 min 0 W/m² 5,3 °C 8,7 °C 9,7 km/h (2 Bft)
25.01.2025 04:07 21,7 °C 8,6 °C 51 % 79 % 1006,3 hPa 0,0 l/m² 5,0 km/h (1 Bft) O 99 ° 0 min 0 W/m² 5,2 °C 8,6 °C 6,4 km/h (2 Bft)
25.01.2025 04:09 21,7 °C 8,6 °C 51 % 79 % 1006,3 hPa 0,0 l/m² 3,9 km/h (1 Bft) O 99 ° 0 min 0 W/m² 5,2 °C 8,6 °C 6,4 km/h (2 Bft)
25.01.2025 04:10 21,7 °C 8,6 °C 51 % 80 % 1006,3 hPa 0,0 l/m² 3,7 km/h (1 Bft) O 99 ° 0 min 0 W/m² 5,3 °C 8,6 °C 4,8 km/h (1 Bft)
25.01.2025 04:12 21,7 °C 8,5 °C 51 % 80 % 1006,2 hPa 0,0 l/m² 4,2 km/h (1 Bft) O 95 ° 0 min 0 W/m² 5,3 °C 8,5 °C 6,4 km/h (2 Bft)
25.01.2025 04:13 21,7 °C 8,5 °C 51 % 80 % 1006,2 hPa 0,0 l/m² 4,3 km/h (1 Bft) O 95 ° 0 min 0 W/m² 5,3 °C 8,5 °C 6,4 km/h (2 Bft)
25.01.2025 04:14 21,7 °C 8,4 °C 51 % 80 % 1006,2 hPa 0,0 l/m² 4,0 km/h (1 Bft) O 94 ° 0 min 0 W/m² 5,2 °C 8,4 °C 6,4 km/h (2 Bft)
25.01.2025 04:16 21,7 °C 8,4 °C 51 % 80 % 1006,2 hPa 0,0 l/m² 4,1 km/h (1 Bft) O 94 ° 0 min 0 W/m² 5,2 °C 8,4 °C 6,4 km/h (2 Bft)
25.01.2025 04:18 21,7 °C 8,4 °C 51 % 80 % 1006,2 hPa 0,0 l/m² 2,5 km/h (1 Bft) O 91 ° 0 min 0 W/m² 5,2 °C 8,4 °C 6,4 km/h (2 Bft)
25.01.2025 04:20 21,7 °C 8,4 °C 51 % 80 % 1006,3 hPa 0,0 l/m² 2,7 km/h (1 Bft) O 91 ° 0 min 0 W/m² 5,2 °C 8,4 °C 6,4 km/h (2 Bft)
25.01.2025 04:21 21,7 °C 8,4 °C 51 % 80 % 1006,2 hPa 0,0 l/m² 2,4 km/h (1 Bft) O 91 ° 0 min 0 W/m² 5,2 °C 8,4 °C 3,2 km/h (1 Bft)
25.01.2025 04:23 21,7 °C 8,3 °C 51 % 80 % 1006,3 hPa 0,0 l/m² 3,0 km/h (1 Bft) O 90 ° 0 min 0 W/m² 5,1 °C 8,3 °C 9,7 km/h (2 Bft)
25.01.2025 04:24 21,7 °C 8,3 °C 51 % 80 % 1006,2 hPa 0,0 l/m² 3,8 km/h (1 Bft) O 91 ° 0 min 0 W/m² 5,1 °C 8,3 °C 6,4 km/h (2 Bft)
25.01.2025 04:26 21,7 °C 8,3 °C 51 % 80 % 1006,2 hPa 0,0 l/m² 3,0 km/h (1 Bft) O 87 ° 0 min 0 W/m² 5,1 °C 8,3 °C 6,4 km/h (2 Bft)
25.01.2025 04:28 21,7 °C 8,3 °C 51 % 80 % 1006,1 hPa 0,0 l/m² 2,8 km/h (1 Bft) O 87 ° 0 min 0 W/m² 5,1 °C 8,3 °C 6,4 km/h (2 Bft)
25.01.2025 04:30 21,7 °C 8,3 °C 51 % 80 % 1006,1 hPa 0,0 l/m² 4,3 km/h (1 Bft) O-NO 65 ° 0 min 0 W/m² 5,1 °C 8,3 °C 6,4 km/h (2 Bft)
25.01.2025 04:31 21,7 °C 8,3 °C 51 % 80 % 1006,2 hPa 0,0 l/m² 3,8 km/h (1 Bft) O-NO 61 ° 0 min 0 W/m² 5,1 °C 8,3 °C 6,4 km/h (2 Bft)
25.01.2025 04:32 21,7 °C 8,3 °C 51 % 80 % 1006,2 hPa 0,0 l/m² 3,7 km/h (1 Bft) O-NO 60 ° 0 min 0 W/m² 5,1 °C 8,3 °C 4,8 km/h (1 Bft)
25.01.2025 04:34 21,7 °C 8,2 °C 51 % 80 % 1006,1 hPa 0,0 l/m² 2,2 km/h (1 Bft) O-NO 60 ° 0 min 0 W/m² 5,0 °C 8,2 °C 4,8 km/h (1 Bft)
25.01.2025 04:36 21,7 °C 8,2 °C 51 % 79 % 1006,2 hPa 0,0 l/m² 4,4 km/h (1 Bft) O-NO 60 ° 0 min 0 W/m² 4,8 °C 8,2 °C 8,0 km/h (2 Bft)
25.01.2025 04:38 21,7 °C 8,2 °C 51 % 80 % 1006,2 hPa 0,0 l/m² 1,5 km/h (1 Bft) O-NO 61 ° 0 min 0 W/m² 5,0 °C 8,2 °C 6,4 km/h (2 Bft)
25.01.2025 04:40 21,7 °C 8,2 °C 51 % 79 % 1006,3 hPa 0,0 l/m² 0,6 km/h (0 Bft) O-NO 61 ° 0 min 0 W/m² 4,8 °C 8,2 °C 3,2 km/h (1 Bft)
25.01.2025 04:41 21,7 °C 8,2 °C 51 % 79 % 1006,3 hPa 0,0 l/m² 0,1 km/h (0 Bft) O-NO 61 ° 0 min 0 W/m² 4,8 °C 8,2 °C 1,6 km/h (1 Bft)
25.01.2025 04:43 21,7 °C 8,2 °C 51 % 79 % 1006,3 hPa 0,0 l/m² 0,4 km/h (0 Bft) O-NO 61 ° 0 min 0 W/m² 4,8 °C 8,2 °C 1,6 km/h (1 Bft)
25.01.2025 04:44 21,7 °C 8,2 °C 51 % 79 % 1006,2 hPa 0,0 l/m² 0,0 km/h (0 Bft) O-NO 60 ° 0 min 0 W/m² 4,8 °C 8,2 °C 0,0 km/h (0 Bft)
25.01.2025 04:46 21,7 °C 8,2 °C 51 % 79 % 1006,3 hPa 0,0 l/m² 0,0 km/h (0 Bft) O-NO 61 ° 0 min 0 W/m² 4,8 °C 8,2 °C 1,6 km/h (1 Bft)
25.01.2025 04:48 21,7 °C 8,1 °C 51 % 79 % 1006,3 hPa 0,0 l/m² 0,0 km/h (0 Bft) O-NO 61 ° 0 min 0 W/m² 4,7 °C 8,1 °C 1,6 km/h (1 Bft)
25.01.2025 04:50 21,7 °C 8,1 °C 51 % 79 % 1006,3 hPa 0,0 l/m² 0,0 km/h (0 Bft) O-NO 61 ° 0 min 0 W/m² 4,7 °C 8,1 °C 1,6 km/h (1 Bft)
25.01.2025 04:51 21,7 °C 8,1 °C 51 % 79 % 1006,4 hPa 0,0 l/m² 0,0 km/h (0 Bft) O-NO 61 ° 0 min 0 W/m² 4,7 °C 8,1 °C 0,0 km/h (0 Bft)
25.01.2025 04:52 21,7 °C 8,1 °C 51 % 79 % 1006,4 hPa 0,0 l/m² 0,0 km/h (0 Bft) O-NO 61 ° 0 min 0 W/m² 4,7 °C 8,1 °C 0,0 km/h (0 Bft)
25.01.2025 04:54 21,7 °C 8,1 °C 51 % 79 % 1006,4 hPa 0,0 l/m² 0,0 km/h (0 Bft) O-NO 61 ° 0 min 0 W/m² 4,7 °C 8,1 °C 0,0 km/h (0 Bft)
25.01.2025 04:56 21,7 °C 8,0 °C 51 % 79 % 1006,3 hPa 0,0 l/m² 0,1 km/h (0 Bft) O-NO 61 ° 0 min 0 W/m² 4,6 °C 8,0 °C 1,6 km/h (1 Bft)
25.01.2025 04:58 21,7 °C 8,0 °C 51 % 79 % 1006,2 hPa 0,0 l/m² 0,3 km/h (0 Bft) O-NO 61 ° 0 min 0 W/m² 4,6 °C 8,0 °C 3,2 km/h (1 Bft)
25.01.2025 05:00 21,7 °C 7,9 °C 51 % 79 % 1006,3 hPa 0,0 l/m² 1,0 km/h (0 Bft) O 94 ° 0 min 0 W/m² 4,5 °C 7,9 °C 4,8 km/h (1 Bft)
25.01.2025 05:01 21,7 °C 7,9 °C 51 % 79 % 1006,3 hPa 0,0 l/m² 1,3 km/h (1 Bft) O 101 ° 0 min 0 W/m² 4,5 °C 7,9 °C 3,2 km/h (1 Bft)
25.01.2025 05:03 21,7 °C 7,9 °C 51 % 79 % 1006,4 hPa 0,0 l/m² 0,7 km/h (0 Bft) O-SO 103 ° 0 min 0 W/m² 4,5 °C 7,9 °C 3,2 km/h (1 Bft)
25.01.2025 05:04 21,7 °C 7,9 °C 51 % 79 % 1006,4 hPa 0,0 l/m² 1,2 km/h (1 Bft) S 175 ° 0 min 0 W/m² 4,5 °C 7,9 °C 6,4 km/h (2 Bft)
25.01.2025 05:06 21,7 °C 7,8 °C 51 % 79 % 1006,2 hPa 0,0 l/m² 0,9 km/h (0 Bft) S 175 ° 0 min 0 W/m² 4,4 °C 7,8 °C 4,8 km/h (1 Bft)
25.01.2025 05:08 21,7 °C 7,8 °C 51 % 79 % 1006,3 hPa 0,0 l/m² 1,3 km/h (1 Bft) S 175 ° 0 min 0 W/m² 4,4 °C 7,8 °C 4,8 km/h (1 Bft)
25.01.2025 05:10 21,7 °C 7,8 °C 51 % 79 % 1006,2 hPa 0,0 l/m² 1,9 km/h (1 Bft) S 169 ° 0 min 0 W/m² 4,4 °C 7,8 °C 8,0 km/h (2 Bft)
25.01.2025 05:11 21,7 °C 7,8 °C 51 % 79 % 1006,3 hPa 0,0 l/m² 1,3 km/h (1 Bft) S 169 ° 0 min 0 W/m² 4,4 °C 7,8 °C 3,2 km/h (1 Bft)
25.01.2025 05:13 21,7 °C 7,8 °C 51 % 79 % 1006,4 hPa 0,0 l/m² 1,4 km/h (1 Bft) S 169 ° 0 min 0 W/m² 4,4 °C 7,8 °C 3,2 km/h (1 Bft)
25.01.2025 05:14 21,7 °C 7,8 °C 51 % 79 % 1006,3 hPa 0,0 l/m² 2,7 km/h (1 Bft) S 169 ° 0 min 0 W/m² 4,4 °C 7,8 °C 6,4 km/h (2 Bft)
25.01.2025 05:16 21,7 °C 7,8 °C 51 % 79 % 1006,2 hPa 0,0 l/m² 3,3 km/h (1 Bft) S-SO 168 ° 0 min 0 W/m² 4,4 °C 7,8 °C 6,4 km/h (2 Bft)
25.01.2025 05:18 21,7 °C 7,8 °C 51 % 79 % 1006,3 hPa 0,0 l/m² 1,7 km/h (1 Bft) S-SO 168 ° 0 min 0 W/m² 4,4 °C 7,8 °C 3,2 km/h (1 Bft)
25.01.2025 05:20 21,7 °C 7,8 °C 51 % 79 % 1006,1 hPa 0,0 l/m² 1,7 km/h (1 Bft) S-SO 168 ° 0 min 0 W/m² 4,4 °C 7,8 °C 8,0 km/h (2 Bft)
25.01.2025 05:21 21,7 °C 7,8 °C 51 % 79 % 1006,2 hPa 0,0 l/m² 0,2 km/h (0 Bft) S-SO 168 ° 0 min 0 W/m² 4,4 °C 7,8 °C 1,6 km/h (1 Bft)
25.01.2025 05:22 21,7 °C 7,8 °C 51 % 79 % 1006,1 hPa 0,0 l/m² 0,2 km/h (0 Bft) S-SO 168 ° 0 min 0 W/m² 4,4 °C 7,8 °C 3,2 km/h (1 Bft)
25.01.2025 05:24 21,7 °C 7,8 °C 51 % 79 % 1006,2 hPa 0,0 l/m² 2,0 km/h (1 Bft) S-SO 148 ° 0 min 0 W/m² 4,4 °C 7,8 °C 4,8 km/h (1 Bft)
25.01.2025 05:26 21,7 °C 7,8 °C 51 % 79 % 1006,2 hPa 0,0 l/m² 5,6 km/h (2 Bft) S-SO 161 ° 0 min 0 W/m² 4,4 °C 7,8 °C 9,7 km/h (2 Bft)
25.01.2025 05:28 21,7 °C 7,8 °C 51 % 79 % 1006,1 hPa 0,0 l/m² 6,0 km/h (2 Bft) S-SO 161 ° 0 min 0 W/m² 4,4 °C 7,8 °C 9,7 km/h (2 Bft)
25.01.2025 05:30 21,7 °C 7,8 °C 51 % 79 % 1006,2 hPa 0,0 l/m² 7,1 km/h (2 Bft) S-SO 165 ° 0 min 0 W/m² 4,4 °C 7,2 °C 14,5 km/h (3 Bft)
25.01.2025 05:31 21,7 °C 7,8 °C 51 % 79 % 1006,2 hPa 0,0 l/m² 9,9 km/h (2 Bft) S-SO 161 ° 0 min 0 W/m² 4,4 °C 5,2 °C 14,5 km/h (3 Bft)
25.01.2025 05:33 21,7 °C 7,9 °C 51 % 79 % 1006,2 hPa 0,0 l/m² 8,1 km/h (2 Bft) S-SO 165 ° 0 min 0 W/m² 4,5 °C 6,6 °C 11,3 km/h (2 Bft)
25.01.2025 05:34 21,7 °C 7,9 °C 51 % 79 % 1006,2 hPa 0,0 l/m² 6,6 km/h (2 Bft) S 169 ° 0 min 0 W/m² 4,5 °C 7,8 °C 8,0 km/h (2 Bft)
25.01.2025 05:36 21,7 °C 7,9 °C 51 % 79 % 1006,2 hPa 0,0 l/m² 8,3 km/h (2 Bft) S-SO 165 ° 0 min 0 W/m² 4,5 °C 6,4 °C 12,9 km/h (3 Bft)
25.01.2025 05:38 21,7 °C 7,9 °C 51 % 79 % 1006,2 hPa 0,0 l/m² 8,4 km/h (2 Bft) S 174 ° 0 min 0 W/m² 4,5 °C 6,4 °C 11,3 km/h (2 Bft)
25.01.2025 05:40 21,7 °C 8,0 °C 51 % 79 % 1006,3 hPa 0,0 l/m² 7,8 km/h (2 Bft) S 176 ° 0 min 0 W/m² 4,6 °C 6,9 °C 16,1 km/h (3 Bft)
25.01.2025 05:41 21,6 °C 8,1 °C 51 % 79 % 1006,3 hPa 0,0 l/m² 9,4 km/h (2 Bft) S-SO 165 ° 0 min 0 W/m² 4,7 °C 5,9 °C 14,5 km/h (3 Bft)
25.01.2025 05:42 21,7 °C 8,1 °C 51 % 79 % 1006,4 hPa 0,0 l/m² 10,3 km/h (2 Bft) S-SO 151 ° 0 min 0 W/m² 4,7 °C 5,3 °C 12,9 km/h (3 Bft)
25.01.2025 05:43 21,7 °C 8,1 °C 51 % 78 % 1006,4 hPa 0,0 l/m² 12,7 km/h (3 Bft) S 173 ° 0 min 0 W/m² 4,5 °C 4,0 °C 17,7 km/h (3 Bft)
25.01.2025 05:45 21,7 °C 8,2 °C 51 % 78 % 1006,3 hPa 0,0 l/m² 9,1 km/h (2 Bft) S-SO 166 ° 0 min 0 W/m² 4,6 °C 6,2 °C 14,5 km/h (3 Bft)
25.01.2025 05:47 21,7 °C 8,2 °C 51 % 78 % 1006,2 hPa 0,0 l/m² 8,6 km/h (2 Bft) S-SO 157 ° 0 min 0 W/m² 4,6 °C 6,5 °C 12,9 km/h (3 Bft)
25.01.2025 05:49 21,7 °C 8,2 °C 51 % 78 % 1006,1 hPa 0,0 l/m² 6,8 km/h (2 Bft) S 174 ° 0 min 0 W/m² 4,6 °C 7,9 °C 12,9 km/h (3 Bft)
25.01.2025 05:51 21,6 °C 8,2 °C 51 % 78 % 1006,1 hPa 0,0 l/m² 11,3 km/h (2 Bft) S 173 ° 0 min 0 W/m² 4,6 °C 4,8 °C 14,5 km/h (3 Bft)
25.01.2025 05:52 21,7 °C 8,2 °C 51 % 78 % 1006,2 hPa 0,0 l/m² 9,0 km/h (2 Bft) S 171 ° 0 min 0 W/m² 4,6 °C 6,3 °C 11,3 km/h (2 Bft)
25.01.2025 05:53 21,7 °C 8,2 °C 51 % 78 % 1006,2 hPa 0,0 l/m² 11,0 km/h (2 Bft) S 173 ° 0 min 0 W/m² 4,6 °C 5,0 °C 17,7 km/h (3 Bft)
25.01.2025 05:54 21,7 °C 8,3 °C 51 % 78 % 1006,1 hPa 0,0 l/m² 9,5 km/h (2 Bft) S 173 ° 0 min 0 W/m² 4,7 °C 6,0 °C 14,5 km/h (3 Bft)
25.01.2025 05:56 21,7 °C 8,3 °C 51 % 78 % 1006,0 hPa 0,0 l/m² 9,0 km/h (2 Bft) S 179 ° 0 min 0 W/m² 4,7 °C 6,4 °C 14,5 km/h (3 Bft)
25.01.2025 05:58 21,7 °C 8,3 °C 51 % 78 % 1006,1 hPa 0,0 l/m² 9,3 km/h (2 Bft) S 173 ° 0 min 0 W/m² 4,7 °C 6,2 °C 14,5 km/h (3 Bft)
25.01.2025 06:00 21,7 °C 8,3 °C 51 % 77 % 1006,2 hPa 0,0 l/m² 9,9 km/h (2 Bft) S 186 ° 0 min 0 W/m² 4,5 °C 5,8 °C 17,7 km/h (3 Bft)
25.01.2025 06:01 21,6 °C 8,4 °C 51 % 77 % 1006,1 hPa 0,0 l/m² 9,4 km/h (2 Bft) S 190 ° 0 min 0 W/m² 4,6 °C 6,2 °C 19,3 km/h (3 Bft)
25.01.2025 06:03 21,7 °C 8,4 °C 51 % 77 % 1006,0 hPa 0,0 l/m² 12,0 km/h (2 Bft) S 188 ° 0 min 0 W/m² 4,6 °C 4,7 °C 19,3 km/h (3 Bft)
25.01.2025 06:05 21,6 °C 8,4 °C 51 % 77 % 1006,0 hPa 0,0 l/m² 11,0 km/h (2 Bft) SO 144 ° 0 min 0 W/m² 4,6 °C 5,2 °C 17,7 km/h (3 Bft)
25.01.2025 06:07 21,7 °C 8,5 °C 51 % 77 % 1006,0 hPa 0,0 l/m² 12,0 km/h (2 Bft) S-SO 165 ° 0 min 0 W/m² 4,7 °C 4,8 °C 24,1 km/h (4 Bft)
25.01.2025 06:09 21,6 °C 8,6 °C 51 % 76 % 1006,0 hPa 0,0 l/m² 11,6 km/h (2 Bft) S-SO 157 ° 0 min 0 W/m² 4,6 °C 5,1 °C 17,7 km/h (3 Bft)
25.01.2025 06:11 21,6 °C 8,6 °C 51 % 76 % 1006,0 hPa 0,0 l/m² 13,0 km/h (3 Bft) S-SO 155 ° 0 min 0 W/m² 4,6 °C 4,4 °C 22,5 km/h (4 Bft)
25.01.2025 06:12 21,6 °C 8,6 °C 51 % 76 % 1006,1 hPa 0,0 l/m² 12,9 km/h (3 Bft) S-SO 157 ° 0 min 0 W/m² 4,6 °C 4,4 °C 16,1 km/h (3 Bft)
25.01.2025 06:13 21,6 °C 8,6 °C 51 % 76 % 1006,1 hPa 0,0 l/m² 11,8 km/h (2 Bft) S 180 ° 0 min 0 W/m² 4,6 °C 5,0 °C 17,7 km/h (3 Bft)
25.01.2025 06:15 21,6 °C 8,7 °C 51 % 76 % 1006,1 hPa 0,0 l/m² 12,7 km/h (3 Bft) S 169 ° 0 min 0 W/m² 4,7 °C 4,7 °C 19,3 km/h (3 Bft)
25.01.2025 06:17 21,6 °C 8,7 °C 51 % 76 % 1006,0 hPa 0,0 l/m² 11,4 km/h (2 Bft) S 169 ° 0 min 0 W/m² 4,7 °C 5,3 °C 17,7 km/h (3 Bft)
25.01.2025 06:19 21,6 °C 8,7 °C 51 % 76 % 1006,0 hPa 0,0 l/m² 12,2 km/h (2 Bft) S 169 ° 0 min 0 W/m² 4,7 °C 4,9 °C 17,7 km/h (3 Bft)
25.01.2025 06:21 21,6 °C 8,7 °C 51 % 76 % 1006,1 hPa 0,0 l/m² 12,0 km/h (2 Bft) S-SO 165 ° 0 min 0 W/m² 4,7 °C 5,0 °C 17,7 km/h (3 Bft)
25.01.2025 06:22 21,6 °C 8,7 °C 51 % 76 % 1006,1 hPa 0,0 l/m² 14,6 km/h (3 Bft) S-SO 154 ° 0 min 0 W/m² 4,7 °C 3,7 °C 24,1 km/h (4 Bft)
25.01.2025 06:23 21,6 °C 8,7 °C 51 % 76 % 1006,1 hPa 0,0 l/m² 12,3 km/h (2 Bft) S 175 ° 0 min 0 W/m² 4,7 °C 4,9 °C 19,3 km/h (3 Bft)
25.01.2025 06:24 21,6 °C 8,8 °C 51 % 76 % 1006,0 hPa 0,0 l/m² 12,7 km/h (3 Bft) S-SO 161 ° 0 min 0 W/m² 4,8 °C 4,8 °C 17,7 km/h (3 Bft)
25.01.2025 06:25 21,6 °C 8,8 °C 51 % 76 % 1006,0 hPa 0,0 l/m² 11,6 km/h (2 Bft) S 171 ° 0 min 0 W/m² 4,8 °C 5,3 °C 17,7 km/h (3 Bft)
25.01.2025 06:27 21,6 °C 8,8 °C 51 % 76 % 1006,1 hPa 0,0 l/m² 10,6 km/h (2 Bft) S 175 ° 0 min 0 W/m² 4,8 °C 5,9 °C 14,5 km/h (3 Bft)
25.01.2025 06:29 21,6 °C 8,8 °C 51 % 76 % 1006,1 hPa 0,0 l/m² 10,9 km/h (2 Bft) S-SO 159 ° 0 min 0 W/m² 4,8 °C 5,7 °C 16,1 km/h (3 Bft)
25.01.2025 06:31 21,6 °C 8,8 °C 51 % 76 % 1006,0 hPa 0,0 l/m² 6,9 km/h (2 Bft) S-SO 159 ° 0 min 0 W/m² 4,8 °C 8,4 °C 11,3 km/h (2 Bft)
25.01.2025 06:32 21,6 °C 8,8 °C 51 % 76 % 1006,1 hPa 0,0 l/m² 7,5 km/h (2 Bft) S-SO 158 ° 0 min 0 W/m² 4,8 °C 8,0 °C 11,3 km/h (2 Bft)
25.01.2025 06:33 21,6 °C 8,8 °C 51 % 76 % 1006,1 hPa 0,0 l/m² 6,4 km/h (2 Bft) S-SO 147 ° 0 min 0 W/m² 4,8 °C 8,8 °C 9,7 km/h (2 Bft)
25.01.2025 06:35 21,6 °C 8,8 °C 51 % 76 % 1006,1 hPa 0,0 l/m² 4,5 km/h (1 Bft) S 171 ° 0 min 0 W/m² 4,8 °C 8,8 °C 9,7 km/h (2 Bft)
25.01.2025 06:37 21,6 °C 8,8 °C 51 % 76 % 1006,2 hPa 0,0 l/m² 3,7 km/h (1 Bft) S 173 ° 0 min 0 W/m² 4,8 °C 8,8 °C 9,7 km/h (2 Bft)
25.01.2025 06:39 21,6 °C 8,8 °C 51 % 76 % 1006,2 hPa 0,0 l/m² 3,9 km/h (1 Bft) S 174 ° 0 min 0 W/m² 4,8 °C 8,8 °C 8,0 km/h (2 Bft)
25.01.2025 06:41 21,6 °C 8,8 °C 51 % 76 % 1006,2 hPa 0,0 l/m² 1,1 km/h (1 Bft) S 174 ° 0 min 0 W/m² 4,8 °C 8,8 °C 3,2 km/h (1 Bft)
25.01.2025 06:42 21,6 °C 8,8 °C 51 % 76 % 1006,2 hPa 0,0 l/m² 0,0 km/h (0 Bft) S 174 ° 0 min 0 W/m² 4,8 °C 8,8 °C 0,0 km/h (0 Bft)
25.01.2025 06:43 21,6 °C 8,8 °C 51 % 76 % 1006,2 hPa 0,0 l/m² 0,0 km/h (0 Bft) S 174 ° 0 min 0 W/m² 4,8 °C 8,8 °C 0,0 km/h (0 Bft)
25.01.2025 06:44 21,6 °C 8,8 °C 51 % 76 % 1006,2 hPa 0,0 l/m² 0,5 km/h (0 Bft) S 174 ° 0 min 0 W/m² 4,8 °C 8,8 °C 1,6 km/h (1 Bft)
25.01.2025 06:46 21,6 °C 8,8 °C 51 % 76 % 1006,2 hPa 0,0 l/m² 0,8 km/h (0 Bft) S 174 ° 0 min 0 W/m² 4,8 °C 8,8 °C 3,2 km/h (1 Bft)
25.01.2025 06:48 21,6 °C 8,8 °C 51 % 76 % 1006,2 hPa 0,0 l/m² 0,5 km/h (0 Bft) S 174 ° 0 min 0 W/m² 4,8 °C 8,8 °C 3,2 km/h (1 Bft)
25.01.2025 06:50 21,6 °C 8,7 °C 51 % 76 % 1006,3 hPa 0,0 l/m² 0,2 km/h (0 Bft) S 174 ° 0 min 0 W/m² 4,7 °C 8,7 °C 1,6 km/h (1 Bft)
25.01.2025 06:51 21,6 °C 8,7 °C 51 % 76 % 1006,1 hPa 0,0 l/m² 1,1 km/h (1 Bft) S 174 ° 0 min 0 W/m² 4,7 °C 8,7 °C 3,2 km/h (1 Bft)
25.01.2025 06:53 21,6 °C 8,7 °C 51 % 76 % 1006,2 hPa 0,0 l/m² 1,8 km/h (1 Bft) S 174 ° 0 min 0 W/m² 4,7 °C 8,7 °C 3,2 km/h (1 Bft)
25.01.2025 06:54 21,6 °C 8,7 °C 51 % 76 % 1006,2 hPa 0,0 l/m² 0,7 km/h (0 Bft) S 174 ° 0 min 0 W/m² 4,7 °C 8,7 °C 3,2 km/h (1 Bft)
25.01.2025 06:56 21,6 °C 8,7 °C 51 % 76 % 1006,2 hPa 0,0 l/m² 0,6 km/h (0 Bft) S 174 ° 0 min 0 W/m² 4,7 °C 8,7 °C 3,2 km/h (1 Bft)
25.01.2025 06:58 21,6 °C 8,7 °C 51 % 76 % 1006,1 hPa 0,0 l/m² 0,0 km/h (0 Bft) S 174 ° 0 min 0 W/m² 4,7 °C 8,7 °C 0,0 km/h (0 Bft)
25.01.2025 07:00 21,6 °C 8,7 °C 51 % 76 % 1006,1 hPa 0,0 l/m² 0,7 km/h (0 Bft) S 174 ° 0 min 0 W/m² 4,7 °C 8,7 °C 3,2 km/h (1 Bft)
25.01.2025 07:01 21,6 °C 8,6 °C 51 % 76 % 1006,2 hPa 0,0 l/m² 0,0 km/h (0 Bft) S 174 ° 0 min 0 W/m² 4,6 °C 8,6 °C 0,0 km/h (0 Bft)
25.01.2025 07:03 21,6 °C 8,6 °C 51 % 76 % 1006,1 hPa 0,0 l/m² 0,4 km/h (0 Bft) S 174 ° 0 min 0 W/m² 4,6 °C 8,6 °C 3,2 km/h (1 Bft)
25.01.2025 07:05 21,6 °C 8,6 °C 51 % 76 % 1006,2 hPa 0,0 l/m² 0,0 km/h (0 Bft) S 174 ° 0 min 0 W/m² 4,6 °C 8,6 °C 0,0 km/h (0 Bft)
25.01.2025 07:07 21,6 °C 8,6 °C 51 % 76 % 1006,1 hPa 0,0 l/m² 0,3 km/h (0 Bft) S 174 ° 0 min 0 W/m² 4,6 °C 8,6 °C 3,2 km/h (1 Bft)
25.01.2025 07:09 21,6 °C 8,6 °C 51 % 76 % 1006,1 hPa 0,0 l/m² 0,0 km/h (0 Bft) S 174 ° 0 min 0 W/m² 4,6 °C 8,6 °C 1,6 km/h (1 Bft)
25.01.2025 07:11 21,6 °C 8,5 °C 51 % 76 % 1006,1 hPa 0,0 l/m² 0,5 km/h (0 Bft) S 174 ° 0 min 0 W/m² 4,5 °C 8,5 °C 3,2 km/h (1 Bft)
25.01.2025 07:12 21,6 °C 8,5 °C 51 % 76 % 1006,1 hPa 0,0 l/m² 0,1 km/h (0 Bft) S 174 ° 0 min 0 W/m² 4,5 °C 8,5 °C 1,6 km/h (1 Bft)
25.01.2025 07:13 21,6 °C 8,5 °C 51 % 76 % 1006,1 hPa 0,0 l/m² 1,9 km/h (1 Bft) S 173 ° 0 min 0 W/m² 4,5 °C 8,5 °C 4,8 km/h (1 Bft)
25.01.2025 07:15 21,6 °C 8,4 °C 51 % 76 % 1006,1 hPa 0,0 l/m² 2,6 km/h (1 Bft) S 170 ° 0 min 0 W/m² 4,4 °C 8,4 °C 6,4 km/h (2 Bft)
25.01.2025 07:17 21,6 °C 8,4 °C 51 % 76 % 1006,0 hPa 0,0 l/m² 3,4 km/h (1 Bft) S-SO 153 ° 0 min 0 W/m² 4,4 °C 8,4 °C 9,7 km/h (2 Bft)
25.01.2025 07:19 21,6 °C 8,4 °C 51 % 76 % 1006,0 hPa 0,0 l/m² 5,0 km/h (1 Bft) S 182 ° 0 min 0 W/m² 4,4 °C 8,4 °C 9,7 km/h (2 Bft)
25.01.2025 07:21 21,6 °C 8,4 °C 51 % 77 % 1005,9 hPa 0,0 l/m² 6,5 km/h (2 Bft) S 172 ° 0 min 0 W/m² 4,6 °C 8,3 °C 12,9 km/h (3 Bft)
25.01.2025 07:22 21,6 °C 8,3 °C 51 % 77 % 1005,9 hPa 0,0 l/m² 7,1 km/h (2 Bft) S 182 ° 0 min 0 W/m² 4,5 °C 7,8 °C 9,7 km/h (2 Bft)
25.01.2025 07:23 21,6 °C 8,3 °C 51 % 77 % 1005,9 hPa 0,0 l/m² 8,8 km/h (2 Bft) S 185 ° 0 min 0 W/m² 4,5 °C 6,5 °C 11,3 km/h (2 Bft)
25.01.2025 07:25 21,6 °C 8,3 °C 51 % 77 % 1005,9 hPa 0,0 l/m² 8,7 km/h (2 Bft) S 171 ° 0 min 0 W/m² 4,5 °C 6,6 °C 12,9 km/h (3 Bft)
25.01.2025 07:26 21,6 °C 8,3 °C 51 % 77 % 1005,8 hPa 0,0 l/m² 10,3 km/h (2 Bft) S-SO 161 ° 0 min 0 W/m² 4,5 °C 5,5 °C 14,5 km/h (3 Bft)
25.01.2025 07:27 21,6 °C 8,3 °C 51 % 76 % 1005,8 hPa 0,0 l/m² 8,5 km/h (2 Bft) S-SO 159 ° 0 min 0 W/m² 4,3 °C 6,7 °C 9,7 km/h (2 Bft)
25.01.2025 07:29 21,6 °C 8,4 °C 51 % 76 % 1005,7 hPa 0,0 l/m² 10,2 km/h (2 Bft) S-SO 159 ° 0 min 0 W/m² 4,4 °C 5,7 °C 14,5 km/h (3 Bft)
25.01.2025 07:31 21,6 °C 8,4 °C 51 % 76 % 1005,8 hPa 0,0 l/m² 10,3 km/h (2 Bft) S-SO 155 ° 0 min 0 W/m² 4,4 °C 5,6 °C 14,5 km/h (3 Bft)
25.01.2025 07:32 21,5 °C 8,4 °C 51 % 76 % 1005,8 hPa 0,0 l/m² 11,4 km/h (2 Bft) S-SO 159 ° 0 min 0 W/m² 4,4 °C 5,0 °C 16,1 km/h (3 Bft)
25.01.2025 07:33 21,5 °C 8,5 °C 51 % 76 % 1005,8 hPa 0,0 l/m² 9,7 km/h (2 Bft) S-SO 153 ° 0 min 0 W/m² 4,5 °C 6,1 °C 14,5 km/h (3 Bft)
25.01.2025 07:35 21,6 °C 8,5 °C 51 % 76 % 1005,8 hPa 0,0 l/m² 13,0 km/h (3 Bft) S-SO 158 ° 0 min 0 W/m² 4,5 °C 4,3 °C 19,3 km/h (3 Bft)
25.01.2025 07:37 21,6 °C 8,6 °C 51 % 75 % 1005,8 hPa 0,0 l/m² 11,1 km/h (2 Bft) S-SO 163 ° 0 min 0 W/m² 4,4 °C 5,4 °C 14,5 km/h (3 Bft)
25.01.2025 07:39 21,5 °C 8,6 °C 51 % 75 % 1005,8 hPa 0,0 l/m² 12,4 km/h (2 Bft) S-SO 148 ° 0 min 0 W/m² 4,4 °C 4,7 °C 16,1 km/h (3 Bft)
25.01.2025 07:41 21,6 °C 8,7 °C 51 % 75 % 1005,8 hPa 0,0 l/m² 14,7 km/h (3 Bft) S-SO 167 ° 0 min 0 W/m² 4,5 °C 3,7 °C 24,1 km/h (4 Bft)
25.01.2025 07:42 21,5 °C 8,7 °C 51 % 75 % 1005,7 hPa 0,0 l/m² 13,4 km/h (3 Bft) SO 142 ° 0 min 0 W/m² 4,5 °C 4,3 °C 19,3 km/h (3 Bft)
25.01.2025 07:43 21,5 °C 8,8 °C 51 % 74 % 1005,7 hPa 0,0 l/m² 12,3 km/h (2 Bft) S-SO 167 ° 0 min 0 W/m² 4,4 °C 5,0 °C 16,1 km/h (3 Bft)
25.01.2025 07:44 21,5 °C 8,8 °C 51 % 74 % 1005,8 hPa 0,0 l/m² 14,1 km/h (3 Bft) S-SO 159 ° 0 min 0 W/m² 4,4 °C 4,1 °C 17,7 km/h (3 Bft)
25.01.2025 07:45 21,5 °C 8,8 °C 51 % 74 % 1005,8 hPa 0,0 l/m² 14,2 km/h (3 Bft) S-SO 147 ° 0 min 0 W/m² 4,4 °C 4,0 °C 17,7 km/h (3 Bft)
25.01.2025 07:47 21,6 °C 8,9 °C 51 % 74 % 1005,8 hPa 0,0 l/m² 13,7 km/h (3 Bft) S-SO 161 ° 0 min 0 W/m² 4,5 °C 4,4 °C 17,7 km/h (3 Bft)
25.01.2025 07:49 21,6 °C 8,9 °C 51 % 74 % 1005,7 hPa 0,0 l/m² 14,7 km/h (3 Bft) S 172 ° 0 min 0 W/m² 4,5 °C 3,9 °C 22,5 km/h (4 Bft)
25.01.2025 07:51 21,6 °C 9,0 °C 51 % 73 % 1005,9 hPa 0,0 l/m² 13,1 km/h (3 Bft) S-SO 155 ° 0 min 0 W/m² 4,4 °C 4,8 °C 16,1 km/h (3 Bft)
25.01.2025 07:52 21,5 °C 9,0 °C 51 % 73 % 1005,8 hPa 0,0 l/m² 14,4 km/h (3 Bft) S-SO 164 ° 0 min 0 W/m² 4,4 °C 4,2 °C 19,3 km/h (3 Bft)
25.01.2025 07:53 21,5 °C 9,0 °C 51 % 73 % 1005,8 hPa 0,0 l/m² 14,1 km/h (3 Bft) S-SO 149 ° 0 min 0 W/m² 4,4 °C 4,3 °C 17,7 km/h (3 Bft)
25.01.2025 07:55 21,5 °C 9,1 °C 51 % 73 % 1005,9 hPa 0,0 l/m² 13,4 km/h (3 Bft) S-SO 155 ° 0 min 0 W/m² 4,5 °C 4,8 °C 22,5 km/h (4 Bft)
25.01.2025 07:57 21,5 °C 9,1 °C 51 % 73 % 1006,1 hPa 0,0 l/m² 12,5 km/h (2 Bft) S 177 ° 0 min 0 W/m² 4,5 °C 5,2 °C 19,3 km/h (3 Bft)
25.01.2025 07:59 21,6 °C 9,1 °C 51 % 73 % 1006,1 hPa 0,0 l/m² 12,0 km/h (2 Bft) S-SO 167 ° 0 min 0 W/m² 4,5 °C 5,5 °C 16,1 km/h (3 Bft)
25.01.2025 08:01 21,5 °C 9,1 °C 51 % 73 % 1006,1 hPa 0,0 l/m² 12,5 km/h (2 Bft) S-SO 158 ° 0 min 0 W/m² 4,5 °C 5,2 °C 17,7 km/h (3 Bft)
25.01.2025 08:02 21,6 °C 9,1 °C 51 % 73 % 1006,1 hPa 0,0 l/m² 13,7 km/h (3 Bft) S 179 ° 0 min 0 W/m² 4,5 °C 4,6 °C 17,7 km/h (3 Bft)
25.01.2025 08:03 21,6 °C 9,1 °C 51 % 73 % 1006,1 hPa 0,0 l/m² 12,5 km/h (2 Bft) S-SO 167 ° 0 min 0 W/m² 4,5 °C 5,2 °C 14,5 km/h (3 Bft)
25.01.2025 08:05 21,6 °C 9,1 °C 51 % 73 % 1006,1 hPa 0,0 l/m² 11,0 km/h (2 Bft) S 173 ° 0 min 0 W/m² 4,5 °C 6,0 °C 14,5 km/h (3 Bft)
25.01.2025 08:07 21,6 °C 9,1 °C 51 % 73 % 1006,2 hPa 0,0 l/m² 11,6 km/h (2 Bft) S 180 ° 0 min 0 W/m² 4,5 °C 5,7 °C 17,7 km/h (3 Bft)
25.01.2025 08:09 21,6 °C 9,1 °C 51 % 74 % 1006,3 hPa 0,0 l/m² 11,5 km/h (2 Bft) S 180 ° 0 min 0 W/m² 4,7 °C 5,7 °C 14,5 km/h (3 Bft)
25.01.2025 08:11 21,6 °C 9,1 °C 51 % 74 % 1006,4 hPa 0,0 l/m² 10,3 km/h (2 Bft) S-SO 158 ° 0 min 0 W/m² 4,7 °C 6,4 °C 14,5 km/h (3 Bft)
25.01.2025 08:12 21,6 °C 9,0 °C 51 % 74 % 1006,4 hPa 0,0 l/m² 12,4 km/h (2 Bft) S 178 ° 0 min 0 W/m² 4,6 °C 5,2 °C 14,5 km/h (3 Bft)
25.01.2025 08:13 21,6 °C 9,0 °C 51 % 74 % 1006,4 hPa 0,0 l/m² 13,0 km/h (3 Bft) S 178 ° 0 min 0 W/m² 4,6 °C 4,9 °C 16,1 km/h (3 Bft)
25.01.2025 08:15 21,6 °C 9,0 °C 51 % 74 % 1006,3 hPa 0,0 l/m² 11,9 km/h (2 Bft) S-SO 168 ° 0 min 5 W/m² 4,6 °C 5,4 °C 17,7 km/h (3 Bft)
25.01.2025 08:17 21,6 °C 9,0 °C 51 % 74 % 1006,3 hPa 0,0 l/m² 12,2 km/h (2 Bft) S 178 ° 0 min 5 W/m² 4,6 °C 5,3 °C 16,1 km/h (3 Bft)
25.01.2025 08:19 21,6 °C 9,0 °C 51 % 74 % 1006,3 hPa 0,0 l/m² 12,1 km/h (2 Bft) S-SO 163 ° 0 min 5 W/m² 4,6 °C 5,3 °C 17,7 km/h (3 Bft)
25.01.2025 08:20 21,6 °C 9,0 °C 51 % 74 % 1006,3 hPa 0,0 l/m² 10,4 km/h (2 Bft) S-SO 159 ° 0 min 7 W/m² 4,6 °C 6,3 °C 14,5 km/h (3 Bft)
25.01.2025 08:22 21,6 °C 9,0 °C 51 % 74 % 1006,3 hPa 0,0 l/m² 10,1 km/h (2 Bft) S 169 ° 0 min 9 W/m² 4,6 °C 6,4 °C 16,1 km/h (3 Bft)
25.01.2025 08:24 21,6 °C 9,1 °C 51 % 74 % 1006,1 hPa 0,0 l/m² 8,9 km/h (2 Bft) S 169 ° 0 min 11 W/m² 4,7 °C 7,3 °C 11,3 km/h (2 Bft)
25.01.2025 08:26 21,7 °C 9,1 °C 52 % 73 % 1006,1 hPa 0,0 l/m² 9,4 km/h (2 Bft) S 173 ° 0 min 12 W/m² 4,5 °C 7,0 °C 14,5 km/h (3 Bft)
25.01.2025 08:28 21,7 °C 9,1 °C 52 % 73 % 1006,0 hPa 0,0 l/m² 10,5 km/h (2 Bft) S 171 ° 0 min 14 W/m² 4,5 °C 6,3 °C 17,7 km/h (3 Bft)
25.01.2025 08:30 21,7 °C 9,2 °C 52 % 73 % 1006,1 hPa 0,0 l/m² 11,8 km/h (2 Bft) S-SO 160 ° 0 min 14 W/m² 4,6 °C 5,7 °C 16,1 km/h (3 Bft)
25.01.2025 08:31 21,7 °C 9,2 °C 52 % 73 % 1006,1 hPa 0,0 l/m² 8,9 km/h (2 Bft) S 171 ° 0 min 18 W/m² 4,6 °C 7,4 °C 11,3 km/h (2 Bft)
25.01.2025 08:33 21,7 °C 9,3 °C 52 % 73 % 1006,1 hPa 0,0 l/m² 9,4 km/h (2 Bft) S-SO 159 ° 0 min 19 W/m² 4,7 °C 7,2 °C 17,7 km/h (3 Bft)
25.01.2025 08:35 21,7 °C 9,3 °C 52 % 72 % 1006,1 hPa 0,0 l/m² 7,5 km/h (2 Bft) SO 140 ° 0 min 19 W/m² 4,5 °C 8,5 °C 17,7 km/h (3 Bft)
25.01.2025 08:37 21,7 °C 9,3 °C 52 % 72 % 1006,0 hPa 0,0 l/m² 9,4 km/h (2 Bft) SO 142 ° 0 min 16 W/m² 4,5 °C 7,2 °C 16,1 km/h (3 Bft)
25.01.2025 08:39 21,7 °C 9,4 °C 52 % 72 % 1005,9 hPa 0,0 l/m² 8,4 km/h (2 Bft) SO 134 ° 0 min 16 W/m² 4,6 °C 7,9 °C 12,9 km/h (3 Bft)
25.01.2025 08:40 21,7 °C 9,4 °C 52 % 72 % 1005,8 hPa 0,0 l/m² 10,3 km/h (2 Bft) S 169 ° 0 min 16 W/m² 4,6 °C 6,8 °C 16,1 km/h (3 Bft)
25.01.2025 08:41 21,7 °C 9,4 °C 52 % 72 % 1005,8 hPa 0,0 l/m² 12,4 km/h (2 Bft) SO 142 ° 0 min 14 W/m² 4,6 °C 5,6 °C 16,1 km/h (3 Bft)
25.01.2025 08:42 21,7 °C 9,5 °C 52 % 72 % 1006,0 hPa 0,0 l/m² 10,9 km/h (2 Bft) S-SO 168 ° 0 min 14 W/m² 4,7 °C 6,5 °C 14,5 km/h (3 Bft)
25.01.2025 08:44 21,7 °C 9,6 °C 52 % 72 % 1006,0 hPa 0,0 l/m² 8,8 km/h (2 Bft) S 182 ° 0 min 14 W/m² 4,8 °C 7,9 °C 16,1 km/h (3 Bft)
25.01.2025 08:46 21,7 °C 9,6 °C 52 % 72 % 1006,0 hPa 0,0 l/m² 7,7 km/h (2 Bft) S 180 ° 0 min 16 W/m² 4,8 °C 8,6 °C 12,9 km/h (3 Bft)
25.01.2025 08:48 21,7 °C 9,6 °C 52 % 72 % 1006,0 hPa 0,0 l/m² 6,7 km/h (2 Bft) S 171 ° 0 min 18 W/m² 4,8 °C 9,4 °C 12,9 km/h (3 Bft)
25.01.2025 08:50 21,7 °C 9,7 °C 52 % 72 % 1006,0 hPa 0,0 l/m² 6,3 km/h (2 Bft) S-SO 156 ° 0 min 18 W/m² 4,9 °C 9,7 °C 11,3 km/h (2 Bft)
25.01.2025 08:51 21,7 °C 9,7 °C 52 % 72 % 1005,9 hPa 0,0 l/m² 4,5 km/h (1 Bft) S-SO 160 ° 0 min 18 W/m² 4,9 °C 9,7 °C 8,0 km/h (2 Bft)
25.01.2025 08:52 21,8 °C 9,7 °C 52 % 72 % 1005,9 hPa 0,0 l/m² 8,9 km/h (2 Bft) S-SO 166 ° 0 min 18 W/m² 4,9 °C 7,9 °C 14,5 km/h (3 Bft)
25.01.2025 08:53 21,7 °C 9,7 °C 52 % 72 % 1005,9 hPa 0,0 l/m² 7,2 km/h (2 Bft) S 177 ° 0 min 19 W/m² 4,9 °C 9,1 °C 11,3 km/h (2 Bft)
25.01.2025 08:55 21,7 °C 9,8 °C 52 % 72 % 1005,9 hPa 0,0 l/m² 4,3 km/h (1 Bft) S 178 ° 0 min 21 W/m² 5,0 °C 9,8 °C 6,4 km/h (2 Bft)
25.01.2025 08:57 21,7 °C 9,8 °C 53 % 72 % 1005,9 hPa 0,0 l/m² 1,7 km/h (1 Bft) S 178 ° 0 min 25 W/m² 5,0 °C 9,8 °C 4,8 km/h (1 Bft)
25.01.2025 08:59 21,7 °C 9,8 °C 53 % 72 % 1005,9 hPa 0,0 l/m² 4,9 km/h (1 Bft) S 181 ° 0 min 26 W/m² 5,0 °C 9,8 °C 9,7 km/h (2 Bft)
25.01.2025 09:00 21,8 °C 9,8 °C 53 % 72 % 1005,9 hPa 0,0 l/m² 4,8 km/h (1 Bft) S 181 ° 0 min 28 W/m² 5,0 °C 9,8 °C 8,0 km/h (2 Bft)
25.01.2025 09:01 21,8 °C 9,8 °C 53 % 72 % 1005,9 hPa 0,0 l/m² 4,1 km/h (1 Bft) S-SW 197 ° 0 min 28 W/m² 5,0 °C 9,8 °C 6,4 km/h (2 Bft)
25.01.2025 09:02 21,8 °C 9,8 °C 53 % 72 % 1005,9 hPa 0,0 l/m² 5,8 km/h (2 Bft) S 188 ° 0 min 30 W/m² 5,0 °C 9,8 °C 8,0 km/h (2 Bft)
25.01.2025 09:04 21,8 °C 9,8 °C 53 % 72 % 1006,0 hPa 0,0 l/m² 6,1 km/h (2 Bft) S 190 ° 0 min 32 W/m² 5,0 °C 9,8 °C 9,7 km/h (2 Bft)
25.01.2025 09:06 21,8 °C 9,8 °C 53 % 72 % 1005,9 hPa 0,0 l/m² 5,0 km/h (1 Bft) S 184 ° 0 min 33 W/m² 5,0 °C 9,8 °C 6,4 km/h (2 Bft)
25.01.2025 09:08 21,8 °C 9,8 °C 53 % 72 % 1006,0 hPa 0,0 l/m² 4,4 km/h (1 Bft) S 184 ° 0 min 33 W/m² 5,0 °C 9,8 °C 6,4 km/h (2 Bft)
25.01.2025 09:09 21,8 °C 9,9 °C 53 % 72 % 1006,0 hPa 0,0 l/m² 6,6 km/h (2 Bft) S-SW 202 ° 0 min 35 W/m² 5,1 °C 9,8 °C 8,0 km/h (2 Bft)
25.01.2025 09:10 21,8 °C 9,8 °C 53 % 72 % 1006,0 hPa 0,0 l/m² 4,4 km/h (1 Bft) S-SW 200 ° 0 min 35 W/m² 5,0 °C 9,8 °C 8,0 km/h (2 Bft)
25.01.2025 09:13 21,8 °C 9,9 °C 53 % 72 % 1005,9 hPa 0,0 l/m² 3,4 km/h (1 Bft) S-SW 206 ° 0 min 35 W/m² 5,1 °C 9,9 °C 9,7 km/h (2 Bft)
25.01.2025 09:15 21,8 °C 9,9 °C 53 % 72 % 1005,9 hPa 0,0 l/m² 0,0 km/h (0 Bft) S-SW 206 ° 0 min 35 W/m² 5,1 °C 9,9 °C 1,6 km/h (1 Bft)
25.01.2025 09:17 21,8 °C 9,9 °C 53 % 72 % 1005,8 hPa 0,0 l/m² 0,0 km/h (0 Bft) S-SW 206 ° 0 min 37 W/m² 5,1 °C 9,9 °C 0,0 km/h (0 Bft)
25.01.2025 09:19 21,8 °C 9,9 °C 53 % 72 % 1005,7 hPa 0,0 l/m² 1,4 km/h (1 Bft) S-SO 163 ° 0 min 39 W/m² 5,1 °C 9,9 °C 8,0 km/h (2 Bft)
25.01.2025 09:20 21,8 °C 9,9 °C 52 % 72 % 1005,7 hPa 0,0 l/m² 2,0 km/h (1 Bft) S-SO 163 ° 0 min 39 W/m² 5,1 °C 9,9 °C 6,4 km/h (2 Bft)
25.01.2025 09:21 21,8 °C 9,9 °C 52 % 72 % 1005,7 hPa 0,0 l/m² 1,6 km/h (1 Bft) SW 224 ° 0 min 40 W/m² 5,1 °C 9,9 °C 4,8 km/h (1 Bft)
25.01.2025 09:23 21,8 °C 9,9 °C 53 % 71 % 1005,6 hPa 0,0 l/m² 1,4 km/h (1 Bft) W-SW 248 ° 0 min 42 W/m² 4,9 °C 9,9 °C 4,8 km/h (1 Bft)
25.01.2025 09:25 21,8 °C 10,0 °C 52 % 71 % 1005,5 hPa 0,0 l/m² 0,1 km/h (0 Bft) S-SW 213 ° 0 min 44 W/m² 5,0 °C 10,0 °C 1,6 km/h (1 Bft)
25.01.2025 09:27 21,8 °C 10,0 °C 52 % 71 % 1005,5 hPa 0,0 l/m² 0,6 km/h (0 Bft) S 187 ° 0 min 44 W/m² 5,0 °C 10,0 °C 3,2 km/h (1 Bft)
25.01.2025 09:29 21,9 °C 10,0 °C 52 % 71 % 1005,5 hPa 0,0 l/m² 0,0 km/h (0 Bft) S 191 ° 0 min 44 W/m² 5,0 °C 10,0 °C 0,0 km/h (0 Bft)
25.01.2025 09:30 21,8 °C 10,1 °C 52 % 71 % 1005,5 hPa 0,0 l/m² 0,0 km/h (0 Bft) S 191 ° 0 min 42 W/m² 5,1 °C 10,1 °C 0,0 km/h (0 Bft)
25.01.2025 09:31 21,8 °C 10,1 °C 52 % 71 % 1005,5 hPa 0,0 l/m² 0,6 km/h (0 Bft) S-SW 195 ° 0 min 42 W/m² 5,1 °C 10,1 °C 3,2 km/h (1 Bft)
25.01.2025 09:32 21,9 °C 10,1 °C 52 % 71 % 1005,5 hPa 0,0 l/m² 1,2 km/h (1 Bft) S-SW 195 ° 0 min 42 W/m² 5,1 °C 10,1 °C 3,2 km/h (1 Bft)
25.01.2025 09:34 21,9 °C 10,1 °C 52 % 71 % 1005,4 hPa 0,0 l/m² 2,0 km/h (1 Bft) S-SW 195 ° 0 min 42 W/m² 5,1 °C 10,1 °C 3,2 km/h (1 Bft)
25.01.2025 09:36 21,8 °C 10,1 °C 52 % 71 % 1005,4 hPa 0,0 l/m² 0,6 km/h (0 Bft) S-SW 195 ° 0 min 47 W/m² 5,1 °C 10,1 °C 3,2 km/h (1 Bft)
25.01.2025 09:38 21,9 °C 10,1 °C 52 % 71 % 1005,3 hPa 0,0 l/m² 1,8 km/h (1 Bft) S-SW 195 ° 0 min 51 W/m² 5,1 °C 10,1 °C 3,2 km/h (1 Bft)
25.01.2025 09:40 21,9 °C 10,1 °C 52 % 71 % 1005,2 hPa 0,0 l/m² 0,4 km/h (0 Bft) S-SW 195 ° 2 min 53 W/m² 5,1 °C 10,1 °C 3,2 km/h (1 Bft)
25.01.2025 09:41 21,9 °C 10,1 °C 52 % 71 % 1005,2 hPa 0,0 l/m² 0,5 km/h (0 Bft) S-SW 195 ° 1 min 56 W/m² 5,1 °C 10,1 °C 3,2 km/h (1 Bft)
25.01.2025 09:42 21,9 °C 10,1 °C 52 % 71 % 1005,2 hPa 0,0 l/m² 2,5 km/h (1 Bft) S-SW 194 ° 1 min 58 W/m² 5,1 °C 10,1 °C 4,8 km/h (1 Bft)
25.01.2025 09:43 21,9 °C 10,2 °C 52 % 71 % 1005,3 hPa 0,0 l/m² 1,5 km/h (1 Bft) S-SW 195 ° 1 min 58 W/m² 5,2 °C 10,2 °C 3,2 km/h (1 Bft)
25.01.2025 09:45 21,9 °C 10,2 °C 52 % 71 % 1005,3 hPa 0,0 l/m² 1,0 km/h (0 Bft) S-SW 195 ° 2 min 60 W/m² 5,2 °C 10,2 °C 4,8 km/h (1 Bft)
25.01.2025 09:47 21,8 °C 10,2 °C 52 % 72 % 1005,2 hPa 0,0 l/m² 1,1 km/h (1 Bft) S-SW 194 ° 2 min 58 W/m² 5,4 °C 10,2 °C 6,4 km/h (2 Bft)
25.01.2025 09:49 21,9 °C 10,2 °C 52 % 72 % 1005,2 hPa 0,0 l/m² 1,5 km/h (1 Bft) S-SW 195 ° 2 min 58 W/m² 5,4 °C 10,2 °C 4,8 km/h (1 Bft)
25.01.2025 09:50 21,9 °C 10,2 °C 52 % 72 % 1005,3 hPa 0,0 l/m² 1,1 km/h (1 Bft) S-SW 195 ° 1 min 60 W/m² 5,4 °C 10,2 °C 3,2 km/h (1 Bft)
25.01.2025 09:51 21,9 °C 10,2 °C 52 % 72 % 1005,3 hPa 0,0 l/m² 1,1 km/h (1 Bft) S-SW 195 ° 1 min 60 W/m² 5,4 °C 10,2 °C 3,2 km/h (1 Bft)
25.01.2025 09:52 21,9 °C 10,2 °C 52 % 71 % 1005,3 hPa 0,0 l/m² 2,4 km/h (1 Bft) S-SW 195 ° 1 min 62 W/m² 5,2 °C 10,2 °C 4,8 km/h (1 Bft)
25.01.2025 09:54 21,9 °C 10,2 °C 52 % 71 % 1005,3 hPa 0,0 l/m² 4,5 km/h (1 Bft) S-SW 207 ° 2 min 67 W/m² 5,2 °C 10,2 °C 8,0 km/h (2 Bft)
25.01.2025 09:56 21,8 °C 10,2 °C 52 % 72 % 1005,2 hPa 0,0 l/m² 2,2 km/h (1 Bft) S-SW 207 ° 2 min 70 W/m² 5,4 °C 10,2 °C 4,8 km/h (1 Bft)
25.01.2025 09:58 21,8 °C 10,3 °C 52 % 72 % 1005,2 hPa 0,0 l/m² 0,3 km/h (0 Bft) S-SW 207 ° 2 min 74 W/m² 5,5 °C 10,3 °C 1,6 km/h (1 Bft)
25.01.2025 10:00 21,8 °C 10,3 °C 52 % 72 % 1005,3 hPa 0,0 l/m² 0,0 km/h (0 Bft) S-SW 207 ° 2 min 76 W/m² 5,5 °C 10,3 °C 0,0 km/h (0 Bft)
25.01.2025 10:01 21,8 °C 10,3 °C 52 % 72 % 1005,1 hPa 0,0 l/m² 0,0 km/h (0 Bft) S-SW 207 ° 1 min 77 W/m² 5,5 °C 10,3 °C 0,0 km/h (0 Bft)
25.01.2025 10:02 21,8 °C 10,3 °C 52 % 72 % 1005,1 hPa 0,0 l/m² 0,0 km/h (0 Bft) S-SW 207 ° 1 min 77 W/m² 5,5 °C 10,3 °C 0,0 km/h (0 Bft)
25.01.2025 10:03 21,9 °C 10,3 °C 52 % 72 % 1005,2 hPa 0,0 l/m² 0,0 km/h (0 Bft) S-SW 207 ° 1 min 77 W/m² 5,5 °C 10,3 °C 0,0 km/h (0 Bft)
25.01.2025 10:05 21,8 °C 10,3 °C 52 % 72 % 1005,3 hPa 0,0 l/m² 0,0 km/h (0 Bft) S-SW 207 ° 2 min 83 W/m² 5,5 °C 10,3 °C 0,0 km/h (0 Bft)
25.01.2025 10:07 21,9 °C 10,3 °C 52 % 72 % 1005,3 hPa 0,0 l/m² 0,4 km/h (0 Bft) S-SW 207 ° 2 min 86 W/m² 5,5 °C 10,3 °C 1,6 km/h (1 Bft)
25.01.2025 10:09 21,8 °C 10,3 °C 52 % 73 % 1005,2 hPa 0,0 l/m² 0,0 km/h (0 Bft) S-SW 207 ° 2 min 91 W/m² 5,7 °C 10,3 °C 0,0 km/h (0 Bft)
25.01.2025 10:10 21,8 °C 10,3 °C 52 % 74 % 1005,2 hPa 0,0 l/m² 0,0 km/h (0 Bft) S-SW 207 ° 1 min 97 W/m² 5,9 °C 10,3 °C 0,0 km/h (0 Bft)
25.01.2025 10:12 21,8 °C 10,2 °C 52 % 75 % 1005,2 hPa 0,0 l/m² 0,0 km/h (0 Bft) S-SW 207 ° 2 min 105 W/m² 6,0 °C 10,2 °C 0,0 km/h (0 Bft)
25.01.2025 10:14 21,8 °C 10,0 °C 52 % 77 % 1005,2 hPa 0,0 l/m² 0,0 km/h (0 Bft) S-SW 207 ° 2 min 111 W/m² 6,2 °C 10,0 °C 0,0 km/h (0 Bft)
25.01.2025 10:16 21,9 °C 9,8 °C 52 % 79 % 1005,3 hPa 0,0 l/m² 0,0 km/h (0 Bft) S-SW 207 ° 2 min 114 W/m² 6,3 °C 9,8 °C 0,0 km/h (0 Bft)
25.01.2025 10:18 21,9 °C 9,6 °C 52 % 80 % 1005,2 hPa 0,0 l/m² 0,0 km/h (0 Bft) S-SW 207 ° 2 min 98 W/m² 6,3 °C 9,6 °C 0,0 km/h (0 Bft)
25.01.2025 10:20 21,8 °C 9,6 °C 51 % 79 % 1005,2 hPa 0,0 l/m² 0,0 km/h (0 Bft) S-SW 207 ° 2 min 95 W/m² 6,1 °C 9,6 °C 0,0 km/h (0 Bft)
25.01.2025 10:21 21,9 °C 9,7 °C 52 % 79 % 1005,3 hPa 0,0 l/m² 0,0 km/h (0 Bft) S-SW 207 ° 1 min 93 W/m² 6,2 °C 9,7 °C 0,0 km/h (0 Bft)
25.01.2025 10:22 21,9 °C 9,8 °C 52 % 78 % 1005,3 hPa 0,0 l/m² 0,0 km/h (0 Bft) S-SW 207 ° 1 min 95 W/m² 6,1 °C 9,8 °C 0,0 km/h (0 Bft)
25.01.2025 10:23 21,8 °C 9,8 °C 51 % 79 % 1005,2 hPa 0,0 l/m² 1,1 km/h (1 Bft) S 170 ° 1 min 98 W/m² 6,3 °C 9,8 °C 3,2 km/h (1 Bft)
25.01.2025 10:25 21,9 °C 9,9 °C 51 % 78 % 1005,2 hPa 0,0 l/m² 1,4 km/h (1 Bft) SO 140 ° 2 min 98 W/m² 6,2 °C 9,9 °C 4,8 km/h (1 Bft)
25.01.2025 10:27 21,9 °C 9,9 °C 51 % 78 % 1005,3 hPa 0,0 l/m² 0,6 km/h (0 Bft) SO 140 ° 2 min 134 W/m² 6,2 °C 9,9 °C 1,6 km/h (1 Bft)
25.01.2025 10:29 21,9 °C 10,0 °C 52 % 78 % 1005,3 hPa 0,0 l/m² 1,5 km/h (1 Bft) SO 136 ° 2 min 105 W/m² 6,3 °C 10,0 °C 4,8 km/h (1 Bft)
25.01.2025 10:30 21,9 °C 10,0 °C 52 % 79 % 1005,3 hPa 0,0 l/m² 3,6 km/h (1 Bft) SO 134 ° 1 min 105 W/m² 6,5 °C 10,0 °C 6,4 km/h (2 Bft)
25.01.2025 10:31 21,9 °C 10,0 °C 52 % 78 % 1005,3 hPa 0,0 l/m² 2,6 km/h (1 Bft) SO 134 ° 1 min 100 W/m² 6,3 °C 10,0 °C 4,8 km/h (1 Bft)
25.01.2025 10:32 21,9 °C 10,1 °C 52 % 78 % 1005,2 hPa 0,0 l/m² 0,5 km/h (0 Bft) SO 134 ° 1 min 93 W/m² 6,4 °C 10,1 °C 3,2 km/h (1 Bft)
25.01.2025 10:34 21,9 °C 10,3 °C 51 % 75 % 1005,3 hPa 0,0 l/m² 5,4 km/h (2 Bft) S 171 ° 2 min 77 W/m² 6,1 °C 10,3 °C 11,3 km/h (2 Bft)
25.01.2025 10:36 21,9 °C 10,5 °C 52 % 74 % 1005,4 hPa 0,0 l/m² 8,8 km/h (2 Bft) S-SO 155 ° 2 min 65 W/m² 6,1 °C 8,9 °C 16,1 km/h (3 Bft)
25.01.2025 10:38 21,9 °C 10,7 °C 51 % 71 % 1005,2 hPa 0,0 l/m² 12,8 km/h (3 Bft) S-SO 163 ° 2 min 60 W/m² 5,7 °C 6,9 °C 20,9 km/h (4 Bft)
25.01.2025 10:40 21,9 °C 10,9 °C 51 % 71 % 1005,2 hPa 0,0 l/m² 10,2 km/h (2 Bft) S 180 ° 2 min 54 W/m² 5,9 °C 8,5 °C 17,7 km/h (3 Bft)
25.01.2025 10:41 21,9 °C 11,0 °C 51 % 70 % 1005,2 hPa 0,0 l/m² 9,8 km/h (2 Bft) S-SW 196 ° 0 min 51 W/m² 5,7 °C 8,8 °C 12,9 km/h (3 Bft)
25.01.2025 10:42 21,9 °C 11,0 °C 51 % 70 % 1005,2 hPa 0,0 l/m² 9,7 km/h (2 Bft) S-SO 150 ° 0 min 51 W/m² 5,7 °C 8,9 °C 14,5 km/h (3 Bft)
25.01.2025 10:43 21,9 °C 11,1 °C 51 % 70 % 1005,2 hPa 0,0 l/m² 9,7 km/h (2 Bft) S 186 ° 0 min 51 W/m² 5,8 °C 9,0 °C 12,9 km/h (3 Bft)
25.01.2025 10:45 21,9 °C 11,1 °C 51 % 69 % 1005,2 hPa 0,0 l/m² 11,8 km/h (2 Bft) S-SO 158 ° 2 min 53 W/m² 5,6 °C 7,9 °C 16,1 km/h (3 Bft)
25.01.2025 10:46 21,9 °C 11,2 °C 51 % 69 % 1005,1 hPa 0,0 l/m² 11,9 km/h (2 Bft) S 176 ° 1 min 56 W/m² 5,7 °C 7,9 °C 16,1 km/h (3 Bft)
25.01.2025 10:47 21,9 °C 11,2 °C 51 % 69 % 1005,1 hPa 0,0 l/m² 9,8 km/h (2 Bft) S-SO 163 ° 1 min 58 W/m² 5,7 °C 9,0 °C 14,5 km/h (3 Bft)
25.01.2025 10:49 21,9 °C 11,2 °C 51 % 69 % 1005,1 hPa 0,0 l/m² 11,9 km/h (2 Bft) S 191 ° 2 min 65 W/m² 5,7 °C 7,9 °C 20,9 km/h (4 Bft)
25.01.2025 10:50 21,9 °C 11,2 °C 51 % 69 % 1005,1 hPa 0,0 l/m² 12,7 km/h (3 Bft) S 182 ° 1 min 67 W/m² 5,7 °C 7,6 °C 16,1 km/h (3 Bft)
25.01.2025 10:51 21,9 °C 11,2 °C 51 % 69 % 1005,1 hPa 0,0 l/m² 12,3 km/h (2 Bft) S 175 ° 1 min 70 W/m² 5,7 °C 7,8 °C 17,7 km/h (3 Bft)
25.01.2025 10:52 21,9 °C 11,2 °C 51 % 69 % 1005,0 hPa 0,0 l/m² 10,4 km/h (2 Bft) S-SO 161 ° 1 min 74 W/m² 5,7 °C 8,7 °C 14,5 km/h (3 Bft)
25.01.2025 10:54 21,9 °C 11,2 °C 51 % 68 % 1005,0 hPa 0,0 l/m² 13,0 km/h (3 Bft) S 174 ° 2 min 79 W/m² 5,5 °C 7,4 °C 19,3 km/h (3 Bft)
25.01.2025 10:56 21,9 °C 11,3 °C 51 % 68 % 1004,9 hPa 0,0 l/m² 15,1 km/h (3 Bft) S 173 ° 2 min 84 W/m² 5,6 °C 6,7 °C 22,5 km/h (4 Bft)
25.01.2025 10:58 21,9 °C 11,3 °C 51 % 68 % 1004,9 hPa 0,0 l/m² 13,0 km/h (3 Bft) S 182 ° 2 min 95 W/m² 5,6 °C 7,6 °C 17,7 km/h (3 Bft)
25.01.2025 11:00 21,9 °C 11,4 °C 51 % 67 % 1004,9 hPa 0,0 l/m² 11,9 km/h (2 Bft) S 178 ° 2 min 102 W/m² 5,5 °C 8,2 °C 19,3 km/h (3 Bft)
25.01.2025 11:01 21,9 °C 11,4 °C 51 % 68 % 1005,0 hPa 0,0 l/m² 12,9 km/h (3 Bft) S 185 ° 1 min 105 W/m² 5,7 °C 7,7 °C 19,3 km/h (3 Bft)
25.01.2025 11:02 21,9 °C 11,4 °C 51 % 68 % 1005,0 hPa 0,0 l/m² 11,5 km/h (2 Bft) S 187 ° 1 min 109 W/m² 5,7 °C 8,4 °C 16,1 km/h (3 Bft)
25.01.2025 11:03 21,9 °C 11,3 °C 51 % 68 % 1005,0 hPa 0,0 l/m² 10,0 km/h (2 Bft) S 191 ° 1 min 113 W/m² 5,6 °C 9,0 °C 12,9 km/h (3 Bft)
25.01.2025 11:05 21,9 °C 11,3 °C 51 % 68 % 1005,0 hPa 0,0 l/m² 11,5 km/h (2 Bft) S 187 ° 2 min 123 W/m² 5,6 °C 8,3 °C 17,7 km/h (3 Bft)
25.01.2025 11:07 21,9 °C 11,4 °C 51 % 68 % 1005,1 hPa 0,0 l/m² 10,9 km/h (2 Bft) S 188 ° 2 min 130 W/m² 5,7 °C 8,7 °C 14,5 km/h (3 Bft)
25.01.2025 11:09 21,9 °C 11,6 °C 51 % 67 % 1005,0 hPa 0,0 l/m² 11,2 km/h (2 Bft) S-SW 203 ° 2 min 134 W/m² 5,7 °C 8,7 °C 14,5 km/h (3 Bft)
25.01.2025 11:10 21,9 °C 11,5 °C 51 % 68 % 1005,1 hPa 0,0 l/m² 11,7 km/h (2 Bft) S 180 ° 1 min 141 W/m² 5,8 °C 8,4 °C 14,5 km/h (3 Bft)
25.01.2025 11:11 21,9 °C 11,5 °C 51 % 67 % 1005,1 hPa 0,0 l/m² 8,6 km/h (2 Bft) S-SW 196 ° 1 min 144 W/m² 5,6 °C 10,1 °C 9,7 km/h (2 Bft)
25.01.2025 11:12 21,9 °C 11,5 °C 51 % 68 % 1005,0 hPa 0,0 l/m² 10,7 km/h (2 Bft) S 191 ° 1 min 148 W/m² 5,8 °C 8,9 °C 14,5 km/h (3 Bft)
25.01.2025 11:14 21,9 °C 11,7 °C 51 % 67 % 1005,0 hPa 0,0 l/m² 11,6 km/h (2 Bft) S-SW 193 ° 2 min 188 W/m² 5,8 °C 8,7 °C 17,7 km/h (3 Bft)
25.01.2025 11:16 21,9 °C 11,8 °C 51 % 67 % 1004,9 hPa 0,0 l/m² 11,2 km/h (2 Bft) S 183 ° 2 min 241 W/m² 5,9 °C 9,0 °C 16,1 km/h (3 Bft)
25.01.2025 11:18 21,9 °C 11,9 °C 51 % 67 % 1005,0 hPa 0,0 l/m² 10,4 km/h (2 Bft) S-SW 200 ° 2 min 218 W/m² 6,0 °C 9,5 °C 14,5 km/h (3 Bft)
25.01.2025 11:20 21,9 °C 12,0 °C 50 % 66 % 1005,0 hPa 0,0 l/m² 11,8 km/h (2 Bft) S-SW 198 ° 2 min 243 W/m² 5,8 °C 8,9 °C 14,5 km/h (3 Bft)
25.01.2025 11:21 22,0 °C 12,1 °C 50 % 66 % 1004,9 hPa 0,0 l/m² 10,1 km/h (2 Bft) S-SW 194 ° 1 min 257 W/m² 5,9 °C 9,9 °C 14,5 km/h (3 Bft)
25.01.2025 11:22 22,0 °C 12,1 °C 50 % 67 % 1004,9 hPa 0,0 l/m² 9,7 km/h (2 Bft) S-SW 194 ° 1 min 250 W/m² 6,2 °C 10,1 °C 12,9 km/h (3 Bft)
25.01.2025 11:23 21,9 °C 12,1 °C 49 % 67 % 1004,9 hPa 0,0 l/m² 10,2 km/h (2 Bft) S-SW 198 ° 1 min 239 W/m² 6,2 °C 9,8 °C 12,9 km/h (3 Bft)
25.01.2025 11:25 22,0 °C 12,2 °C 49 % 68 % 1005,0 hPa 0,0 l/m² 9,9 km/h (2 Bft) S 188 ° 2 min 135 W/m² 6,5 °C 10,1 °C 14,5 km/h (3 Bft)
25.01.2025 11:27 21,9 °C 12,1 °C 48 % 67 % 1004,8 hPa 0,0 l/m² 11,6 km/h (2 Bft) S 178 ° 2 min 109 W/m² 6,2 °C 9,1 °C 17,7 km/h (3 Bft)
25.01.2025 11:29 21,9 °C 11,9 °C 48 % 66 % 1004,9 hPa 0,0 l/m² 14,0 km/h (3 Bft) S 183 ° 2 min 81 W/m² 5,8 °C 7,8 °C 19,3 km/h (3 Bft)
25.01.2025 11:30 21,9 °C 11,9 °C 47 % 66 % 1004,8 hPa 0,0 l/m² 12,9 km/h (3 Bft) S 184 ° 1 min 76 W/m² 5,8 °C 8,3 °C 17,7 km/h (3 Bft)
25.01.2025 11:31 21,9 °C 11,9 °C 47 % 66 % 1004,8 hPa 0,0 l/m² 13,9 km/h (3 Bft) S-SW 192 ° 1 min 72 W/m² 5,8 °C 7,9 °C 17,7 km/h (3 Bft)
25.01.2025 11:32 21,9 °C 11,8 °C 47 % 66 % 1004,8 hPa 0,0 l/m² 13,2 km/h (3 Bft) S 172 ° 1 min 69 W/m² 5,7 °C 8,1 °C 17,7 km/h (3 Bft)
25.01.2025 11:34 21,9 °C 11,7 °C 46 % 66 % 1004,7 hPa 0,0 l/m² 15,4 km/h (3 Bft) S 176 ° 2 min 81 W/m² 5,6 °C 7,0 °C 22,5 km/h (4 Bft)
25.01.2025 11:36 21,9 °C 11,8 °C 46 % 66 % 1004,7 hPa 0,0 l/m² 13,9 km/h (3 Bft) S-SO 162 ° 2 min 102 W/m² 5,7 °C 7,8 °C 19,3 km/h (3 Bft)
25.01.2025 11:38 21,8 °C 11,8 °C 46 % 67 % 1004,6 hPa 0,0 l/m² 14,1 km/h (3 Bft) S 174 ° 2 min 114 W/m² 5,9 °C 7,7 °C 19,3 km/h (3 Bft)
25.01.2025 11:40 21,9 °C 11,8 °C 46 % 66 % 1004,6 hPa 0,0 l/m² 18,4 km/h (3 Bft) S-SO 165 ° 2 min 144 W/m² 5,7 °C 6,1 °C 25,7 km/h (4 Bft)
25.01.2025 11:41 21,8 °C 12,0 °C 47 % 66 % 1004,5 hPa 0,0 l/m² 16,6 km/h (3 Bft) S 178 ° 1 min 197 W/m² 5,8 °C 7,0 °C 22,5 km/h (4 Bft)
25.01.2025 11:42 21,8 °C 12,1 °C 47 % 65 % 1004,5 hPa 0,0 l/m² 15,3 km/h (3 Bft) S 181 ° 1 min 204 W/m² 5,7 °C 7,6 °C 22,5 km/h (4 Bft)
25.01.2025 11:43 21,8 °C 12,2 °C 47 % 65 % 1004,5 hPa 0,0 l/m² 16,0 km/h (3 Bft) S-SO 163 ° 1 min 257 W/m² 5,8 °C 7,4 °C 20,9 km/h (4 Bft)
25.01.2025 11:45 21,8 °C 12,4 °C 47 % 66 % 1004,5 hPa 0,0 l/m² 16,3 km/h (3 Bft) S 176 ° 2 min 325 W/m² 6,2 °C 7,6 °C 22,5 km/h (4 Bft)
25.01.2025 11:47 21,9 °C 12,7 °C 47 % 65 % 1004,6 hPa 0,0 l/m² 16,9 km/h (3 Bft) S 184 ° 2 min 258 W/m² 6,3 °C 7,7 °C 25,7 km/h (4 Bft)
25.01.2025 11:49 21,9 °C 12,8 °C 47 % 65 % 1004,6 hPa 0,0 l/m² 17,2 km/h (3 Bft) S-SO 168 ° 2 min 98 W/m² 6,4 °C 7,8 °C 24,1 km/h (4 Bft)
25.01.2025 11:50 21,9 °C 12,8 °C 47 % 64 % 1004,7 hPa 0,0 l/m² 17,6 km/h (3 Bft) S 169 ° 1 min 93 W/m² 6,2 °C 7,6 °C 20,9 km/h (4 Bft)
25.01.2025 11:51 21,9 °C 12,7 °C 47 % 64 % 1004,7 hPa 0,0 l/m² 16,3 km/h (3 Bft) S 169 ° 1 min 93 W/m² 6,1 °C 7,9 °C 19,3 km/h (3 Bft)
25.01.2025 11:52 21,9 °C 12,7 °C 47 % 64 % 1004,8 hPa 0,0 l/m² 14,6 km/h (3 Bft) S-SO 153 ° 1 min 90 W/m² 6,1 °C 8,6 °C 17,7 km/h (3 Bft)
25.01.2025 11:54 21,9 °C 12,7 °C 47 % 65 % 1004,8 hPa 0,0 l/m² 15,1 km/h (3 Bft) S 169 ° 2 min 84 W/m² 6,3 °C 8,4 °C 20,9 km/h (4 Bft)
25.01.2025 11:56 22,0 °C 12,5 °C 48 % 65 % 1004,8 hPa 0,0 l/m² 13,5 km/h (3 Bft) S 180 ° 2 min 77 W/m² 6,1 °C 8,8 °C 19,3 km/h (3 Bft)
25.01.2025 11:58 21,9 °C 12,6 °C 48 % 64 % 1004,8 hPa 0,0 l/m² 16,2 km/h (3 Bft) S 186 ° 2 min 77 W/m² 6,0 °C 7,9 °C 22,5 km/h (4 Bft)
25.01.2025 12:00 21,9 °C 12,5 °C 48 % 64 % 1004,8 hPa 0,0 l/m² 16,2 km/h (3 Bft) S-SW 196 ° 2 min 79 W/m² 5,9 °C 7,7 °C 19,3 km/h (3 Bft)
25.01.2025 12:01 21,9 °C 12,6 °C 48 % 64 % 1004,7 hPa 0,0 l/m² 15,9 km/h (3 Bft) S 188 ° 1 min 83 W/m² 6,0 °C 8,0 °C 20,9 km/h (4 Bft)
25.01.2025 12:02 21,9 °C 12,6 °C 48 % 65 % 1004,8 hPa 0,0 l/m² 20,0 km/h (4 Bft) S 174 ° 1 min 77 W/m² 6,2 °C 6,6 °C 27,4 km/h (5 Bft)
25.01.2025 12:03 21,9 °C 12,6 °C 48 % 64 % 1004,7 hPa 0,0 l/m² 18,0 km/h (3 Bft) S 180 ° 1 min 77 W/m² 6,0 °C 7,3 °C 25,7 km/h (4 Bft)
25.01.2025 12:05 21,9 °C 12,7 °C 48 % 64 % 1004,7 hPa 0,0 l/m² 17,7 km/h (3 Bft) S 177 ° 2 min 77 W/m² 6,1 °C 7,5 °C 22,5 km/h (4 Bft)
25.01.2025 12:07 21,9 °C 12,7 °C 48 % 64 % 1004,7 hPa 0,0 l/m² 18,0 km/h (3 Bft) S-SW 193 ° 2 min 83 W/m² 6,1 °C 7,4 °C 27,4 km/h (5 Bft)
25.01.2025 12:09 21,9 °C 13,0 °C 48 % 62 % 1004,7 hPa 0,0 l/m² 22,2 km/h (4 Bft) S-SW 202 ° 2 min 72 W/m² 5,9 °C 6,6 °C 30,6 km/h (5 Bft)
25.01.2025 12:10 21,9 °C 13,1 °C 48 % 62 % 1004,7 hPa 0,0 l/m² 22,5 km/h (4 Bft) S 174 ° 1 min 69 W/m² 6,0 °C 6,6 °C 32,2 km/h (5 Bft)
25.01.2025 12:11 21,9 °C 13,2 °C 48 % 62 % 1004,7 hPa 0,0 l/m² 21,5 km/h (4 Bft) S-SW 192 ° 1 min 65 W/m² 6,1 °C 7,0 °C 33,8 km/h (5 Bft)
25.01.2025 12:12 21,9 °C 13,3 °C 49 % 61 % 1004,7 hPa 0,0 l/m² 19,8 km/h (3 Bft) S-SW 202 ° 1 min 69 W/m² 5,9 °C 7,6 °C 24,1 km/h (4 Bft)
25.01.2025 12:14 21,9 °C 13,4 °C 49 % 61 % 1004,8 hPa 0,0 l/m² 20,8 km/h (4 Bft) S-SW 194 ° 2 min 86 W/m² 6,0 °C 7,5 °C 30,6 km/h (5 Bft)
25.01.2025 12:16 21,9 °C 13,5 °C 49 % 61 % 1004,8 hPa 0,0 l/m² 19,2 km/h (3 Bft) S 188 ° 2 min 107 W/m² 6,1 °C 8,0 °C 27,4 km/h (5 Bft)
25.01.2025 12:18 21,9 °C 13,6 °C 50 % 61 % 1004,9 hPa 0,0 l/m² 17,4 km/h (3 Bft) S 190 ° 2 min 120 W/m² 6,2 °C 8,7 °C 22,5 km/h (4 Bft)
25.01.2025 12:20 21,9 °C 13,7 °C 50 % 61 % 1004,8 hPa 0,0 l/m² 20,1 km/h (4 Bft) S-SW 195 ° 2 min 121 W/m² 6,3 °C 8,0 °C 35,4 km/h (5 Bft)
25.01.2025 12:21 21,9 °C 13,7 °C 50 % 60 % 1004,9 hPa 0,0 l/m² 18,4 km/h (3 Bft) S-SW 195 ° 1 min 118 W/m² 6,1 °C 8,5 °C 24,1 km/h (4 Bft)
25.01.2025 12:22 21,9 °C 13,8 °C 50 % 60 % 1004,9 hPa 0,0 l/m² 20,0 km/h (4 Bft) S-SW 205 ° 1 min 114 W/m² 6,2 °C 8,2 °C 25,7 km/h (4 Bft)
25.01.2025 12:23 21,9 °C 13,8 °C 50 % 60 % 1004,9 hPa 0,0 l/m² 20,0 km/h (4 Bft) S 180 ° 1 min 113 W/m² 6,2 °C 8,2 °C 27,4 km/h (5 Bft)
25.01.2025 12:25 21,9 °C 13,9 °C 50 % 61 % 1004,8 hPa 0,0 l/m² 20,3 km/h (4 Bft) S-SW 194 ° 2 min 123 W/m² 6,5 °C 8,2 °C 32,2 km/h (5 Bft)
25.01.2025 12:27 21,9 °C 13,9 °C 50 % 60 % 1004,9 hPa 0,0 l/m² 21,9 km/h (4 Bft) S 172 ° 2 min 123 W/m² 6,3 °C 7,8 °C 29,0 km/h (5 Bft)
25.01.2025 12:29 21,9 °C 13,9 °C 50 % 60 % 1004,9 hPa 0,0 l/m² 22,6 km/h (4 Bft) S 181 ° 2 min 107 W/m² 6,3 °C 7,7 °C 38,6 km/h (6 Bft)
25.01.2025 12:31 21,9 °C 14,0 °C 51 % 60 % 1004,8 hPa 0,0 l/m² 21,1 km/h (4 Bft) S 186 ° 2 min 97 W/m² 6,4 °C 8,2 °C 27,4 km/h (5 Bft)
25.01.2025 12:32 21,9 °C 14,0 °C 51 % 59 % 1005,0 hPa 0,0 l/m² 20,4 km/h (4 Bft) S-SW 199 ° 1 min 88 W/m² 6,1 °C 8,3 °C 33,8 km/h (5 Bft)
25.01.2025 12:33 21,9 °C 14,0 °C 51 % 60 % 1005,0 hPa 0,0 l/m² 21,3 km/h (4 Bft) S-SW 198 ° 1 min 93 W/m² 6,4 °C 8,1 °C 30,6 km/h (5 Bft)
25.01.2025 12:34 21,9 °C 14,0 °C 51 % 60 % 1004,9 hPa 0,0 l/m² 22,5 km/h (4 Bft) S 172 ° 1 min 98 W/m² 6,4 °C 7,8 °C 29,0 km/h (5 Bft)
25.01.2025 12:36 21,9 °C 14,1 °C 51 % 59 % 1005,0 hPa 0,0 l/m² 22,2 km/h (4 Bft) S-SW 192 ° 2 min 100 W/m² 6,2 °C 8,0 °C 27,4 km/h (5 Bft)
25.01.2025 12:38 21,9 °C 14,1 °C 51 % 60 % 1005,0 hPa 0,0 l/m² 19,3 km/h (3 Bft) S 188 ° 2 min 95 W/m² 6,5 °C 8,8 °C 30,6 km/h (5 Bft)
25.01.2025 12:40 21,9 °C 14,1 °C 51 % 59 % 1004,9 hPa 0,0 l/m² 20,9 km/h (4 Bft) S 173 ° 2 min 91 W/m² 6,2 °C 8,3 °C 30,6 km/h (5 Bft)
25.01.2025 12:41 21,9 °C 14,1 °C 51 % 59 % 1005,0 hPa 0,0 l/m² 22,8 km/h (4 Bft) S 178 ° 1 min 90 W/m² 6,2 °C 7,9 °C 25,7 km/h (4 Bft)
25.01.2025 12:42 21,9 °C 14,1 °C 51 % 58 % 1005,0 hPa 0,0 l/m² 19,3 km/h (3 Bft) S 184 ° 1 min 90 W/m² 6,0 °C 8,8 °C 29,0 km/h (5 Bft)
25.01.2025 12:43 21,9 °C 14,1 °C 51 % 58 % 1005,0 hPa 0,0 l/m² 21,8 km/h (4 Bft) S-SW 193 ° 1 min 91 W/m² 6,0 °C 8,1 °C 25,7 km/h (4 Bft)
25.01.2025 12:45 21,9 °C 14,1 °C 51 % 58 % 1005,1 hPa 0,0 l/m² 20,9 km/h (4 Bft) S 180 ° 2 min 98 W/m² 6,0 °C 8,3 °C 32,2 km/h (5 Bft)
25.01.2025 12:47 21,9 °C 14,1 °C 51 % 59 % 1005,1 hPa 0,0 l/m² 21,2 km/h (4 Bft) S 190 ° 2 min 95 W/m² 6,2 °C 8,3 °C 30,6 km/h (5 Bft)
25.01.2025 12:49 21,9 °C 14,2 °C 51 % 59 % 1005,2 hPa 0,0 l/m² 17,2 km/h (3 Bft) S 173 ° 2 min 91 W/m² 6,3 °C 9,5 °C 24,1 km/h (4 Bft)
25.01.2025 12:51 21,8 °C 14,1 °C 51 % 59 % 1005,2 hPa 0,0 l/m² 17,7 km/h (3 Bft) S-SW 201 ° 2 min 105 W/m² 6,2 °C 9,2 °C 24,1 km/h (4 Bft)
25.01.2025 12:52 21,9 °C 14,2 °C 51 % 58 % 1005,2 hPa 0,0 l/m² 16,8 km/h (3 Bft) S-SW 194 ° 1 min 109 W/m² 6,1 °C 9,6 °C 20,9 km/h (4 Bft)
25.01.2025 12:53 21,9 °C 14,2 °C 51 % 58 % 1005,2 hPa 0,0 l/m² 17,5 km/h (3 Bft) S-SO 163 ° 1 min 100 W/m² 6,1 °C 9,4 °C 20,9 km/h (4 Bft)
25.01.2025 12:54 21,9 °C 14,2 °C 51 % 57 % 1005,1 hPa 0,0 l/m² 20,4 km/h (4 Bft) S-SW 200 ° 1 min 91 W/m² 5,8 °C 8,6 °C 29,0 km/h (5 Bft)
25.01.2025 12:56 21,8 °C 14,3 °C 51 % 59 % 1005,2 hPa 0,0 l/m² 16,1 km/h (3 Bft) S 179 ° 2 min 76 W/m² 6,4 °C 10,0 °C 20,9 km/h (4 Bft)
25.01.2025 12:58 21,8 °C 14,2 °C 51 % 59 % 1005,2 hPa 0,0 l/m² 14,9 km/h (3 Bft) S-SW 198 ° 2 min 72 W/m² 6,3 °C 10,3 °C 22,5 km/h (4 Bft)
25.01.2025 13:00 21,9 °C 14,2 °C 51 % 60 % 1005,3 hPa 0,0 l/m² 12,2 km/h (2 Bft) S 177 ° 2 min 81 W/m² 6,5 °C 11,3 °C 17,7 km/h (3 Bft)
25.01.2025 13:01 21,8 °C 14,1 °C 51 % 60 % 1005,3 hPa 0,0 l/m² 12,6 km/h (3 Bft) S 179 ° 1 min 95 W/m² 6,5 °C 11,0 °C 17,7 km/h (3 Bft)
25.01.2025 13:02 21,9 °C 14,1 °C 51 % 61 % 1005,3 hPa 0,0 l/m² 14,3 km/h (3 Bft) S-SW 198 ° 1 min 100 W/m² 6,7 °C 10,3 °C 19,3 km/h (3 Bft)
25.01.2025 13:03 21,9 °C 14,1 °C 51 % 60 % 1005,3 hPa 0,0 l/m² 13,3 km/h (3 Bft) S 180 ° 1 min 105 W/m² 6,5 °C 10,7 °C 16,1 km/h (3 Bft)
25.01.2025 13:04 21,8 °C 14,1 °C 51 % 60 % 1005,2 hPa 0,0 l/m² 10,7 km/h (2 Bft) S 186 ° 1 min 109 W/m² 6,5 °C 11,8 °C 12,9 km/h (3 Bft)
25.01.2025 13:06 21,8 °C 14,1 °C 51 % 61 % 1005,4 hPa 0,0 l/m² 14,8 km/h (3 Bft) S 172 ° 2 min 118 W/m² 6,7 °C 10,2 °C 24,1 km/h (4 Bft)
25.01.2025 13:07 21,8 °C 14,1 °C 51 % 61 % 1005,3 hPa 0,0 l/m² 15,7 km/h (3 Bft) S-SO 164 ° 1 min 111 W/m² 6,7 °C 9,9 °C 19,3 km/h (3 Bft)
25.01.2025 13:08 21,8 °C 14,1 °C 51 % 62 % 1005,3 hPa 0,0 l/m² 17,8 km/h (3 Bft) S 174 ° 1 min 107 W/m² 6,9 °C 9,2 °C 24,1 km/h (4 Bft)
25.01.2025 13:09 21,8 °C 14,1 °C 51 % 61 % 1005,2 hPa 0,0 l/m² 17,2 km/h (3 Bft) S 191 ° 1 min 107 W/m² 6,7 °C 9,4 °C 25,7 km/h (4 Bft)
25.01.2025 13:10 21,8 °C 14,1 °C 51 % 60 % 1005,2 hPa 0,0 l/m² 17,7 km/h (3 Bft) S 184 ° 1 min 109 W/m² 6,5 °C 9,2 °C 25,7 km/h (4 Bft)
25.01.2025 13:11 21,8 °C 14,2 °C 51 % 61 % 1005,3 hPa 0,0 l/m² 15,3 km/h (3 Bft) S-SW 201 ° 1 min 105 W/m² 6,8 °C 10,1 °C 19,3 km/h (3 Bft)
25.01.2025 13:12 21,8 °C 14,2 °C 51 % 62 % 1005,3 hPa 0,0 l/m² 14,3 km/h (3 Bft) S 190 ° 1 min 105 W/m² 7,0 °C 10,5 °C 20,9 km/h (4 Bft)
25.01.2025 13:13 21,8 °C 14,1 °C 51 % 61 % 1005,4 hPa 0,0 l/m² 15,4 km/h (3 Bft) S 183 ° 1 min 105 W/m² 6,7 °C 10,0 °C 19,3 km/h (3 Bft)
25.01.2025 13:14 21,8 °C 14,1 °C 51 % 61 % 1005,3 hPa 0,0 l/m² 12,7 km/h (3 Bft) S-SW 194 ° 1 min 104 W/m² 6,7 °C 11,0 °C 16,1 km/h (3 Bft)
25.01.2025 13:15 21,8 °C 14,2 °C 51 % 61 % 1005,3 hPa 0,0 l/m² 15,0 km/h (3 Bft) S 190 ° 1 min 95 W/m² 6,8 °C 10,2 °C 19,3 km/h (3 Bft)
25.01.2025 13:16 21,8 °C 14,2 °C 51 % 61 % 1005,2 hPa 0,0 l/m² 10,8 km/h (2 Bft) S 190 ° 1 min 90 W/m² 6,8 °C 11,9 °C 12,9 km/h (3 Bft)
25.01.2025 13:17 21,8 °C 14,1 °C 51 % 62 % 1005,2 hPa 0,0 l/m² 13,1 km/h (3 Bft) S-SW 194 ° 1 min 90 W/m² 6,9 °C 10,8 °C 19,3 km/h (3 Bft)
25.01.2025 13:18 21,8 °C 14,1 °C 51 % 60 % 1005,2 hPa 0,0 l/m² 15,2 km/h (3 Bft) S-SW 196 ° 1 min 90 W/m² 6,5 °C 10,0 °C 19,3 km/h (3 Bft)
25.01.2025 13:19 21,8 °C 14,1 °C 51 % 60 % 1005,2 hPa 0,0 l/m² 15,0 km/h (3 Bft) S 190 ° 1 min 88 W/m² 6,5 °C 10,1 °C 17,7 km/h (3 Bft)
25.01.2025 13:20 21,8 °C 14,2 °C 51 % 60 % 1005,2 hPa 0,0 l/m² 13,9 km/h (3 Bft) S-SW 207 ° 1 min 90 W/m² 6,5 °C 10,6 °C 16,1 km/h (3 Bft)
25.01.2025 13:21 21,8 °C 14,2 °C 51 % 60 % 1005,2 hPa 0,0 l/m² 13,1 km/h (3 Bft) S-SW 200 ° 1 min 91 W/m² 6,5 °C 10,9 °C 16,1 km/h (3 Bft)
25.01.2025 13:22 21,8 °C 14,2 °C 51 % 60 % 1005,2 hPa 0,0 l/m² 14,7 km/h (3 Bft) S-SW 192 ° 1 min 91 W/m² 6,5 °C 10,3 °C 16,1 km/h (3 Bft)
25.01.2025 13:23 21,8 °C 14,2 °C 51 % 61 % 1005,2 hPa 0,0 l/m² 12,2 km/h (2 Bft) S 188 ° 1 min 90 W/m² 6,8 °C 11,3 °C 16,1 km/h (3 Bft)
25.01.2025 13:24 21,8 °C 14,2 °C 51 % 60 % 1005,2 hPa 0,0 l/m² 12,1 km/h (2 Bft) S-SW 193 ° 1 min 93 W/m² 6,5 °C 11,3 °C 14,5 km/h (3 Bft)
25.01.2025 13:25 21,8 °C 14,2 °C 51 % 60 % 1005,2 hPa 0,0 l/m² 13,1 km/h (3 Bft) S-SW 207 ° 1 min 97 W/m² 6,5 °C 10,9 °C 16,1 km/h (3 Bft)
25.01.2025 13:26 21,8 °C 14,2 °C 51 % 60 % 1005,2 hPa 0,0 l/m² 13,5 km/h (3 Bft) S 191 ° 1 min 100 W/m² 6,5 °C 10,8 °C 16,1 km/h (3 Bft)
25.01.2025 13:27 21,8 °C 14,2 °C 51 % 60 % 1005,2 hPa 0,0 l/m² 14,3 km/h (3 Bft) S 186 ° 1 min 104 W/m² 6,5 °C 10,5 °C 19,3 km/h (3 Bft)
25.01.2025 13:28 21,8 °C 14,3 °C 51 % 61 % 1005,2 hPa 0,0 l/m² 12,9 km/h (3 Bft) S 180 ° 1 min 104 W/m² 6,9 °C 11,1 °C 16,1 km/h (3 Bft)
25.01.2025 13:29 21,8 °C 14,3 °C 51 % 60 % 1005,2 hPa 0,0 l/m² 11,3 km/h (2 Bft) S 190 ° 1 min 104 W/m² 6,6 °C 11,8 °C 12,9 km/h (3 Bft)
25.01.2025 13:30 21,8 °C 14,3 °C 51 % 61 % 1005,3 hPa 0,0 l/m² 11,9 km/h (2 Bft) S-SW 202 ° 1 min 98 W/m² 6,9 °C 11,5 °C 16,1 km/h (3 Bft)
25.01.2025 13:32 21,8 °C 14,3 °C 51 % 60 % 1005,3 hPa 0,0 l/m² 13,5 km/h (3 Bft) S 184 ° 2 min 81 W/m² 6,6 °C 10,9 °C 16,1 km/h (3 Bft)
25.01.2025 13:34 21,8 °C 14,3 °C 51 % 62 % 1005,3 hPa 0,0 l/m² 10,7 km/h (2 Bft) S 184 ° 2 min 69 W/m² 7,1 °C 12,0 °C 14,5 km/h (3 Bft)
25.01.2025 13:35 21,8 °C 14,2 °C 51 % 62 % 1005,4 hPa 0,0 l/m² 12,9 km/h (3 Bft) S 184 ° 1 min 63 W/m² 7,0 °C 11,0 °C 17,7 km/h (3 Bft)
25.01.2025 13:36 21,8 °C 14,2 °C 51 % 61 % 1005,4 hPa 0,0 l/m² 10,5 km/h (2 Bft) S 179 ° 1 min 58 W/m² 6,8 °C 12,0 °C 14,5 km/h (3 Bft)
25.01.2025 13:37 21,8 °C 14,2 °C 51 % 61 % 1005,3 hPa 0,0 l/m² 8,9 km/h (2 Bft) S 188 ° 1 min 56 W/m² 6,8 °C 12,8 °C 11,3 km/h (2 Bft)
25.01.2025 13:38 21,8 °C 14,2 °C 52 % 61 % 1005,4 hPa 0,0 l/m² 8,9 km/h (2 Bft) S 187 ° 1 min 53 W/m² 6,8 °C 12,8 °C 11,3 km/h (2 Bft)
25.01.2025 13:39 21,8 °C 14,1 °C 52 % 62 % 1005,5 hPa 0,0 l/m² 8,4 km/h (2 Bft) S 187 ° 0 min 51 W/m² 6,9 °C 12,9 °C 11,3 km/h (2 Bft)
25.01.2025 13:40 21,8 °C 14,1 °C 51 % 63 % 1005,4 hPa 0,0 l/m² 9,7 km/h (2 Bft) S 183 ° 0 min 49 W/m² 7,2 °C 12,3 °C 11,3 km/h (2 Bft)
25.01.2025 13:41 21,8 °C 14,1 °C 51 % 63 % 1005,4 hPa 0,0 l/m² 8,9 km/h (2 Bft) S 182 ° 0 min 49 W/m² 7,2 °C 12,7 °C 11,3 km/h (2 Bft)
25.01.2025 13:42 21,7 °C 14,0 °C 52 % 64 % 1005,5 hPa 0,0 l/m² 9,5 km/h (2 Bft) S 180 ° 0 min 51 W/m² 7,3 °C 12,3 °C 12,9 km/h (3 Bft)
25.01.2025 13:43 21,8 °C 13,9 °C 51 % 64 % 1005,5 hPa 0,0 l/m² 8,9 km/h (2 Bft) S 182 ° 0 min 49 W/m² 7,2 °C 12,5 °C 11,3 km/h (2 Bft)
25.01.2025 13:44 21,8 °C 13,9 °C 51 % 64 % 1005,5 hPa 0,0 l/m² 10,9 km/h (2 Bft) S-SW 194 ° 0 min 47 W/m² 7,2 °C 11,5 °C 14,5 km/h (3 Bft)
25.01.2025 13:45 21,8 °C 13,9 °C 52 % 64 % 1005,4 hPa 0,0 l/m² 10,0 km/h (2 Bft) S 189 ° 0 min 42 W/m² 7,2 °C 11,9 °C 11,3 km/h (2 Bft)
25.01.2025 13:46 21,8 °C 13,8 °C 52 % 64 % 1005,5 hPa 0,0 l/m² 12,2 km/h (2 Bft) S 184 ° 0 min 39 W/m² 7,1 °C 10,8 °C 16,1 km/h (3 Bft)
25.01.2025 13:47 21,8 °C 13,8 °C 51 % 63 % 1005,5 hPa 0,0 l/m² 12,8 km/h (3 Bft) S 177 ° 0 min 39 W/m² 6,9 °C 10,6 °C 16,1 km/h (3 Bft)
25.01.2025 13:48 21,8 °C 13,8 °C 51 % 63 % 1005,5 hPa 0,0 l/m² 10,5 km/h (2 Bft) S 187 ° 0 min 40 W/m² 6,9 °C 11,6 °C 14,5 km/h (3 Bft)
25.01.2025 13:49 21,8 °C 13,8 °C 52 % 64 % 1005,5 hPa 0,0 l/m² 10,4 km/h (2 Bft) S-SW 192 ° 0 min 40 W/m² 7,1 °C 11,6 °C 14,5 km/h (3 Bft)
25.01.2025 13:50 21,8 °C 13,8 °C 52 % 64 % 1005,6 hPa 0,0 l/m² 14,9 km/h (3 Bft) S 174 ° 0 min 40 W/m² 7,1 °C 9,8 °C 22,5 km/h (4 Bft)
25.01.2025 13:52 21,8 °C 13,8 °C 52 % 63 % 1005,5 hPa 0,0 l/m² 11,1 km/h (2 Bft) S 188 ° 0 min 40 W/m² 6,9 °C 11,3 °C 17,7 km/h (3 Bft)
25.01.2025 13:54 21,8 °C 13,8 °C 52 % 63 % 1005,6 hPa 0,0 l/m² 15,1 km/h (3 Bft) S 175 ° 0 min 37 W/m² 6,9 °C 9,7 °C 20,9 km/h (4 Bft)
25.01.2025 13:55 21,8 °C 13,8 °C 52 % 63 % 1005,5 hPa 0,0 l/m² 13,4 km/h (3 Bft) S 184 ° 0 min 39 W/m² 6,9 °C 10,3 °C 19,3 km/h (3 Bft)
25.01.2025 13:56 21,8 °C 13,8 °C 52 % 62 % 1005,5 hPa 0,0 l/m² 11,2 km/h (2 Bft) S 184 ° 0 min 40 W/m² 6,6 °C 11,2 °C 16,1 km/h (3 Bft)
25.01.2025 13:57 21,8 °C 13,9 °C 52 % 63 % 1005,5 hPa 0,0 l/m² 11,0 km/h (2 Bft) S 188 ° 0 min 42 W/m² 7,0 °C 11,4 °C 12,9 km/h (3 Bft)
25.01.2025 13:58 21,8 °C 13,9 °C 52 % 63 % 1005,6 hPa 0,0 l/m² 11,3 km/h (2 Bft) S-SW 193 ° 0 min 46 W/m² 7,0 °C 11,3 °C 14,5 km/h (3 Bft)
25.01.2025 13:59 21,8 °C 13,9 °C 52 % 62 % 1005,5 hPa 0,0 l/m² 13,6 km/h (3 Bft) S-SW 198 ° 0 min 47 W/m² 6,7 °C 10,4 °C 17,7 km/h (3 Bft)
25.01.2025 14:00 21,8 °C 13,9 °C 51 % 62 % 1005,5 hPa 0,0 l/m² 12,0 km/h (2 Bft) S 189 ° 0 min 46 W/m² 6,7 °C 11,0 °C 16,1 km/h (3 Bft)
25.01.2025 14:02 21,7 °C 13,9 °C 51 % 62 % 1005,6 hPa 0,0 l/m² 13,3 km/h (3 Bft) S-SW 194 ° 0 min 49 W/m² 6,7 °C 10,5 °C 16,1 km/h (3 Bft)
25.01.2025 14:04 21,8 °C 13,9 °C 51 % 62 % 1005,5 hPa 0,0 l/m² 11,9 km/h (2 Bft) S 178 ° 0 min 49 W/m² 6,7 °C 11,0 °C 14,5 km/h (3 Bft)
25.01.2025 14:05 21,7 °C 13,9 °C 50 % 62 % 1005,4 hPa 0,0 l/m² 12,2 km/h (2 Bft) S 184 ° 0 min 46 W/m² 6,7 °C 10,9 °C 14,5 km/h (3 Bft)
25.01.2025 14:06 21,7 °C 13,9 °C 50 % 62 % 1005,5 hPa 0,0 l/m² 10,9 km/h (2 Bft) S 187 ° 0 min 46 W/m² 6,7 °C 11,5 °C 12,9 km/h (3 Bft)
25.01.2025 14:07 21,7 °C 13,9 °C 50 % 62 % 1005,5 hPa 0,0 l/m² 9,7 km/h (2 Bft) S 178 ° 0 min 44 W/m² 6,7 °C 12,0 °C 12,9 km/h (3 Bft)
25.01.2025 14:08 21,7 °C 13,9 °C 50 % 62 % 1005,4 hPa 0,0 l/m² 9,0 km/h (2 Bft) S 181 ° 0 min 42 W/m² 6,7 °C 12,4 °C 11,3 km/h (2 Bft)
25.01.2025 14:09 21,7 °C 13,9 °C 50 % 63 % 1005,4 hPa 0,0 l/m² 11,5 km/h (2 Bft) S 186 ° 0 min 39 W/m² 7,0 °C 11,2 °C 16,1 km/h (3 Bft)
25.01.2025 14:11 21,7 °C 13,9 °C 50 % 63 % 1005,4 hPa 0,0 l/m² 11,8 km/h (2 Bft) S 188 ° 0 min 32 W/m² 7,0 °C 11,1 °C 17,7 km/h (3 Bft)
25.01.2025 14:13 21,7 °C 13,8 °C 50 % 63 % 1005,5 hPa 0,0 l/m² 9,7 km/h (2 Bft) S 190 ° 0 min 23 W/m² 6,9 °C 11,9 °C 12,9 km/h (3 Bft)
25.01.2025 14:14 21,7 °C 13,8 °C 50 % 63 % 1005,4 hPa 0,0 l/m² 9,7 km/h (2 Bft) S-SW 194 ° 0 min 23 W/m² 6,9 °C 11,9 °C 12,9 km/h (3 Bft)
25.01.2025 14:15 21,7 °C 13,8 °C 50 % 62 % 1005,4 hPa 0,0 l/m² 12,1 km/h (2 Bft) S 181 ° 0 min 23 W/m² 6,6 °C 10,8 °C 14,5 km/h (3 Bft)
25.01.2025 14:16 21,7 °C 13,8 °C 50 % 63 % 1005,5 hPa 0,0 l/m² 11,8 km/h (2 Bft) S 188 ° 0 min 23 W/m² 6,9 °C 11,0 °C 12,9 km/h (3 Bft)
25.01.2025 14:17 21,7 °C 13,8 °C 51 % 63 % 1005,5 hPa 0,0 l/m² 12,1 km/h (2 Bft) S 186 ° 0 min 26 W/m² 6,9 °C 10,8 °C 16,1 km/h (3 Bft)
25.01.2025 14:18 21,7 °C 13,8 °C 51 % 63 % 1005,6 hPa 0,0 l/m² 10,9 km/h (2 Bft) S 189 ° 0 min 28 W/m² 6,9 °C 11,4 °C 14,5 km/h (3 Bft)
25.01.2025 14:19 21,7 °C 13,8 °C 50 % 63 % 1005,6 hPa 0,0 l/m² 11,6 km/h (2 Bft) S 185 ° 0 min 30 W/m² 6,9 °C 11,1 °C 16,1 km/h (3 Bft)
25.01.2025 14:21 21,7 °C 13,7 °C 51 % 62 % 1005,6 hPa 0,0 l/m² 12,5 km/h (2 Bft) S 180 ° 0 min 33 W/m² 6,6 °C 10,6 °C 17,7 km/h (3 Bft)
25.01.2025 14:23 21,7 °C 13,8 °C 51 % 62 % 1005,6 hPa 0,0 l/m² 11,4 km/h (2 Bft) S 185 ° 0 min 39 W/m² 6,6 °C 11,1 °C 16,1 km/h (3 Bft)
25.01.2025 14:24 21,7 °C 13,8 °C 51 % 62 % 1005,6 hPa 0,0 l/m² 11,5 km/h (2 Bft) S 184 ° 0 min 39 W/m² 6,6 °C 11,1 °C 14,5 km/h (3 Bft)
25.01.2025 14:25 21,7 °C 13,8 °C 51 % 63 % 1005,7 hPa 0,0 l/m² 12,7 km/h (3 Bft) S 173 ° 0 min 37 W/m² 6,9 °C 10,6 °C 16,1 km/h (3 Bft)
25.01.2025 14:26 21,7 °C 13,8 °C 51 % 63 % 1005,6 hPa 0,0 l/m² 11,9 km/h (2 Bft) S 175 ° 0 min 42 W/m² 6,9 °C 10,9 °C 14,5 km/h (3 Bft)
25.01.2025 14:27 21,7 °C 13,8 °C 51 % 63 % 1005,5 hPa 0,0 l/m² 12,3 km/h (2 Bft) S 176 ° 0 min 51 W/m² 6,9 °C 10,8 °C 16,1 km/h (3 Bft)
25.01.2025 14:28 21,7 °C 13,8 °C 51 % 63 % 1005,5 hPa 0,0 l/m² 12,6 km/h (3 Bft) S 184 ° 0 min 51 W/m² 6,9 °C 10,6 °C 14,5 km/h (3 Bft)
25.01.2025 14:29 21,7 °C 13,8 °C 51 % 62 % 1005,6 hPa 0,0 l/m² 11,8 km/h (2 Bft) S 175 ° 1 min 62 W/m² 6,6 °C 11,0 °C 14,5 km/h (3 Bft)
25.01.2025 14:31 21,7 °C 13,8 °C 51 % 63 % 1005,5 hPa 0,0 l/m² 11,1 km/h (2 Bft) S 179 ° 0 min 47 W/m² 6,9 °C 11,3 °C 14,5 km/h (3 Bft)
25.01.2025 14:33 21,7 °C 13,7 °C 51 % 64 % 1005,5 hPa 0,0 l/m² 11,6 km/h (2 Bft) S-SO 168 ° 0 min 39 W/m² 7,0 °C 10,9 °C 19,3 km/h (3 Bft)
25.01.2025 14:34 21,7 °C 13,7 °C 51 % 64 % 1005,5 hPa 0,0 l/m² 11,8 km/h (2 Bft) S 181 ° 0 min 44 W/m² 7,0 °C 10,9 °C 17,7 km/h (3 Bft)
25.01.2025 14:35 21,7 °C 13,7 °C 51 % 64 % 1005,4 hPa 0,0 l/m² 12,7 km/h (3 Bft) S-SO 163 ° 1 min 54 W/m² 7,0 °C 10,5 °C 17,7 km/h (3 Bft)
25.01.2025 14:36 21,7 °C 13,6 °C 51 % 63 % 1005,4 hPa 0,0 l/m² 12,7 km/h (3 Bft) S 184 ° 1 min 60 W/m² 6,7 °C 10,4 °C 16,1 km/h (3 Bft)
25.01.2025 14:37 21,7 °C 13,7 °C 51 % 63 % 1005,4 hPa 0,0 l/m² 11,9 km/h (2 Bft) S 180 ° 1 min 63 W/m² 6,8 °C 10,8 °C 14,5 km/h (3 Bft)
25.01.2025 14:38 21,7 °C 13,6 °C 51 % 64 % 1005,4 hPa 0,0 l/m² 12,4 km/h (2 Bft) S 183 ° 1 min 69 W/m² 6,9 °C 10,5 °C 14,5 km/h (3 Bft)
25.01.2025 14:39 21,7 °C 13,6 °C 51 % 64 % 1005,6 hPa 0,0 l/m² 13,1 km/h (3 Bft) S 186 ° 1 min 65 W/m² 6,9 °C 10,2 °C 16,1 km/h (3 Bft)
25.01.2025 14:41 21,7 °C 13,6 °C 51 % 65 % 1005,5 hPa 0,0 l/m² 13,3 km/h (3 Bft) S-SW 193 ° 0 min 44 W/m² 7,1 °C 10,1 °C 17,7 km/h (3 Bft)
25.01.2025 14:43 21,7 °C 13,6 °C 51 % 65 % 1005,5 hPa 0,0 l/m² 12,6 km/h (3 Bft) S 188 ° 0 min 35 W/m² 7,1 °C 10,4 °C 16,1 km/h (3 Bft)
25.01.2025 14:44 21,7 °C 13,6 °C 51 % 64 % 1005,6 hPa 0,0 l/m² 11,8 km/h (2 Bft) S 179 ° 0 min 35 W/m² 6,9 °C 10,7 °C 16,1 km/h (3 Bft)
25.01.2025 14:45 21,7 °C 13,6 °C 51 % 64 % 1005,6 hPa 0,0 l/m² 20,3 km/h (4 Bft) S-SW 196 ° 0 min 37 W/m² 6,9 °C 7,9 °C 27,4 km/h (5 Bft)
25.01.2025 14:46 21,7 °C 13,6 °C 51 % 64 % 1005,6 hPa 0,0 l/m² 16,8 km/h (3 Bft) S-SW 195 ° 0 min 44 W/m² 6,9 °C 8,9 °C 22,5 km/h (4 Bft)
25.01.2025 14:47 21,7 °C 13,7 °C 51 % 64 % 1005,6 hPa 0,0 l/m² 14,2 km/h (3 Bft) S-SW 195 ° 0 min 46 W/m² 7,0 °C 9,9 °C 17,7 km/h (3 Bft)
25.01.2025 14:48 21,7 °C 13,7 °C 51 % 64 % 1005,5 hPa 0,0 l/m² 19,6 km/h (3 Bft) S-SW 197 ° 0 min 51 W/m² 7,0 °C 8,2 °C 30,6 km/h (5 Bft)
25.01.2025 14:49 21,7 °C 13,7 °C 51 % 63 % 1005,6 hPa 0,0 l/m² 17,6 km/h (3 Bft) S-SW 210 ° 1 min 56 W/m² 6,8 °C 8,8 °C 25,7 km/h (4 Bft)
25.01.2025 14:51 21,7 °C 13,9 °C 51 % 63 % 1005,6 hPa 0,0 l/m² 14,4 km/h (3 Bft) S-SW 193 ° 2 min 65 W/m² 7,0 °C 10,1 °C 19,3 km/h (3 Bft)
25.01.2025 14:53 21,7 °C 14,0 °C 51 % 63 % 1005,7 hPa 0,0 l/m² 15,5 km/h (3 Bft) S-SW 205 ° 2 min 67 W/m² 7,1 °C 9,8 °C 19,3 km/h (3 Bft)
25.01.2025 14:54 21,7 °C 14,0 °C 51 % 63 % 1005,6 hPa 0,0 l/m² 18,5 km/h (3 Bft) SW 217 ° 1 min 65 W/m² 7,1 °C 8,9 °C 27,4 km/h (5 Bft)
25.01.2025 14:55 21,7 °C 14,1 °C 51 % 63 % 1005,7 hPa 0,0 l/m² 23,5 km/h (4 Bft) S-SW 194 ° 1 min 60 W/m² 7,2 °C 7,7 °C 30,6 km/h (5 Bft)
25.01.2025 14:56 21,7 °C 14,1 °C 51 % 63 % 1005,7 hPa 0,0 l/m² 20,7 km/h (4 Bft) S-SW 201 ° 1 min 56 W/m² 7,2 °C 8,4 °C 25,7 km/h (4 Bft)
25.01.2025 14:57 21,7 °C 14,2 °C 51 % 63 % 1005,7 hPa 0,0 l/m² 20,3 km/h (4 Bft) S-SW 194 ° 1 min 54 W/m² 7,3 °C 8,6 °C 24,1 km/h (4 Bft)
25.01.2025 14:58 21,7 °C 14,2 °C 51 % 63 % 1005,6 hPa 0,0 l/m² 17,5 km/h (3 Bft) S-SW 208 ° 1 min 54 W/m² 7,3 °C 9,4 °C 22,5 km/h (4 Bft)
25.01.2025 14:59 21,7 °C 14,3 °C 51 % 63 % 1005,6 hPa 0,0 l/m² 13,6 km/h (3 Bft) S-SW 196 ° 0 min 51 W/m² 7,4 °C 10,8 °C 17,7 km/h (3 Bft)
25.01.2025 15:01 21,7 °C 14,2 °C 51 % 63 % 1005,7 hPa 0,0 l/m² 14,5 km/h (3 Bft) S-SW 200 ° 2 min 54 W/m² 7,3 °C 10,4 °C 17,7 km/h (3 Bft)
25.01.2025 15:03 21,7 °C 14,2 °C 51 % 63 % 1005,7 hPa 0,0 l/m² 16,3 km/h (3 Bft) S 187 ° 2 min 56 W/m² 7,3 °C 9,8 °C 20,9 km/h (4 Bft)
25.01.2025 15:04 21,7 °C 14,2 °C 51 % 63 % 1005,7 hPa 0,0 l/m² 15,4 km/h (3 Bft) S-SW 203 ° 1 min 54 W/m² 7,3 °C 10,1 °C 20,9 km/h (4 Bft)
25.01.2025 15:05 21,7 °C 14,2 °C 51 % 63 % 1005,7 hPa 0,0 l/m² 14,5 km/h (3 Bft) S-SW 201 ° 0 min 47 W/m² 7,3 °C 10,4 °C 16,1 km/h (3 Bft)
25.01.2025 15:06 21,7 °C 14,2 °C 51 % 63 % 1005,7 hPa 0,0 l/m² 13,7 km/h (3 Bft) SW 215 ° 0 min 47 W/m² 7,3 °C 10,7 °C 16,1 km/h (3 Bft)
25.01.2025 15:07 21,7 °C 14,1 °C 51 % 64 % 1005,7 hPa 0,0 l/m² 15,5 km/h (3 Bft) S-SW 200 ° 0 min 46 W/m² 7,4 °C 9,9 °C 24,1 km/h (4 Bft)
25.01.2025 15:08 21,7 °C 14,1 °C 51 % 63 % 1005,6 hPa 0,0 l/m² 20,4 km/h (4 Bft) S-SW 202 ° 0 min 47 W/m² 7,2 °C 8,5 °C 27,4 km/h (5 Bft)
25.01.2025 15:09 21,7 °C 14,1 °C 51 % 64 % 1005,7 hPa 0,0 l/m² 21,6 km/h (4 Bft) S-SW 205 ° 1 min 53 W/m² 7,4 °C 8,2 °C 37,0 km/h (5 Bft)
25.01.2025 15:11 21,7 °C 14,1 °C 50 % 64 % 1005,8 hPa 0,0 l/m² 23,2 km/h (4 Bft) S-SW 205 ° 2 min 54 W/m² 7,4 °C 7,8 °C 30,6 km/h (5 Bft)
25.01.2025 15:13 21,7 °C 14,2 °C 50 % 63 % 1005,7 hPa 0,0 l/m² 19,9 km/h (4 Bft) S-SW 201 ° 0 min 49 W/m² 7,3 °C 8,7 °C 24,1 km/h (4 Bft)
25.01.2025 15:14 21,7 °C 14,2 °C 50 % 63 % 1005,7 hPa 0,0 l/m² 25,9 km/h (4 Bft) S-SW 211 ° 0 min 51 W/m² 7,3 °C 7,3 °C 38,6 km/h (6 Bft)
25.01.2025 15:15 21,7 °C 14,2 °C 51 % 63 % 1005,7 hPa 0,0 l/m² 27,7 km/h (5 Bft) S-SW 213 ° 1 min 53 W/m² 7,3 °C 7,0 °C 33,8 km/h (5 Bft)
25.01.2025 15:16 21,7 °C 14,2 °C 51 % 63 % 1005,7 hPa 0,0 l/m² 19,2 km/h (3 Bft) S-SW 206 ° 1 min 58 W/m² 7,3 °C 8,9 °C 22,5 km/h (4 Bft)
25.01.2025 15:17 21,7 °C 14,2 °C 51 % 63 % 1005,7 hPa 0,0 l/m² 16,3 km/h (3 Bft) SW 221 ° 1 min 60 W/m² 7,3 °C 9,8 °C 20,9 km/h (4 Bft)
25.01.2025 15:18 21,7 °C 14,2 °C 51 % 63 % 1005,6 hPa 0,0 l/m² 20,2 km/h (4 Bft) S-SW 201 ° 1 min 62 W/m² 7,3 °C 8,7 °C 30,6 km/h (5 Bft)
25.01.2025 15:19 21,7 °C 14,3 °C 51 % 63 % 1005,7 hPa 0,0 l/m² 21,5 km/h (4 Bft) S-SW 212 ° 1 min 60 W/m² 7,4 °C 8,5 °C 29,0 km/h (5 Bft)
25.01.2025 15:21 21,7 °C 14,3 °C 51 % 63 % 1005,8 hPa 0,0 l/m² 18,5 km/h (3 Bft) SW 214 ° 0 min 47 W/m² 7,4 °C 9,3 °C 24,1 km/h (4 Bft)
25.01.2025 15:23 21,7 °C 14,3 °C 51 % 64 % 1005,8 hPa 0,0 l/m² 17,5 km/h (3 Bft) S-SW 202 ° 0 min 42 W/m² 7,6 °C 9,5 °C 25,7 km/h (4 Bft)
25.01.2025 15:24 21,7 °C 14,3 °C 51 % 63 % 1005,8 hPa 0,0 l/m² 18,2 km/h (3 Bft) S-SW 205 ° 0 min 44 W/m² 7,4 °C 9,3 °C 24,1 km/h (4 Bft)
25.01.2025 15:25 21,8 °C 14,3 °C 51 % 63 % 1005,7 hPa 0,0 l/m² 16,8 km/h (3 Bft) SW 219 ° 0 min 46 W/m² 7,4 °C 9,8 °C 20,9 km/h (4 Bft)
25.01.2025 15:26 21,8 °C 14,2 °C 51 % 64 % 1005,8 hPa 0,0 l/m² 18,1 km/h (3 Bft) S-SW 200 ° 0 min 49 W/m² 7,5 °C 9,2 °C 22,5 km/h (4 Bft)
25.01.2025 15:27 21,8 °C 14,2 °C 51 % 64 % 1005,8 hPa 0,0 l/m² 17,5 km/h (3 Bft) S-SW 212 ° 1 min 54 W/m² 7,5 °C 9,4 °C 24,1 km/h (4 Bft)
25.01.2025 15:28 21,8 °C 14,2 °C 51 % 64 % 1005,8 hPa 0,0 l/m² 20,0 km/h (4 Bft) S-SW 212 ° 1 min 58 W/m² 7,5 °C 8,7 °C 27,4 km/h (5 Bft)
25.01.2025 15:29 21,8 °C 14,2 °C 51 % 63 % 1005,8 hPa 0,0 l/m² 18,3 km/h (3 Bft) S-SW 208 ° 1 min 58 W/m² 7,3 °C 9,2 °C 22,5 km/h (4 Bft)
25.01.2025 15:31 21,8 °C 14,2 °C 51 % 64 % 1005,8 hPa 0,0 l/m² 17,5 km/h (3 Bft) S-SW 206 ° 2 min 54 W/m² 7,5 °C 9,4 °C 22,5 km/h (4 Bft)
25.01.2025 15:33 21,8 °C 14,2 °C 51 % 64 % 1005,7 hPa 0,0 l/m² 17,5 km/h (3 Bft) S-SW 202 ° 2 min 56 W/m² 7,5 °C 9,4 °C 22,5 km/h (4 Bft)
25.01.2025 15:34 21,8 °C 14,2 °C 51 % 64 % 1005,8 hPa 0,0 l/m² 18,3 km/h (3 Bft) S-SW 213 ° 1 min 56 W/m² 7,5 °C 9,2 °C 25,7 km/h (4 Bft)
25.01.2025 15:35 21,8 °C 14,2 °C 51 % 63 % 1005,7 hPa 0,0 l/m² 21,5 km/h (4 Bft) SW 217 ° 1 min 56 W/m² 7,3 °C 8,3 °C 27,4 km/h (5 Bft)
25.01.2025 15:36 21,8 °C 14,2 °C 51 % 63 % 1005,6 hPa 0,0 l/m² 22,3 km/h (4 Bft) S-SW 202 ° 1 min 56 W/m² 7,3 °C 8,1 °C 29,0 km/h (5 Bft)
25.01.2025 15:37 21,8 °C 14,2 °C 51 % 63 % 1005,7 hPa 0,0 l/m² 18,8 km/h (3 Bft) S-SW 206 ° 1 min 56 W/m² 7,3 °C 9,0 °C 22,5 km/h (4 Bft)
25.01.2025 15:38 21,8 °C 14,2 °C 51 % 63 % 1005,7 hPa 0,0 l/m² 16,6 km/h (3 Bft) S-SW 199 ° 1 min 58 W/m² 7,3 °C 9,7 °C 20,9 km/h (4 Bft)
25.01.2025 15:39 21,8 °C 14,2 °C 51 % 63 % 1005,8 hPa 0,0 l/m² 18,3 km/h (3 Bft) SW 227 ° 1 min 63 W/m² 7,3 °C 9,2 °C 22,5 km/h (4 Bft)
25.01.2025 15:41 21,8 °C 14,2 °C 51 % 63 % 1005,8 hPa 0,0 l/m² 18,6 km/h (3 Bft) S-SW 207 ° 2 min 70 W/m² 7,3 °C 9,1 °C 25,7 km/h (4 Bft)
25.01.2025 15:42 21,8 °C 14,2 °C 51 % 63 % 1005,9 hPa 0,0 l/m² 15,7 km/h (3 Bft) S-SW 210 ° 1 min 67 W/m² 7,3 °C 10,0 °C 19,3 km/h (3 Bft)
25.01.2025 15:43 21,8 °C 14,2 °C 51 % 64 % 1005,9 hPa 0,0 l/m² 15,6 km/h (3 Bft) S-SW 203 ° 1 min 65 W/m² 7,5 °C 10,0 °C 20,9 km/h (4 Bft)
25.01.2025 15:45 21,8 °C 14,2 °C 51 % 63 % 1005,8 hPa 0,0 l/m² 17,8 km/h (3 Bft) S-SW 213 ° 0 min 47 W/m² 7,3 °C 9,3 °C 24,1 km/h (4 Bft)
25.01.2025 15:46 21,8 °C 14,2 °C 51 % 64 % 1006,0 hPa 0,0 l/m² 17,6 km/h (3 Bft) S 182 ° 0 min 40 W/m² 7,5 °C 9,4 °C 24,1 km/h (4 Bft)
25.01.2025 15:47 21,8 °C 14,2 °C 51 % 63 % 1005,8 hPa 0,0 l/m² 15,3 km/h (3 Bft) S-SW 193 ° 0 min 35 W/m² 7,3 °C 10,1 °C 20,9 km/h (4 Bft)
25.01.2025 15:48 21,8 °C 14,2 °C 51 % 64 % 1005,9 hPa 0,0 l/m² 17,8 km/h (3 Bft) S-SW 208 ° 0 min 33 W/m² 7,5 °C 9,3 °C 25,7 km/h (4 Bft)
25.01.2025 15:49 21,8 °C 14,2 °C 51 % 63 % 1005,9 hPa 0,0 l/m² 17,0 km/h (3 Bft) S-SW 193 ° 0 min 30 W/m² 7,3 °C 9,6 °C 24,1 km/h (4 Bft)
25.01.2025 15:51 21,8 °C 14,2 °C 51 % 64 % 1005,9 hPa 0,0 l/m² 14,2 km/h (3 Bft) SW 218 ° 0 min 23 W/m² 7,5 °C 10,5 °C 17,7 km/h (3 Bft)
25.01.2025 15:53 21,8 °C 14,2 °C 51 % 64 % 1006,0 hPa 0,0 l/m² 15,0 km/h (3 Bft) S-SW 196 ° 0 min 21 W/m² 7,5 °C 10,2 °C 20,9 km/h (4 Bft)
25.01.2025 15:54 21,8 °C 14,2 °C 51 % 64 % 1006,0 hPa 0,0 l/m² 14,3 km/h (3 Bft) S-SW 204 ° 0 min 21 W/m² 7,5 °C 10,5 °C 17,7 km/h (3 Bft)
25.01.2025 15:55 21,8 °C 14,2 °C 51 % 64 % 1006,0 hPa 0,0 l/m² 9,6 km/h (2 Bft) S-SW 202 ° 0 min 19 W/m² 7,5 °C 12,4 °C 12,9 km/h (3 Bft)
25.01.2025 15:56 21,8 °C 14,2 °C 51 % 64 % 1006,0 hPa 0,0 l/m² 10,8 km/h (2 Bft) S-SW 198 ° 0 min 19 W/m² 7,5 °C 11,9 °C 14,5 km/h (3 Bft)
25.01.2025 15:57 21,8 °C 14,2 °C 51 % 64 % 1006,0 hPa 0,0 l/m² 10,6 km/h (2 Bft) S-SW 209 ° 0 min 19 W/m² 7,5 °C 12,0 °C 12,9 km/h (3 Bft)
25.01.2025 15:58 21,9 °C 14,2 °C 51 % 64 % 1006,0 hPa 0,0 l/m² 15,4 km/h (3 Bft) S-SW 197 ° 0 min 21 W/m² 7,5 °C 10,1 °C 22,5 km/h (4 Bft)
25.01.2025 15:59 21,9 °C 14,2 °C 51 % 64 % 1006,0 hPa 0,0 l/m² 19,6 km/h (3 Bft) S-SW 202 ° 0 min 19 W/m² 7,5 °C 8,8 °C 24,1 km/h (4 Bft)
25.01.2025 16:01 21,9 °C 14,1 °C 51 % 64 % 1006,0 hPa 0,0 l/m² 15,5 km/h (3 Bft) SW 215 ° 0 min 19 W/m² 7,4 °C 9,9 °C 20,9 km/h (4 Bft)
25.01.2025 16:03 21,9 °C 14,1 °C 51 % 64 % 1006,0 hPa 0,0 l/m² 12,8 km/h (3 Bft) S 186 ° 0 min 18 W/m² 7,4 °C 10,9 °C 20,9 km/h (4 Bft)
25.01.2025 16:04 21,9 °C 14,1 °C 51 % 65 % 1006,0 hPa 0,0 l/m² 17,1 km/h (3 Bft) S 185 ° 0 min 18 W/m² 7,6 °C 9,4 °C 27,4 km/h (5 Bft)
25.01.2025 16:05 21,9 °C 14,1 °C 51 % 64 % 1006,0 hPa 0,0 l/m² 15,2 km/h (3 Bft) SW 216 ° 0 min 16 W/m² 7,4 °C 10,0 °C 22,5 km/h (4 Bft)
25.01.2025 16:06 21,9 °C 14,1 °C 51 % 64 % 1006,0 hPa 0,0 l/m² 15,7 km/h (3 Bft) S-SW 204 ° 0 min 16 W/m² 7,4 °C 9,9 °C 19,3 km/h (3 Bft)
25.01.2025 16:07 21,9 °C 14,1 °C 51 % 65 % 1006,0 hPa 0,0 l/m² 14,9 km/h (3 Bft) S-SW 207 ° 0 min 14 W/m² 7,6 °C 10,1 °C 17,7 km/h (3 Bft)
25.01.2025 16:08 21,9 °C 14,1 °C 51 % 65 % 1006,0 hPa 0,0 l/m² 15,4 km/h (3 Bft) S-SW 207 ° 0 min 14 W/m² 7,6 °C 10,0 °C 19,3 km/h (3 Bft)
25.01.2025 16:09 21,9 °C 14,1 °C 51 % 65 % 1006,0 hPa 0,0 l/m² 13,3 km/h (3 Bft) S-SW 198 ° 0 min 12 W/m² 7,6 °C 10,7 °C 16,1 km/h (3 Bft)
25.01.2025 16:11 21,9 °C 14,1 °C 51 % 65 % 1006,1 hPa 0,0 l/m² 10,4 km/h (2 Bft) SW 223 ° 0 min 12 W/m² 7,6 °C 11,9 °C 12,9 km/h (3 Bft)
25.01.2025 16:13 21,9 °C 14,0 °C 51 % 65 % 1006,1 hPa 0,0 l/m² 14,4 km/h (3 Bft) S-SW 202 ° 0 min 12 W/m² 7,5 °C 10,2 °C 20,9 km/h (4 Bft)
25.01.2025 16:14 21,9 °C 14,0 °C 51 % 65 % 1006,1 hPa 0,0 l/m² 12,8 km/h (3 Bft) S-SW 212 ° 0 min 12 W/m² 7,5 °C 10,8 °C 16,1 km/h (3 Bft)
25.01.2025 16:15 21,9 °C 13,9 °C 51 % 65 % 1006,2 hPa 0,0 l/m² 14,0 km/h (3 Bft) SW 227 ° 0 min 12 W/m² 7,4 °C 10,2 °C 20,9 km/h (4 Bft)
25.01.2025 16:17 21,9 °C 13,9 °C 51 % 66 % 1006,2 hPa 0,0 l/m² 10,9 km/h (2 Bft) SW 215 ° 0 min 12 W/m² 7,7 °C 11,5 °C 19,3 km/h (3 Bft)
25.01.2025 16:18 21,9 °C 13,9 °C 51 % 66 % 1006,2 hPa 0,0 l/m² 13,6 km/h (3 Bft) SW 217 ° 0 min 12 W/m² 7,7 °C 10,4 °C 16,1 km/h (3 Bft)
25.01.2025 16:19 21,9 °C 13,9 °C 51 % 66 % 1006,2 hPa 0,0 l/m² 12,2 km/h (2 Bft) SW 223 ° 0 min 11 W/m² 7,7 °C 10,9 °C 14,5 km/h (3 Bft)
25.01.2025 16:21 21,9 °C 13,9 °C 51 % 66 % 1006,1 hPa 0,0 l/m² 11,6 km/h (2 Bft) SW 232 ° 0 min 7 W/m² 7,7 °C 11,2 °C 16,1 km/h (3 Bft)
25.01.2025 16:23 21,9 °C 13,9 °C 51 % 66 % 1006,1 hPa 0,0 l/m² 11,1 km/h (2 Bft) SW 218 ° 0 min 7 W/m² 7,7 °C 11,4 °C 14,5 km/h (3 Bft)
25.01.2025 16:24 21,9 °C 13,9 °C 51 % 67 % 1006,2 hPa 0,0 l/m² 11,5 km/h (2 Bft) S-SW 211 ° 0 min 7 W/m² 7,9 °C 11,2 °C 14,5 km/h (3 Bft)
25.01.2025 16:25 21,9 °C 13,8 °C 51 % 66 % 1006,2 hPa 0,0 l/m² 13,9 km/h (3 Bft) SW 220 ° 0 min 5 W/m² 7,6 °C 10,1 °C 17,7 km/h (3 Bft)
25.01.2025 16:26 21,9 °C 13,8 °C 51 % 66 % 1006,2 hPa 0,0 l/m² 11,5 km/h (2 Bft) SW 223 ° 0 min 5 W/m² 7,6 °C 11,1 °C 14,5 km/h (3 Bft)
25.01.2025 16:27 21,9 °C 13,8 °C 51 % 67 % 1006,3 hPa 0,0 l/m² 11,5 km/h (2 Bft) S-SW 211 ° 0 min 5 W/m² 7,8 °C 11,1 °C 17,7 km/h (3 Bft)
25.01.2025 16:28 21,9 °C 13,8 °C 51 % 67 % 1006,3 hPa 0,0 l/m² 11,3 km/h (2 Bft) S-SW 212 ° 0 min 5 W/m² 7,8 °C 11,2 °C 14,5 km/h (3 Bft)
25.01.2025 16:29 21,9 °C 13,8 °C 51 % 67 % 1006,3 hPa 0,0 l/m² 12,7 km/h (3 Bft) SW 217 ° 0 min 5 W/m² 7,8 °C 10,6 °C 16,1 km/h (3 Bft)
25.01.2025 16:31 21,9 °C 13,7 °C 51 % 67 % 1006,3 hPa 0,0 l/m² 11,1 km/h (2 Bft) SW 223 ° 0 min 5 W/m² 7,7 °C 11,2 °C 12,9 km/h (3 Bft)
25.01.2025 16:33 21,9 °C 13,7 °C 51 % 67 % 1006,3 hPa 0,0 l/m² 9,6 km/h (2 Bft) SW 215 ° 0 min 7 W/m² 7,7 °C 11,9 °C 12,9 km/h (3 Bft)
25.01.2025 16:34 21,9 °C 13,7 °C 51 % 67 % 1006,3 hPa 0,0 l/m² 11,5 km/h (2 Bft) S-SW 212 ° 0 min 7 W/m² 7,7 °C 11,0 °C 14,5 km/h (3 Bft)
25.01.2025 16:35 21,9 °C 13,7 °C 51 % 67 % 1006,3 hPa 0,0 l/m² 9,7 km/h (2 Bft) SW 221 ° 0 min 7 W/m² 7,7 °C 11,8 °C 12,9 km/h (3 Bft)
25.01.2025 16:36 21,9 °C 13,7 °C 51 % 67 % 1006,4 hPa 0,0 l/m² 8,9 km/h (2 Bft) S-SW 213 ° 0 min 7 W/m² 7,7 °C 12,2 °C 9,7 km/h (2 Bft)
25.01.2025 16:37 21,9 °C 13,6 °C 51 % 67 % 1006,3 hPa 0,0 l/m² 8,7 km/h (2 Bft) S-SW 212 ° 0 min 7 W/m² 7,6 °C 12,2 °C 11,3 km/h (2 Bft)
25.01.2025 16:38 21,8 °C 13,6 °C 51 % 67 % 1006,4 hPa 0,0 l/m² 10,5 km/h (2 Bft) S-SW 209 ° 0 min 7 W/m² 7,6 °C 11,3 °C 12,9 km/h (3 Bft)
25.01.2025 16:39 21,8 °C 13,6 °C 51 % 68 % 1006,3 hPa 0,0 l/m² 11,1 km/h (2 Bft) S-SW 213 ° 0 min 7 W/m² 7,8 °C 11,1 °C 14,5 km/h (3 Bft)
25.01.2025 16:41 21,9 °C 13,5 °C 51 % 68 % 1006,3 hPa 0,0 l/m² 12,7 km/h (3 Bft) SW 215 ° 0 min 5 W/m² 7,7 °C 10,3 °C 16,1 km/h (3 Bft)
25.01.2025 16:43 21,8 °C 13,4 °C 51 % 68 % 1006,3 hPa 0,0 l/m² 11,6 km/h (2 Bft) SW 219 ° 0 min 5 W/m² 7,6 °C 10,6 °C 14,5 km/h (3 Bft)
25.01.2025 16:44 21,8 °C 13,4 °C 51 % 68 % 1006,3 hPa 0,0 l/m² 17,2 km/h (3 Bft) SW 221 ° 0 min 0 W/m² 7,6 °C 8,5 °C 20,9 km/h (4 Bft)
25.01.2025 16:45 21,8 °C 13,4 °C 51 % 68 % 1006,3 hPa 0,0 l/m² 10,7 km/h (2 Bft) SW 217 ° 0 min 0 W/m² 7,6 °C 11,0 °C 14,5 km/h (3 Bft)
25.01.2025 16:46 21,8 °C 13,3 °C 51 % 68 % 1006,3 hPa 0,0 l/m² 15,3 km/h (3 Bft) S-SW 211 ° 0 min 0 W/m² 7,5 °C 9,0 °C 19,3 km/h (3 Bft)
25.01.2025 16:47 21,8 °C 13,3 °C 51 % 68 % 1006,2 hPa 0,0 l/m² 13,6 km/h (3 Bft) S-SW 197 ° 0 min 0 W/m² 7,5 °C 9,7 °C 14,5 km/h (3 Bft)
25.01.2025 16:48 21,8 °C 13,3 °C 51 % 68 % 1006,3 hPa 0,0 l/m² 15,3 km/h (3 Bft) SW 223 ° 0 min 0 W/m² 7,5 °C 9,0 °C 19,3 km/h (3 Bft)
25.01.2025 16:49 21,8 °C 13,3 °C 51 % 68 % 1006,3 hPa 0,0 l/m² 15,5 km/h (3 Bft) SW 219 ° 0 min 0 W/m² 7,5 °C 9,0 °C 17,7 km/h (3 Bft)
25.01.2025 16:51 21,8 °C 13,2 °C 51 % 69 % 1006,4 hPa 0,0 l/m² 12,8 km/h (3 Bft) SW 214 ° 0 min 0 W/m² 7,6 °C 9,9 °C 16,1 km/h (3 Bft)
25.01.2025 16:53 21,8 °C 13,2 °C 51 % 69 % 1006,3 hPa 0,0 l/m² 10,3 km/h (2 Bft) SW 225 ° 0 min 0 W/m² 7,6 °C 11,0 °C 16,1 km/h (3 Bft)
25.01.2025 16:54 21,8 °C 13,2 °C 51 % 69 % 1006,3 hPa 0,0 l/m² 11,8 km/h (2 Bft) SW 224 ° 0 min 0 W/m² 7,6 °C 10,3 °C 16,1 km/h (3 Bft)
25.01.2025 16:55 21,8 °C 13,2 °C 51 % 69 % 1006,3 hPa 0,0 l/m² 12,4 km/h (2 Bft) SW 215 ° 0 min 0 W/m² 7,6 °C 10,0 °C 16,1 km/h (3 Bft)
25.01.2025 16:56 21,8 °C 13,1 °C 51 % 69 % 1006,4 hPa 0,0 l/m² 10,9 km/h (2 Bft) SW 215 ° 0 min 0 W/m² 7,5 °C 10,6 °C 14,5 km/h (3 Bft)
25.01.2025 16:57 21,8 °C 13,1 °C 51 % 69 % 1006,3 hPa 0,0 l/m² 13,6 km/h (3 Bft) SW 219 ° 0 min 0 W/m² 7,5 °C 9,4 °C 16,1 km/h (3 Bft)
25.01.2025 16:58 21,8 °C 13,1 °C 51 % 70 % 1006,3 hPa 0,0 l/m² 13,5 km/h (3 Bft) SW 219 ° 0 min 0 W/m² 7,8 °C 9,5 °C 16,1 km/h (3 Bft)
25.01.2025 16:59 21,8 °C 13,1 °C 51 % 70 % 1006,4 hPa 0,0 l/m² 12,5 km/h (2 Bft) S-SW 209 ° 0 min 0 W/m² 7,8 °C 9,9 °C 14,5 km/h (3 Bft)
25.01.2025 17:01 21,8 °C 13,1 °C 51 % 70 % 1006,4 hPa 0,0 l/m² 12,1 km/h (2 Bft) S-SW 211 ° 0 min 0 W/m² 7,8 °C 10,0 °C 16,1 km/h (3 Bft)
25.01.2025 17:03 21,8 °C 13,0 °C 51 % 71 % 1006,5 hPa 0,0 l/m² 11,6 km/h (2 Bft) SW 226 ° 0 min 0 W/m² 7,9 °C 10,1 °C 17,7 km/h (3 Bft)
25.01.2025 17:04 21,8 °C 12,9 °C 51 % 71 % 1006,5 hPa 0,0 l/m² 12,9 km/h (3 Bft) S-SW 213 ° 0 min 0 W/m² 7,8 °C 9,5 °C 14,5 km/h (3 Bft)
25.01.2025 17:05 21,8 °C 13,0 °C 51 % 71 % 1006,6 hPa 0,0 l/m² 12,6 km/h (3 Bft) SW 223 ° 0 min 0 W/m² 7,9 °C 9,7 °C 16,1 km/h (3 Bft)
25.01.2025 17:06 21,8 °C 12,9 °C 51 % 71 % 1006,5 hPa 0,0 l/m² 13,0 km/h (3 Bft) SW 217 ° 0 min 0 W/m² 7,8 °C 9,4 °C 19,3 km/h (3 Bft)
25.01.2025 17:07 21,8 °C 12,9 °C 51 % 71 % 1006,5 hPa 0,0 l/m² 12,4 km/h (2 Bft) SW 223 ° 0 min 0 W/m² 7,8 °C 9,7 °C 16,1 km/h (3 Bft)
25.01.2025 17:08 21,8 °C 12,9 °C 51 % 71 % 1006,6 hPa 0,0 l/m² 12,4 km/h (2 Bft) SW 215 ° 0 min 0 W/m² 7,8 °C 9,7 °C 17,7 km/h (3 Bft)
25.01.2025 17:09 21,8 °C 12,9 °C 51 % 71 % 1006,6 hPa 0,0 l/m² 11,9 km/h (2 Bft) SW 215 ° 0 min 0 W/m² 7,8 °C 9,9 °C 14,5 km/h (3 Bft)
25.01.2025 17:11 21,8 °C 12,9 °C 51 % 71 % 1006,6 hPa 0,0 l/m² 10,8 km/h (2 Bft) SW 232 ° 0 min 0 W/m² 7,8 °C 10,4 °C 14,5 km/h (3 Bft)
25.01.2025 17:13 21,8 °C 12,9 °C 51 % 71 % 1006,6 hPa 0,0 l/m² 10,6 km/h (2 Bft) W 259 ° 0 min 0 W/m² 7,8 °C 10,5 °C 14,5 km/h (3 Bft)
25.01.2025 17:14 21,8 °C 12,9 °C 51 % 71 % 1006,6 hPa 0,0 l/m² 9,0 km/h (2 Bft) SW 225 ° 0 min 0 W/m² 7,8 °C 11,3 °C 11,3 km/h (2 Bft)
25.01.2025 17:15 21,8 °C 12,9 °C 51 % 71 % 1006,6 hPa 0,0 l/m² 7,1 km/h (2 Bft) SW 223 ° 0 min 0 W/m² 7,8 °C 12,5 °C 11,3 km/h (2 Bft)
25.01.2025 17:16 21,8 °C 12,9 °C 51 % 71 % 1006,6 hPa 0,0 l/m² 7,7 km/h (2 Bft) SW 223 ° 0 min 0 W/m² 7,8 °C 12,1 °C 11,3 km/h (2 Bft)
25.01.2025 17:17 21,8 °C 12,9 °C 51 % 71 % 1006,5 hPa 0,0 l/m² 8,6 km/h (2 Bft) SW 221 ° 0 min 0 W/m² 7,8 °C 11,5 °C 11,3 km/h (2 Bft)
25.01.2025 17:18 21,8 °C 12,9 °C 51 % 72 % 1006,6 hPa 0,0 l/m² 8,9 km/h (2 Bft) SW 223 ° 0 min 0 W/m² 8,0 °C 11,4 °C 11,3 km/h (2 Bft)
25.01.2025 17:19 21,8 °C 12,8 °C 51 % 72 % 1006,6 hPa 0,0 l/m² 7,6 km/h (2 Bft) SW 232 ° 0 min 0 W/m² 7,9 °C 12,0 °C 11,3 km/h (2 Bft)
25.01.2025 17:21 21,8 °C 12,8 °C 51 % 72 % 1006,7 hPa 0,0 l/m² 8,1 km/h (2 Bft) SW 221 ° 0 min 0 W/m² 7,9 °C 11,7 °C 11,3 km/h (2 Bft)
25.01.2025 17:23 21,8 °C 12,8 °C 53 % 72 % 1006,6 hPa 0,0 l/m² 8,8 km/h (2 Bft) SW 217 ° 0 min 0 W/m² 7,9 °C 11,3 °C 12,9 km/h (3 Bft)
25.01.2025 17:24 21,8 °C 12,8 °C 53 % 72 % 1006,6 hPa 0,0 l/m² 9,0 km/h (2 Bft) SW 219 ° 0 min 0 W/m² 7,9 °C 11,2 °C 11,3 km/h (2 Bft)
25.01.2025 17:25 21,8 °C 12,8 °C 53 % 72 % 1006,7 hPa 0,0 l/m² 8,8 km/h (2 Bft) SW 221 ° 0 min 0 W/m² 7,9 °C 11,3 °C 12,9 km/h (3 Bft)
25.01.2025 17:26 21,8 °C 12,8 °C 53 % 72 % 1006,7 hPa 0,0 l/m² 8,0 km/h (2 Bft) SW 224 ° 0 min 0 W/m² 7,9 °C 11,8 °C 9,7 km/h (2 Bft)
25.01.2025 17:27 21,8 °C 12,8 °C 53 % 72 % 1006,7 hPa 0,0 l/m² 7,4 km/h (2 Bft) SW 226 ° 0 min 0 W/m² 7,9 °C 12,2 °C 9,7 km/h (2 Bft)
25.01.2025 17:28 21,8 °C 12,8 °C 53 % 72 % 1006,7 hPa 0,0 l/m² 7,4 km/h (2 Bft) SW 227 ° 0 min 0 W/m² 7,9 °C 12,2 °C 9,7 km/h (2 Bft)
25.01.2025 17:29 21,9 °C 12,7 °C 53 % 72 % 1006,8 hPa 0,0 l/m² 7,0 km/h (2 Bft) SW 226 ° 0 min 0 W/m² 7,8 °C 12,3 °C 8,0 km/h (2 Bft)
25.01.2025 17:31 21,9 °C 12,7 °C 53 % 73 % 1006,8 hPa 0,0 l/m² 8,8 km/h (2 Bft) SW 217 ° 0 min 0 W/m² 8,0 °C 11,2 °C 12,9 km/h (3 Bft)
25.01.2025 17:33 21,9 °C 12,7 °C 54 % 72 % 1006,8 hPa 0,0 l/m² 11,3 km/h (2 Bft) SW 223 ° 0 min 0 W/m² 7,8 °C 9,9 °C 17,7 km/h (3 Bft)
25.01.2025 17:34 21,9 °C 12,7 °C 54 % 73 % 1006,8 hPa 0,0 l/m² 11,0 km/h (2 Bft) SW 218 ° 0 min 0 W/m² 8,0 °C 10,1 °C 14,5 km/h (3 Bft)
25.01.2025 17:35 21,9 °C 12,6 °C 54 % 73 % 1006,9 hPa 0,0 l/m² 8,5 km/h (2 Bft) SW 225 ° 0 min 0 W/m² 7,9 °C 11,3 °C 9,7 km/h (2 Bft)
25.01.2025 17:36 21,9 °C 12,6 °C 54 % 73 % 1006,9 hPa 0,0 l/m² 11,0 km/h (2 Bft) SW 225 ° 0 min 0 W/m² 7,9 °C 10,0 °C 12,9 km/h (3 Bft)
25.01.2025 17:37 21,9 °C 12,6 °C 54 % 73 % 1006,8 hPa 0,0 l/m² 7,2 km/h (2 Bft) SW 219 ° 0 min 0 W/m² 7,9 °C 12,1 °C 9,7 km/h (2 Bft)
25.01.2025 17:38 21,9 °C 12,6 °C 54 % 73 % 1006,9 hPa 0,0 l/m² 8,8 km/h (2 Bft) SW 215 ° 0 min 0 W/m² 7,9 °C 11,1 °C 11,3 km/h (2 Bft)
25.01.2025 17:39 21,9 °C 12,6 °C 54 % 73 % 1006,8 hPa 0,0 l/m² 8,9 km/h (2 Bft) S-SW 210 ° 0 min 0 W/m² 7,9 °C 11,1 °C 11,3 km/h (2 Bft)
25.01.2025 17:41 21,9 °C 12,6 °C 54 % 73 % 1006,8 hPa 0,0 l/m² 8,9 km/h (2 Bft) S-SW 200 ° 0 min 0 W/m² 7,9 °C 11,1 °C 14,5 km/h (3 Bft)
25.01.2025 17:43 21,9 °C 12,6 °C 54 % 73 % 1006,9 hPa 0,0 l/m² 9,9 km/h (2 Bft) SW 215 ° 0 min 0 W/m² 7,9 °C 10,5 °C 16,1 km/h (3 Bft)
25.01.2025 17:44 21,9 °C 12,5 °C 54 % 73 % 1006,9 hPa 0,0 l/m² 11,9 km/h (2 Bft) SW 217 ° 0 min 0 W/m² 7,8 °C 9,4 °C 17,7 km/h (3 Bft)
25.01.2025 17:45 21,9 °C 12,5 °C 54 % 73 % 1006,9 hPa 0,0 l/m² 10,1 km/h (2 Bft) SW 229 ° 0 min 0 W/m² 7,8 °C 10,3 °C 12,9 km/h (3 Bft)
25.01.2025 17:46 21,9 °C 12,5 °C 54 % 73 % 1007,0 hPa 0,0 l/m² 10,6 km/h (2 Bft) SW 214 ° 0 min 0 W/m² 7,8 °C 10,1 °C 12,9 km/h (3 Bft)
25.01.2025 17:47 21,9 °C 12,5 °C 54 % 73 % 1006,9 hPa 0,0 l/m² 10,1 km/h (2 Bft) SW 220 ° 0 min 0 W/m² 7,8 °C 10,3 °C 12,9 km/h (3 Bft)
25.01.2025 17:48 21,9 °C 12,5 °C 54 % 73 % 1006,9 hPa 0,0 l/m² 10,5 km/h (2 Bft) SW 216 ° 0 min 0 W/m² 7,8 °C 10,1 °C 12,9 km/h (3 Bft)
25.01.2025 17:49 21,9 °C 12,5 °C 54 % 73 % 1006,9 hPa 0,0 l/m² 10,9 km/h (2 Bft) SW 215 ° 0 min 0 W/m² 7,8 °C 9,9 °C 12,9 km/h (3 Bft)
25.01.2025 17:51 21,9 °C 12,4 °C 54 % 73 % 1006,9 hPa 0,0 l/m² 9,9 km/h (2 Bft) SW 231 ° 0 min 0 W/m² 7,7 °C 10,3 °C 17,7 km/h (3 Bft)
25.01.2025 17:53 21,9 °C 12,5 °C 54 % 74 % 1006,8 hPa 0,0 l/m² 8,8 km/h (2 Bft) SW 224 ° 0 min 0 W/m² 8,0 °C 11,0 °C 12,9 km/h (3 Bft)
25.01.2025 17:54 21,9 °C 12,4 °C 54 % 74 % 1006,9 hPa 0,0 l/m² 8,1 km/h (2 Bft) SW 226 ° 0 min 0 W/m² 7,9 °C 11,3 °C 11,3 km/h (2 Bft)
25.01.2025 17:55 21,9 °C 12,4 °C 54 % 74 % 1006,9 hPa 0,0 l/m² 7,3 km/h (2 Bft) SW 226 ° 0 min 0 W/m² 7,9 °C 11,8 °C 11,3 km/h (2 Bft)
25.01.2025 17:56 21,9 °C 12,4 °C 54 % 74 % 1006,9 hPa 0,0 l/m² 10,1 km/h (2 Bft) SW 219 ° 0 min 0 W/m² 7,9 °C 10,2 °C 12,9 km/h (3 Bft)
25.01.2025 17:57 21,9 °C 12,4 °C 54 % 74 % 1006,9 hPa 0,0 l/m² 9,0 km/h (2 Bft) SW 225 ° 0 min 0 W/m² 7,9 °C 10,8 °C 11,3 km/h (2 Bft)
25.01.2025 17:58 21,9 °C 12,4 °C 54 % 73 % 1006,8 hPa 0,0 l/m² 8,0 km/h (2 Bft) SW 219 ° 0 min 0 W/m² 7,7 °C 11,4 °C 9,7 km/h (2 Bft)
25.01.2025 17:59 21,9 °C 12,4 °C 54 % 74 % 1006,9 hPa 0,0 l/m² 8,6 km/h (2 Bft) SW 235 ° 0 min 0 W/m² 7,9 °C 11,0 °C 11,3 km/h (2 Bft)
25.01.2025 18:01 21,9 °C 12,4 °C 54 % 74 % 1007,0 hPa 0,0 l/m² 8,5 km/h (2 Bft) SW 228 ° 0 min 0 W/m² 7,9 °C 11,1 °C 12,9 km/h (3 Bft)
25.01.2025 18:02 21,9 °C 12,4 °C 54 % 74 % 1007,0 hPa 0,0 l/m² 8,6 km/h (2 Bft) SW 220 ° 0 min 0 W/m² 7,9 °C 11,0 °C 11,3 km/h (2 Bft)
25.01.2025 18:03 21,9 °C 12,4 °C 54 % 74 % 1006,9 hPa 0,0 l/m² 9,8 km/h (2 Bft) S-SW 196 ° 0 min 0 W/m² 7,9 °C 10,4 °C 14,5 km/h (3 Bft)
25.01.2025 18:04 21,9 °C 12,4 °C 54 % 74 % 1006,9 hPa 0,0 l/m² 7,1 km/h (2 Bft) S-SW 210 ° 0 min 0 W/m² 7,9 °C 11,9 °C 9,7 km/h (2 Bft)
25.01.2025 18:05 21,9 °C 12,4 °C 54 % 74 % 1007,0 hPa 0,0 l/m² 7,6 km/h (2 Bft) SW 215 ° 0 min 0 W/m² 7,9 °C 11,6 °C 9,7 km/h (2 Bft)
25.01.2025 18:06 21,9 °C 12,4 °C 54 % 74 % 1007,0 hPa 0,0 l/m² 6,1 km/h (2 Bft) SW 214 ° 0 min 0 W/m² 7,9 °C 12,4 °C 8,0 km/h (2 Bft)
25.01.2025 18:07 21,9 °C 12,4 °C 54 % 74 % 1007,1 hPa 0,0 l/m² 8,0 km/h (2 Bft) S-SW 203 ° 0 min 0 W/m² 7,9 °C 11,4 °C 11,3 km/h (2 Bft)
25.01.2025 18:08 21,9 °C 12,4 °C 54 % 74 % 1007,1 hPa 0,0 l/m² 6,8 km/h (2 Bft) S-SW 203 ° 0 min 0 W/m² 7,9 °C 12,1 °C 8,0 km/h (2 Bft)
25.01.2025 18:09 21,9 °C 12,4 °C 54 % 74 % 1007,1 hPa 0,0 l/m² 7,6 km/h (2 Bft) S-SW 204 ° 0 min 0 W/m² 7,9 °C 11,6 °C 9,7 km/h (2 Bft)
25.01.2025 18:11 21,9 °C 12,4 °C 55 % 74 % 1007,1 hPa 0,0 l/m² 7,6 km/h (2 Bft) S-SW 202 ° 0 min 0 W/m² 7,9 °C 11,6 °C 11,3 km/h (2 Bft)
25.01.2025 18:13 21,9 °C 12,3 °C 55 % 74 % 1007,2 hPa 0,0 l/m² 8,1 km/h (2 Bft) S-SW 203 ° 0 min 0 W/m² 7,8 °C 11,2 °C 11,3 km/h (2 Bft)
25.01.2025 18:14 21,9 °C 12,3 °C 55 % 74 % 1007,1 hPa 0,0 l/m² 6,5 km/h (2 Bft) S-SW 207 ° 0 min 0 W/m² 7,8 °C 12,3 °C 8,0 km/h (2 Bft)
25.01.2025 18:15 21,9 °C 12,3 °C 55 % 74 % 1007,2 hPa 0,0 l/m² 6,9 km/h (2 Bft) S-SW 211 ° 0 min 0 W/m² 7,8 °C 12,0 °C 8,0 km/h (2 Bft)
25.01.2025 18:16 21,9 °C 12,3 °C 55 % 74 % 1007,2 hPa 0,0 l/m² 6,0 km/h (2 Bft) S-SW 213 ° 0 min 0 W/m² 7,8 °C 12,3 °C 8,0 km/h (2 Bft)
25.01.2025 18:17 21,9 °C 12,3 °C 55 % 74 % 1007,2 hPa 0,0 l/m² 7,0 km/h (2 Bft) SW 217 ° 0 min 0 W/m² 7,8 °C 11,9 °C 9,7 km/h (2 Bft)
25.01.2025 18:18 21,9 °C 12,3 °C 55 % 74 % 1007,2 hPa 0,0 l/m² 6,4 km/h (2 Bft) SW 217 ° 0 min 0 W/m² 7,8 °C 12,3 °C 8,0 km/h (2 Bft)
25.01.2025 18:19 21,9 °C 12,2 °C 55 % 74 % 1007,2 hPa 0,0 l/m² 5,0 km/h (1 Bft) SW 217 ° 0 min 0 W/m² 7,7 °C 12,2 °C 6,4 km/h (2 Bft)
25.01.2025 18:21 21,9 °C 12,3 °C 56 % 74 % 1007,3 hPa 0,0 l/m² 4,6 km/h (1 Bft) SW 217 ° 0 min 0 W/m² 7,8 °C 12,3 °C 6,4 km/h (2 Bft)
25.01.2025 18:23 21,9 °C 12,2 °C 55 % 74 % 1007,3 hPa 0,0 l/m² 4,1 km/h (1 Bft) SW 217 ° 0 min 0 W/m² 7,7 °C 12,2 °C 6,4 km/h (2 Bft)
25.01.2025 18:24 21,9 °C 12,2 °C 55 % 74 % 1007,3 hPa 0,0 l/m² 3,6 km/h (1 Bft) SW 217 ° 0 min 0 W/m² 7,7 °C 12,2 °C 4,8 km/h (1 Bft)
25.01.2025 18:25 21,9 °C 12,2 °C 55 % 74 % 1007,4 hPa 0,0 l/m² 3,6 km/h (1 Bft) SW 217 ° 0 min 0 W/m² 7,7 °C 12,2 °C 4,8 km/h (1 Bft)
25.01.2025 18:26 22,0 °C 12,2 °C 55 % 74 % 1007,3 hPa 0,0 l/m² 2,4 km/h (1 Bft) SW 217 ° 0 min 0 W/m² 7,7 °C 12,2 °C 3,2 km/h (1 Bft)
25.01.2025 18:27 22,0 °C 12,2 °C 55 % 74 % 1007,4 hPa 0,0 l/m² 2,7 km/h (1 Bft) SW 217 ° 0 min 0 W/m² 7,7 °C 12,2 °C 4,8 km/h (1 Bft)
25.01.2025 18:28 22,0 °C 12,2 °C 55 % 74 % 1007,5 hPa 0,0 l/m² 3,6 km/h (1 Bft) SW 217 ° 0 min 0 W/m² 7,7 °C 12,2 °C 4,8 km/h (1 Bft)
25.01.2025 18:29 22,0 °C 12,2 °C 55 % 74 % 1007,5 hPa 0,0 l/m² 2,1 km/h (1 Bft) SW 217 ° 0 min 0 W/m² 7,7 °C 12,2 °C 4,8 km/h (1 Bft)
25.01.2025 18:31 22,0 °C 12,2 °C 56 % 74 % 1007,4 hPa 0,0 l/m² 0,0 km/h (0 Bft) SW 217 ° 0 min 0 W/m² 7,7 °C 12,2 °C 0,0 km/h (0 Bft)
25.01.2025 18:33 22,0 °C 12,2 °C 56 % 74 % 1007,6 hPa 0,0 l/m² 0,0 km/h (0 Bft) SW 217 ° 0 min 0 W/m² 7,7 °C 12,2 °C 0,0 km/h (0 Bft)
25.01.2025 18:34 22,0 °C 12,2 °C 56 % 75 % 1007,6 hPa 0,0 l/m² 0,0 km/h (0 Bft) SW 217 ° 0 min 0 W/m² 7,9 °C 12,2 °C 0,0 km/h (0 Bft)
25.01.2025 18:35 22,0 °C 12,2 °C 56 % 75 % 1007,6 hPa 0,0 l/m² 0,0 km/h (0 Bft) SW 217 ° 0 min 0 W/m² 7,9 °C 12,2 °C 0,0 km/h (0 Bft)
25.01.2025 18:36 22,0 °C 12,2 °C 56 % 74 % 1007,7 hPa 0,0 l/m² 0,0 km/h (0 Bft) SW 217 ° 0 min 0 W/m² 7,7 °C 12,2 °C 0,0 km/h (0 Bft)
25.01.2025 18:37 22,0 °C 12,2 °C 56 % 75 % 1007,7 hPa 0,0 l/m² 0,0 km/h (0 Bft) SW 217 ° 0 min 0 W/m² 7,9 °C 12,2 °C 0,0 km/h (0 Bft)
25.01.2025 18:38 22,0 °C 12,2 °C 55 % 75 % 1007,7 hPa 0,0 l/m² 0,0 km/h (0 Bft) SW 217 ° 0 min 0 W/m² 7,9 °C 12,2 °C 0,0 km/h (0 Bft)
25.01.2025 18:39 22,0 °C 12,2 °C 55 % 75 % 1007,7 hPa 0,0 l/m² 0,0 km/h (0 Bft) SW 217 ° 0 min 0 W/m² 7,9 °C 12,2 °C 0,0 km/h (0 Bft)
25.01.2025 18:41 21,9 °C 12,2 °C 55 % 75 % 1007,8 hPa 0,0 l/m² 0,0 km/h (0 Bft) SW 217 ° 0 min 0 W/m² 7,9 °C 12,2 °C 0,0 km/h (0 Bft)
25.01.2025 18:43 22,0 °C 12,2 °C 55 % 75 % 1007,8 hPa 0,0 l/m² 0,0 km/h (0 Bft) SW 217 ° 0 min 0 W/m² 7,9 °C 12,2 °C 0,0 km/h (0 Bft)
25.01.2025 18:45 22,0 °C 12,1 °C 55 % 75 % 1007,8 hPa 0,0 l/m² 0,0 km/h (0 Bft) SW 217 ° 0 min 0 W/m² 7,8 °C 12,1 °C 0,0 km/h (0 Bft)
25.01.2025 18:46 22,0 °C 12,1 °C 55 % 75 % 1007,8 hPa 0,0 l/m² 0,0 km/h (0 Bft) SW 217 ° 0 min 0 W/m² 7,8 °C 12,1 °C 0,0 km/h (0 Bft)
25.01.2025 18:47 21,9 °C 12,1 °C 55 % 75 % 1007,8 hPa 0,0 l/m² 0,0 km/h (0 Bft) SW 217 ° 0 min 0 W/m² 7,8 °C 12,1 °C 0,0 km/h (0 Bft)
25.01.2025 18:48 21,9 °C 12,1 °C 55 % 75 % 1007,8 hPa 0,0 l/m² 0,0 km/h (0 Bft) SW 217 ° 0 min 0 W/m² 7,8 °C 12,1 °C 0,0 km/h (0 Bft)
25.01.2025 18:49 21,9 °C 12,1 °C 55 % 75 % 1007,7 hPa 0,0 l/m² 0,0 km/h (0 Bft) SW 217 ° 0 min 0 W/m² 7,8 °C 12,1 °C 0,0 km/h (0 Bft)
25.01.2025 18:51 21,9 °C 12,1 °C 55 % 75 % 1007,7 hPa 0,0 l/m² 0,0 km/h (0 Bft) SW 217 ° 0 min 0 W/m² 7,8 °C 12,1 °C 0,0 km/h (0 Bft)
25.01.2025 18:52 21,9 °C 12,1 °C 55 % 75 % 1007,8 hPa 0,0 l/m² 0,0 km/h (0 Bft) SW 217 ° 0 min 0 W/m² 7,8 °C 12,1 °C 0,0 km/h (0 Bft)
25.01.2025 18:53 21,9 °C 12,1 °C 55 % 75 % 1007,8 hPa 0,0 l/m² 0,0 km/h (0 Bft) SW 217 ° 0 min 0 W/m² 7,8 °C 12,1 °C 0,0 km/h (0 Bft)
25.01.2025 18:54 21,9 °C 12,1 °C 55 % 75 % 1007,8 hPa 0,0 l/m² 0,0 km/h (0 Bft) SW 217 ° 0 min 0 W/m² 7,8 °C 12,1 °C 0,0 km/h (0 Bft)
25.01.2025 18:55 21,9 °C 12,1 °C 56 % 75 % 1007,8 hPa 0,0 l/m² 0,0 km/h (0 Bft) SW 217 ° 0 min 0 W/m² 7,8 °C 12,1 °C 0,0 km/h (0 Bft)
25.01.2025 18:56 21,9 °C 12,0 °C 56 % 74 % 1007,7 hPa 0,0 l/m² 0,0 km/h (0 Bft) SW 217 ° 0 min 0 W/m² 7,5 °C 12,0 °C 0,0 km/h (0 Bft)
25.01.2025 18:57 22,0 °C 12,0 °C 56 % 74 % 1007,8 hPa 0,0 l/m² 0,0 km/h (0 Bft) SW 217 ° 0 min 0 W/m² 7,5 °C 12,0 °C 0,0 km/h (0 Bft)
25.01.2025 18:58 22,0 °C 12,0 °C 56 % 74 % 1007,8 hPa 0,0 l/m² 0,0 km/h (0 Bft) SW 217 ° 0 min 0 W/m² 7,5 °C 12,0 °C 0,0 km/h (0 Bft)
25.01.2025 18:59 22,0 °C 11,9 °C 56 % 74 % 1007,7 hPa 0,0 l/m² 0,0 km/h (0 Bft) SW 217 ° 0 min 0 W/m² 7,4 °C 11,9 °C 0,0 km/h (0 Bft)
25.01.2025 19:01 22,0 °C 11,9 °C 56 % 75 % 1007,8 hPa 0,0 l/m² 0,0 km/h (0 Bft) SW 217 ° 0 min 0 W/m² 7,6 °C 11,9 °C 0,0 km/h (0 Bft)
25.01.2025 19:03 22,0 °C 11,9 °C 56 % 75 % 1007,7 hPa 0,0 l/m² 0,0 km/h (0 Bft) SW 217 ° 0 min 0 W/m² 7,6 °C 11,9 °C 0,0 km/h (0 Bft)
25.01.2025 19:04 22,0 °C 11,9 °C 56 % 75 % 1007,8 hPa 0,0 l/m² 0,0 km/h (0 Bft) SW 217 ° 0 min 0 W/m² 7,6 °C 11,9 °C 0,0 km/h (0 Bft)
25.01.2025 19:05 22,0 °C 11,8 °C 56 % 75 % 1007,8 hPa 0,0 l/m² 0,0 km/h (0 Bft) SW 217 ° 0 min 0 W/m² 7,5 °C 11,8 °C 0,0 km/h (0 Bft)
25.01.2025 19:06 22,0 °C 11,8 °C 56 % 75 % 1007,7 hPa 0,0 l/m² 0,0 km/h (0 Bft) SW 217 ° 0 min 0 W/m² 7,5 °C 11,8 °C 0,0 km/h (0 Bft)
25.01.2025 19:07 22,1 °C 11,8 °C 56 % 75 % 1007,8 hPa 0,0 l/m² 0,0 km/h (0 Bft) SW 217 ° 0 min 0 W/m² 7,5 °C 11,8 °C 0,0 km/h (0 Bft)
25.01.2025 19:08 22,1 °C 11,8 °C 56 % 75 % 1007,8 hPa 0,0 l/m² 0,0 km/h (0 Bft) SW 217 ° 0 min 0 W/m² 7,5 °C 11,8 °C 0,0 km/h (0 Bft)
25.01.2025 19:09 22,1 °C 11,8 °C 56 % 75 % 1007,9 hPa 0,0 l/m² 0,0 km/h (0 Bft) SW 217 ° 0 min 0 W/m² 7,5 °C 11,8 °C 0,0 km/h (0 Bft)
25.01.2025 19:11 22,1 °C 11,7 °C 56 % 75 % 1007,8 hPa 0,0 l/m² 0,0 km/h (0 Bft) SW 217 ° 0 min 0 W/m² 7,4 °C 11,7 °C 0,0 km/h (0 Bft)
25.01.2025 19:13 22,1 °C 11,7 °C 56 % 75 % 1007,8 hPa 0,0 l/m² 0,0 km/h (0 Bft) SW 217 ° 0 min 0 W/m² 7,4 °C 11,7 °C 0,0 km/h (0 Bft)
25.01.2025 19:14 22,1 °C 11,7 °C 56 % 75 % 1007,8 hPa 0,0 l/m² 0,0 km/h (0 Bft) SW 217 ° 0 min 0 W/m² 7,4 °C 11,7 °C 0,0 km/h (0 Bft)
25.01.2025 19:15 22,1 °C 11,7 °C 56 % 75 % 1007,9 hPa 0,0 l/m² 0,0 km/h (0 Bft) SW 217 ° 0 min 0 W/m² 7,4 °C 11,7 °C 0,0 km/h (0 Bft)
25.01.2025 19:16 22,1 °C 11,6 °C 56 % 76 % 1007,9 hPa 0,0 l/m² 0,0 km/h (0 Bft) SW 217 ° 0 min 0 W/m² 7,5 °C 11,6 °C 0,0 km/h (0 Bft)
25.01.2025 19:17 22,1 °C 11,6 °C 56 % 76 % 1007,9 hPa 0,0 l/m² 0,0 km/h (0 Bft) SW 217 ° 0 min 0 W/m² 7,5 °C 11,6 °C 0,0 km/h (0 Bft)
25.01.2025 19:18 22,1 °C 11,6 °C 56 % 76 % 1008,0 hPa 0,0 l/m² 0,0 km/h (0 Bft) SW 217 ° 0 min 0 W/m² 7,5 °C 11,6 °C 0,0 km/h (0 Bft)
25.01.2025 19:19 22,1 °C 11,6 °C 56 % 76 % 1007,9 hPa 0,0 l/m² 0,0 km/h (0 Bft) SW 217 ° 0 min 0 W/m² 7,5 °C 11,6 °C 0,0 km/h (0 Bft)
25.01.2025 19:21 22,1 °C 11,5 °C 56 % 76 % 1008,0 hPa 0,0 l/m² 0,0 km/h (0 Bft) SW 217 ° 0 min 0 W/m² 7,4 °C 11,5 °C 0,0 km/h (0 Bft)
25.01.2025 19:23 22,2 °C 11,4 °C 56 % 76 % 1008,2 hPa 0,0 l/m² 2,8 km/h (1 Bft) NW 308 ° 0 min 0 W/m² 7,3 °C 11,4 °C 8,0 km/h (2 Bft)
25.01.2025 19:24 22,1 °C 11,3 °C 56 % 76 % 1008,3 hPa 0,0 l/m² 8,9 km/h (2 Bft) NW 304 ° 0 min 0 W/m² 7,2 °C 9,7 °C 14,5 km/h (3 Bft)
25.01.2025 19:25 22,1 °C 11,3 °C 56 % 77 % 1008,3 hPa 0,0 l/m² 11,1 km/h (2 Bft) NW 318 ° 0 min 0 W/m² 7,4 °C 8,5 °C 19,3 km/h (3 Bft)
25.01.2025 19:26 22,1 °C 11,3 °C 56 % 78 % 1008,3 hPa 0,0 l/m² 11,3 km/h (2 Bft) NW 311 ° 0 min 0 W/m² 7,6 °C 8,4 °C 19,3 km/h (3 Bft)
25.01.2025 19:27 22,1 °C 11,2 °C 56 % 78 % 1008,3 hPa 0,0 l/m² 7,2 km/h (2 Bft) NW 317 ° 0 min 0 W/m² 7,5 °C 10,6 °C 9,7 km/h (2 Bft)
25.01.2025 19:28 22,2 °C 11,2 °C 56 % 78 % 1008,2 hPa 0,0 l/m² 9,5 km/h (2 Bft) W-NW 298 ° 0 min 0 W/m² 7,5 °C 9,2 °C 14,5 km/h (3 Bft)
25.01.2025 19:29 22,1 °C 11,2 °C 55 % 78 % 1008,3 hPa 0,0 l/m² 11,8 km/h (2 Bft) N-NW 340 ° 0 min 0 W/m² 7,5 °C 8,0 °C 17,7 km/h (3 Bft)
25.01.2025 19:31 22,2 °C 11,2 °C 55 % 79 % 1008,2 hPa 0,0 l/m² 13,1 km/h (3 Bft) N-NW 337 ° 0 min 0 W/m² 7,7 °C 7,4 °C 22,5 km/h (4 Bft)
25.01.2025 19:33 22,2 °C 11,1 °C 55 % 80 % 1008,1 hPa 0,0 l/m² 14,2 km/h (3 Bft) N-NW 338 ° 0 min 0 W/m² 7,8 °C 6,8 °C 19,3 km/h (3 Bft)
25.01.2025 19:34 22,2 °C 11,1 °C 56 % 80 % 1008,2 hPa 0,0 l/m² 16,0 km/h (3 Bft) NW 319 ° 0 min 0 W/m² 7,8 °C 6,1 °C 19,3 km/h (3 Bft)
25.01.2025 19:35 22,2 °C 11,0 °C 55 % 81 % 1008,1 hPa 0,0 l/m² 12,4 km/h (2 Bft) NW 321 ° 0 min 0 W/m² 7,9 °C 7,5 °C 17,7 km/h (3 Bft)
25.01.2025 19:36 22,1 °C 11,0 °C 55 % 81 % 1008,2 hPa 0,0 l/m² 12,3 km/h (2 Bft) N-NW 343 ° 0 min 0 W/m² 7,9 °C 7,5 °C 20,9 km/h (4 Bft)
25.01.2025 19:37 22,2 °C 10,9 °C 55 % 81 % 1008,2 hPa 0,0 l/m² 17,4 km/h (3 Bft) N-NW 340 ° 0 min 0 W/m² 7,8 °C 5,3 °C 24,1 km/h (4 Bft)
25.01.2025 19:38 22,2 °C 10,9 °C 55 % 81 % 1008,2 hPa 0,0 l/m² 14,2 km/h (3 Bft) N-NW 334 ° 0 min 0 W/m² 7,8 °C 6,6 °C 20,9 km/h (4 Bft)
25.01.2025 19:39 22,2 °C 10,9 °C 55 % 82 % 1008,2 hPa 0,0 l/m² 16,0 km/h (3 Bft) N-NW 329 ° 0 min 0 W/m² 7,9 °C 5,8 °C 24,1 km/h (4 Bft)
25.01.2025 19:41 22,2 °C 10,8 °C 55 % 82 % 1008,2 hPa 0,0 l/m² 11,7 km/h (2 Bft) N-NW 339 ° 0 min 0 W/m² 7,9 °C 7,6 °C 19,3 km/h (3 Bft)
25.01.2025 19:43 22,1 °C 10,7 °C 55 % 82 % 1008,3 hPa 0,0 l/m² 13,0 km/h (3 Bft) NW 326 ° 0 min 0 W/m² 7,8 °C 6,8 °C 20,9 km/h (4 Bft)
25.01.2025 19:44 22,2 °C 10,7 °C 55 % 82 % 1008,3 hPa 0,0 l/m² 13,1 km/h (3 Bft) N-NW 342 ° 0 min 0 W/m² 7,8 °C 6,8 °C 16,1 km/h (3 Bft)
25.01.2025 19:45 22,2 °C 10,7 °C 55 % 82 % 1008,3 hPa 0,0 l/m² 10,6 km/h (2 Bft) N-NW 335 ° 0 min 0 W/m² 7,8 °C 8,0 °C 17,7 km/h (3 Bft)
25.01.2025 19:46 22,1 °C 10,6 °C 55 % 83 % 1008,3 hPa 0,0 l/m² 10,8 km/h (2 Bft) N-NW 327 ° 0 min 0 W/m² 7,8 °C 7,8 °C 16,1 km/h (3 Bft)
25.01.2025 19:47 22,1 °C 10,6 °C 55 % 83 % 1008,2 hPa 0,0 l/m² 7,6 km/h (2 Bft) NW 323 ° 0 min 0 W/m² 7,8 °C 9,8 °C 9,7 km/h (2 Bft)
25.01.2025 19:48 22,1 °C 10,6 °C 55 % 83 % 1008,3 hPa 0,0 l/m² 8,6 km/h (2 Bft) N 350 ° 0 min 0 W/m² 7,8 °C 9,1 °C 16,1 km/h (3 Bft)
25.01.2025 19:49 22,1 °C 10,6 °C 55 % 83 % 1008,3 hPa 0,0 l/m² 11,0 km/h (2 Bft) N 355 ° 0 min 0 W/m² 7,8 °C 7,7 °C 16,1 km/h (3 Bft)
25.01.2025 19:51 22,1 °C 10,4 °C 55 % 83 % 1008,3 hPa 0,0 l/m² 11,4 km/h (2 Bft) N 350 ° 0 min 0 W/m² 7,6 °C 7,3 °C 17,7 km/h (3 Bft)
25.01.2025 19:53 22,1 °C 10,4 °C 55 % 83 % 1008,2 hPa 0,0 l/m² 14,7 km/h (3 Bft) NW 317 ° 0 min 0 W/m² 7,6 °C 5,7 °C 22,5 km/h (4 Bft)
25.01.2025 19:54 22,1 °C 10,3 °C 55 % 83 % 1008,2 hPa 0,0 l/m² 10,3 km/h (2 Bft) N 360 ° 0 min 0 W/m² 7,5 °C 7,8 °C 14,5 km/h (3 Bft)
25.01.2025 19:55 22,1 °C 10,3 °C 55 % 83 % 1008,2 hPa 0,0 l/m² 14,1 km/h (3 Bft) N-NW 327 ° 0 min 0 W/m² 7,5 °C 5,9 °C 22,5 km/h (4 Bft)
25.01.2025 19:56 22,1 °C 10,3 °C 55 % 83 % 1008,2 hPa 0,0 l/m² 11,7 km/h (2 Bft) W-NW 302 ° 0 min 0 W/m² 7,5 °C 7,0 °C 16,1 km/h (3 Bft)
25.01.2025 19:57 22,1 °C 10,3 °C 55 % 83 % 1008,2 hPa 0,0 l/m² 7,1 km/h (2 Bft) N-NW 338 ° 0 min 0 W/m² 7,5 °C 9,8 °C 16,1 km/h (3 Bft)
25.01.2025 19:58 22,1 °C 10,3 °C 55 % 83 % 1008,2 hPa 0,0 l/m² 10,7 km/h (2 Bft) NW 323 ° 0 min 0 W/m² 7,5 °C 7,5 °C 17,7 km/h (3 Bft)
25.01.2025 19:59 22,1 °C 10,2 °C 55 % 83 % 1008,2 hPa 0,0 l/m² 8,2 km/h (2 Bft) NW 323 ° 0 min 0 W/m² 7,4 °C 8,9 °C 12,9 km/h (3 Bft)
25.01.2025 20:01 22,1 °C 10,2 °C 55 % 84 % 1008,3 hPa 0,0 l/m² 9,3 km/h (2 Bft) N-NW 345 ° 0 min 0 W/m² 7,6 °C 8,2 °C 16,1 km/h (3 Bft)
25.01.2025 20:03 22,1 °C 10,1 °C 55 % 84 % 1008,2 hPa 0,0 l/m² 10,3 km/h (2 Bft) NW 315 ° 0 min 0 W/m² 7,5 °C 7,5 °C 16,1 km/h (3 Bft)
25.01.2025 20:04 22,1 °C 10,1 °C 55 % 84 % 1008,3 hPa 0,0 l/m² 8,4 km/h (2 Bft) NW 326 ° 0 min 0 W/m² 7,5 °C 8,7 °C 17,7 km/h (3 Bft)
25.01.2025 20:05 22,1 °C 10,1 °C 55 % 84 % 1008,3 hPa 0,0 l/m² 7,4 km/h (2 Bft) N-NW 344 ° 0 min 0 W/m² 7,5 °C 9,4 °C 12,9 km/h (3 Bft)
25.01.2025 20:06 22,1 °C 10,1 °C 55 % 84 % 1008,3 hPa 0,0 l/m² 4,3 km/h (1 Bft) NW 311 ° 0 min 0 W/m² 7,5 °C 10,1 °C 8,0 km/h (2 Bft)
25.01.2025 20:08 22,1 °C 10,0 °C 55 % 84 % 1008,2 hPa 0,0 l/m² 7,6 km/h (2 Bft) N-NW 337 ° 0 min 0 W/m² 7,4 °C 9,1 °C 12,9 km/h (3 Bft)
25.01.2025 20:09 22,1 °C 10,0 °C 55 % 84 % 1008,2 hPa 0,0 l/m² 1,0 km/h (0 Bft) N-NW 335 ° 0 min 0 W/m² 7,4 °C 10,0 °C 4,8 km/h (1 Bft)
25.01.2025 20:11 22,1 °C 10,0 °C 55 % 84 % 1008,3 hPa 0,0 l/m² 1,5 km/h (1 Bft) NW 320 ° 0 min 0 W/m² 7,4 °C 10,0 °C 4,8 km/h (1 Bft)
25.01.2025 20:13 22,1 °C 9,9 °C 55 % 84 % 1008,3 hPa 0,0 l/m² 5,0 km/h (1 Bft) N 355 ° 0 min 0 W/m² 7,3 °C 9,9 °C 9,7 km/h (2 Bft)
25.01.2025 20:14 22,1 °C 9,9 °C 55 % 84 % 1008,3 hPa 0,0 l/m² 4,8 km/h (1 Bft) N-NW 340 ° 0 min 0 W/m² 7,3 °C 9,9 °C 8,0 km/h (2 Bft)
25.01.2025 20:15 22,1 °C 9,9 °C 55 % 84 % 1008,3 hPa 0,0 l/m² 5,6 km/h (2 Bft) N 11 ° 0 min 0 W/m² 7,3 °C 9,9 °C 8,0 km/h (2 Bft)
25.01.2025 20:17 22,1 °C 9,8 °C 55 % 84 % 1008,4 hPa 0,0 l/m² 3,6 km/h (1 Bft) N-NW 347 ° 0 min 0 W/m² 7,2 °C 9,8 °C 6,4 km/h (2 Bft)
25.01.2025 20:18 22,1 °C 9,8 °C 55 % 84 % 1008,4 hPa 0,0 l/m² 3,8 km/h (1 Bft) N-NW 334 ° 0 min 0 W/m² 7,2 °C 9,8 °C 6,4 km/h (2 Bft)
25.01.2025 20:19 22,1 °C 9,8 °C 55 % 84 % 1008,4 hPa 0,0 l/m² 4,6 km/h (1 Bft) N-NW 334 ° 0 min 0 W/m² 7,2 °C 9,8 °C 6,4 km/h (2 Bft)
25.01.2025 20:21 22,1 °C 9,8 °C 55 % 84 % 1008,5 hPa 0,0 l/m² 4,3 km/h (1 Bft) NW 326 ° 0 min 0 W/m² 7,2 °C 9,8 °C 8,0 km/h (2 Bft)
25.01.2025 20:23 22,1 °C 9,8 °C 55 % 84 % 1008,5 hPa 0,0 l/m² 4,2 km/h (1 Bft) N-NW 332 ° 0 min 0 W/m² 7,2 °C 9,8 °C 8,0 km/h (2 Bft)
25.01.2025 20:24 22,1 °C 9,7 °C 55 % 84 % 1008,4 hPa 0,0 l/m² 4,0 km/h (1 Bft) N-NW 338 ° 0 min 0 W/m² 7,1 °C 9,7 °C 4,8 km/h (1 Bft)
25.01.2025 20:25 22,1 °C 9,7 °C 55 % 84 % 1008,5 hPa 0,0 l/m² 4,3 km/h (1 Bft) N-NW 338 ° 0 min 0 W/m² 7,1 °C 9,7 °C 8,0 km/h (2 Bft)
25.01.2025 20:26 22,1 °C 9,7 °C 55 % 84 % 1008,3 hPa 0,0 l/m² 5,7 km/h (2 Bft) N-NW 333 ° 0 min 0 W/m² 7,1 °C 9,7 °C 8,0 km/h (2 Bft)
25.01.2025 20:27 22,1 °C 9,7 °C 55 % 84 % 1008,4 hPa 0,0 l/m² 7,5 km/h (2 Bft) NW 309 ° 0 min 0 W/m² 7,1 °C 8,9 °C 16,1 km/h (3 Bft)
25.01.2025 20:28 22,1 °C 9,7 °C 55 % 84 % 1008,3 hPa 0,0 l/m² 6,8 km/h (2 Bft) NW 315 ° 0 min 0 W/m² 7,1 °C 9,4 °C 11,3 km/h (2 Bft)
25.01.2025 20:29 22,1 °C 9,7 °C 55 % 84 % 1008,3 hPa 0,0 l/m² 9,9 km/h (2 Bft) NW 314 ° 0 min 0 W/m² 7,1 °C 7,3 °C 14,5 km/h (3 Bft)
25.01.2025 20:31 22,1 °C 9,6 °C 55 % 85 % 1008,4 hPa 0,0 l/m² 6,3 km/h (2 Bft) N-NW 335 ° 0 min 0 W/m² 7,2 °C 9,6 °C 14,5 km/h (3 Bft)
25.01.2025 20:32 22,1 °C 9,6 °C 55 % 85 % 1008,4 hPa 0,0 l/m² 7,7 km/h (2 Bft) NW 309 ° 0 min 0 W/m² 7,2 °C 8,6 °C 14,5 km/h (3 Bft)
25.01.2025 20:33 22,1 °C 9,6 °C 55 % 85 % 1008,4 hPa 0,0 l/m² 7,2 km/h (2 Bft) N-NW 333 ° 0 min 0 W/m² 7,2 °C 9,0 °C 11,3 km/h (2 Bft)
25.01.2025 20:34 22,1 °C 9,6 °C 55 % 85 % 1008,4 hPa 0,0 l/m² 8,1 km/h (2 Bft) N-NW 339 ° 0 min 0 W/m² 7,2 °C 8,4 °C 16,1 km/h (3 Bft)
25.01.2025 20:35 22,1 °C 9,6 °C 55 % 85 % 1008,4 hPa 0,0 l/m² 7,8 km/h (2 Bft) NW 317 ° 0 min 0 W/m² 7,2 °C 8,6 °C 12,9 km/h (3 Bft)
25.01.2025 20:37 22,2 °C 9,5 °C 55 % 85 % 1008,5 hPa 0,0 l/m² 6,3 km/h (2 Bft) W-NW 303 ° 0 min 0 W/m² 7,1 °C 9,5 °C 14,5 km/h (3 Bft)
25.01.2025 20:38 22,2 °C 9,5 °C 55 % 85 % 1008,5 hPa 0,0 l/m² 0,9 km/h (0 Bft) NW 313 ° 0 min 0 W/m² 7,1 °C 9,5 °C 3,2 km/h (1 Bft)
25.01.2025 20:39 22,1 °C 9,5 °C 55 % 85 % 1008,5 hPa 0,0 l/m² 0,0 km/h (0 Bft) NW 313 ° 0 min 0 W/m² 7,1 °C 9,5 °C 0,0 km/h (0 Bft)
25.01.2025 20:41 22,1 °C 9,5 °C 55 % 85 % 1008,5 hPa 0,0 l/m² 2,4 km/h (1 Bft) NW 310 ° 0 min 0 W/m² 7,1 °C 9,5 °C 4,8 km/h (1 Bft)
25.01.2025 20:42 22,1 °C 9,4 °C 55 % 85 % 1008,5 hPa 0,0 l/m² 3,5 km/h (1 Bft) N-NW 338 ° 0 min 0 W/m² 7,0 °C 9,4 °C 8,0 km/h (2 Bft)
25.01.2025 20:43 22,1 °C 9,4 °C 55 % 85 % 1008,5 hPa 0,0 l/m² 3,8 km/h (1 Bft) W-NW 303 ° 0 min 0 W/m² 7,0 °C 9,4 °C 6,4 km/h (2 Bft)
25.01.2025 20:44 22,1 °C 9,4 °C 55 % 85 % 1008,5 hPa 0,0 l/m² 1,7 km/h (1 Bft) NW 304 ° 0 min 0 W/m² 7,0 °C 9,4 °C 4,8 km/h (1 Bft)
25.01.2025 20:45 22,1 °C 9,4 °C 55 % 85 % 1008,4 hPa 0,0 l/m² 1,7 km/h (1 Bft) NW 306 ° 0 min 0 W/m² 7,0 °C 9,4 °C 3,2 km/h (1 Bft)
25.01.2025 20:46 22,2 °C 9,4 °C 55 % 85 % 1008,4 hPa 0,0 l/m² 1,2 km/h (1 Bft) N-NW 334 ° 0 min 0 W/m² 7,0 °C 9,4 °C 4,8 km/h (1 Bft)
25.01.2025 20:47 22,1 °C 9,4 °C 55 % 85 % 1008,4 hPa 0,0 l/m² 4,0 km/h (1 Bft) NW 314 ° 0 min 0 W/m² 7,0 °C 9,4 °C 6,4 km/h (2 Bft)
25.01.2025 20:48 22,1 °C 9,4 °C 55 % 85 % 1008,4 hPa 0,0 l/m² 4,8 km/h (1 Bft) W-NW 297 ° 0 min 0 W/m² 7,0 °C 9,4 °C 6,4 km/h (2 Bft)
25.01.2025 20:49 22,1 °C 9,4 °C 55 % 85 % 1008,4 hPa 0,0 l/m² 3,7 km/h (1 Bft) NW 314 ° 0 min 0 W/m² 7,0 °C 9,4 °C 6,4 km/h (2 Bft)
25.01.2025 20:51 22,2 °C 9,3 °C 55 % 85 % 1008,3 hPa 0,0 l/m² 0,7 km/h (0 Bft) NW 314 ° 0 min 0 W/m² 6,9 °C 9,3 °C 4,8 km/h (1 Bft)
25.01.2025 20:53 22,1 °C 9,3 °C 55 % 85 % 1008,3 hPa 0,0 l/m² 4,9 km/h (1 Bft) W-NW 302 ° 0 min 0 W/m² 6,9 °C 9,3 °C 9,7 km/h (2 Bft)
25.01.2025 20:54 22,1 °C 9,3 °C 55 % 85 % 1008,2 hPa 0,0 l/m² 6,2 km/h (2 Bft) W-NW 300 ° 0 min 0 W/m² 6,9 °C 9,3 °C 11,3 km/h (2 Bft)
25.01.2025 20:55 22,1 °C 9,3 °C 55 % 85 % 1008,3 hPa 0,0 l/m² 7,1 km/h (2 Bft) N-NW 340 ° 0 min 0 W/m² 6,9 °C 8,8 °C 11,3 km/h (2 Bft)
25.01.2025 20:56 22,1 °C 9,3 °C 55 % 85 % 1008,2 hPa 0,0 l/m² 6,1 km/h (2 Bft) W-NW 302 ° 0 min 0 W/m² 6,9 °C 9,3 °C 12,9 km/h (3 Bft)
25.01.2025 20:57 22,1 °C 9,3 °C 55 % 85 % 1008,2 hPa 0,0 l/m² 1,7 km/h (1 Bft) W 272 ° 0 min 0 W/m² 6,9 °C 9,3 °C 6,4 km/h (2 Bft)
25.01.2025 20:58 22,1 °C 9,3 °C 54 % 85 % 1008,2 hPa 0,0 l/m² 0,9 km/h (0 Bft) W-NW 287 ° 0 min 0 W/m² 6,9 °C 9,3 °C 3,2 km/h (1 Bft)
25.01.2025 20:59 22,1 °C 9,3 °C 55 % 85 % 1008,2 hPa 0,0 l/m² 0,0 km/h (0 Bft) W-NW 287 ° 0 min 0 W/m² 6,9 °C 9,3 °C 0,0 km/h (0 Bft)
25.01.2025 21:01 22,2 °C 9,2 °C 55 % 85 % 1008,2 hPa 0,0 l/m² 3,9 km/h (1 Bft) W-NW 298 ° 0 min 0 W/m² 6,8 °C 9,2 °C 8,0 km/h (2 Bft)
25.01.2025 21:03 22,2 °C 9,2 °C 54 % 85 % 1008,3 hPa 0,0 l/m² 1,4 km/h (1 Bft) W-NW 297 ° 0 min 0 W/m² 6,8 °C 9,2 °C 6,4 km/h (2 Bft)
25.01.2025 21:04 22,1 °C 9,2 °C 54 % 85 % 1008,2 hPa 0,0 l/m² 1,3 km/h (1 Bft) W-NW 296 ° 0 min 0 W/m² 6,8 °C 9,2 °C 6,4 km/h (2 Bft)
25.01.2025 21:05 22,1 °C 9,2 °C 54 % 85 % 1008,2 hPa 0,0 l/m² 8,1 km/h (2 Bft) W-NW 298 ° 0 min 0 W/m² 6,8 °C 7,9 °C 14,5 km/h (3 Bft)
25.01.2025 21:06 22,1 °C 9,2 °C 54 % 85 % 1008,4 hPa 0,0 l/m² 0,4 km/h (0 Bft) W-NW 298 ° 0 min 0 W/m² 6,8 °C 9,2 °C 3,2 km/h (1 Bft)
25.01.2025 21:07 22,1 °C 9,2 °C 54 % 85 % 1008,3 hPa 0,0 l/m² 1,4 km/h (1 Bft) NW 315 ° 0 min 0 W/m² 6,8 °C 9,2 °C 6,4 km/h (2 Bft)
25.01.2025 21:08 22,2 °C 9,2 °C 54 % 85 % 1008,2 hPa 0,0 l/m² 2,9 km/h (1 Bft) N-NW 339 ° 0 min 0 W/m² 6,8 °C 9,2 °C 6,4 km/h (2 Bft)
25.01.2025 21:09 22,1 °C 9,1 °C 55 % 85 % 1008,2 hPa 0,0 l/m² 5,1 km/h (1 Bft) N-NW 342 ° 0 min 0 W/m² 6,7 °C 9,1 °C 11,3 km/h (2 Bft)
25.01.2025 21:11 22,2 °C 9,1 °C 55 % 85 % 1008,1 hPa 0,0 l/m² 6,6 km/h (2 Bft) N-NW 331 ° 0 min 0 W/m² 6,7 °C 9,0 °C 12,9 km/h (3 Bft)
25.01.2025 21:13 22,1 °C 9,1 °C 54 % 85 % 1008,2 hPa 0,0 l/m² 2,3 km/h (1 Bft) NW 309 ° 0 min 0 W/m² 6,7 °C 9,1 °C 9,7 km/h (2 Bft)
25.01.2025 21:14 22,1 °C 9,1 °C 54 % 85 % 1008,2 hPa 0,0 l/m² 0,6 km/h (0 Bft) NW 310 ° 0 min 0 W/m² 6,7 °C 9,1 °C 3,2 km/h (1 Bft)
25.01.2025 21:15 22,1 °C 9,1 °C 54 % 85 % 1008,2 hPa 0,0 l/m² 3,0 km/h (1 Bft) NW 312 ° 0 min 0 W/m² 6,7 °C 9,1 °C 4,8 km/h (1 Bft)
25.01.2025 21:16 22,1 °C 9,1 °C 54 % 85 % 1008,2 hPa 0,0 l/m² 1,9 km/h (1 Bft) W-NW 296 ° 0 min 0 W/m² 6,7 °C 9,1 °C 4,8 km/h (1 Bft)
25.01.2025 21:17 22,1 °C 9,1 °C 54 % 85 % 1008,1 hPa 0,0 l/m² 4,8 km/h (1 Bft) N-NW 338 ° 0 min 0 W/m² 6,7 °C 9,1 °C 8,0 km/h (2 Bft)
25.01.2025 21:18 22,1 °C 9,0 °C 54 % 85 % 1008,1 hPa 0,0 l/m² 7,7 km/h (2 Bft) N-NW 329 ° 0 min 0 W/m² 6,6 °C 8,0 °C 14,5 km/h (3 Bft)
25.01.2025 21:19 22,1 °C 9,0 °C 54 % 85 % 1008,1 hPa 0,0 l/m² 6,0 km/h (2 Bft) N-NW 342 ° 0 min 0 W/m² 6,6 °C 9,0 °C 12,9 km/h (3 Bft)
25.01.2025 21:21 22,1 °C 8,9 °C 54 % 85 % 1008,2 hPa 0,0 l/m² 1,6 km/h (1 Bft) W-NW 303 ° 0 min 0 W/m² 6,5 °C 8,9 °C 4,8 km/h (1 Bft)
25.01.2025 21:23 22,1 °C 8,9 °C 54 % 85 % 1008,3 hPa 0,0 l/m² 0,3 km/h (0 Bft) W-NW 303 ° 0 min 0 W/m² 6,5 °C 8,9 °C 3,2 km/h (1 Bft)
25.01.2025 21:24 22,1 °C 8,9 °C 54 % 85 % 1008,3 hPa 0,0 l/m² 0,6 km/h (0 Bft) W-NW 303 ° 0 min 0 W/m² 6,5 °C 8,9 °C 1,6 km/h (1 Bft)
25.01.2025 21:25 22,1 °C 8,9 °C 54 % 85 % 1008,3 hPa 0,0 l/m² 0,0 km/h (0 Bft) W-NW 303 ° 0 min 0 W/m² 6,5 °C 8,9 °C 0,0 km/h (0 Bft)
25.01.2025 21:26 22,1 °C 8,8 °C 54 % 85 % 1008,4 hPa 0,0 l/m² 0,0 km/h (0 Bft) W-NW 303 ° 0 min 0 W/m² 6,4 °C 8,8 °C 0,0 km/h (0 Bft)
25.01.2025 21:27 22,1 °C 8,8 °C 54 % 85 % 1008,4 hPa 0,0 l/m² 0,0 km/h (0 Bft) W-NW 303 ° 0 min 0 W/m² 6,4 °C 8,8 °C 0,0 km/h (0 Bft)
25.01.2025 21:28 22,1 °C 8,8 °C 54 % 85 % 1008,4 hPa 0,0 l/m² 0,1 km/h (0 Bft) W-NW 303 ° 0 min 0 W/m² 6,4 °C 8,8 °C 1,6 km/h (1 Bft)
25.01.2025 21:29 22,1 °C 8,8 °C 54 % 85 % 1008,4 hPa 0,0 l/m² 1,2 km/h (1 Bft) W-NW 303 ° 0 min 0 W/m² 6,4 °C 8,8 °C 3,2 km/h (1 Bft)
25.01.2025 21:31 22,1 °C 8,8 °C 54 % 85 % 1008,4 hPa 0,0 l/m² 0,0 km/h (0 Bft) NW 304 ° 0 min 0 W/m² 6,4 °C 8,8 °C 1,6 km/h (1 Bft)
25.01.2025 21:33 22,1 °C 8,8 °C 54 % 85 % 1008,5 hPa 0,0 l/m² 0,0 km/h (0 Bft) W-NW 303 ° 0 min 0 W/m² 6,4 °C 8,8 °C 0,0 km/h (0 Bft)
25.01.2025 21:34 22,1 °C 8,8 °C 54 % 85 % 1008,3 hPa 0,0 l/m² 0,1 km/h (0 Bft) W-NW 303 ° 0 min 0 W/m² 6,4 °C 8,8 °C 1,6 km/h (1 Bft)
25.01.2025 21:35 22,1 °C 8,8 °C 54 % 85 % 1008,3 hPa 0,0 l/m² 0,1 km/h (0 Bft) W-NW 303 ° 0 min 0 W/m² 6,4 °C 8,8 °C 1,6 km/h (1 Bft)
25.01.2025 21:36 22,1 °C 8,8 °C 54 % 85 % 1008,4 hPa 0,0 l/m² 0,1 km/h (0 Bft) W-NW 303 ° 0 min 0 W/m² 6,4 °C 8,8 °C 1,6 km/h (1 Bft)
25.01.2025 21:37 22,1 °C 8,8 °C 54 % 85 % 1008,3 hPa 0,0 l/m² 1,7 km/h (1 Bft) W-NW 303 ° 0 min 0 W/m² 6,4 °C 8,8 °C 4,8 km/h (1 Bft)
25.01.2025 21:38 22,1 °C 8,8 °C 54 % 85 % 1008,4 hPa 0,0 l/m² 0,3 km/h (0 Bft) W-NW 303 ° 0 min 0 W/m² 6,4 °C 8,8 °C 1,6 km/h (1 Bft)
25.01.2025 21:39 22,1 °C 8,8 °C 54 % 85 % 1008,4 hPa 0,0 l/m² 0,0 km/h (0 Bft) W-NW 303 ° 0 min 0 W/m² 6,4 °C 8,8 °C 0,0 km/h (0 Bft)
25.01.2025 21:41 22,1 °C 8,7 °C 54 % 85 % 1008,4 hPa 0,0 l/m² 0,0 km/h (0 Bft) W-NW 303 ° 0 min 0 W/m² 6,3 °C 8,7 °C 0,0 km/h (0 Bft)
25.01.2025 21:43 22,1 °C 8,7 °C 54 % 85 % 1008,5 hPa 0,0 l/m² 0,0 km/h (0 Bft) W-NW 303 ° 0 min 0 W/m² 6,3 °C 8,7 °C 0,0 km/h (0 Bft)
25.01.2025 21:44 22,1 °C 8,7 °C 54 % 85 % 1008,4 hPa 0,0 l/m² 0,0 km/h (0 Bft) W-NW 303 ° 0 min 0 W/m² 6,3 °C 8,7 °C 0,0 km/h (0 Bft)
25.01.2025 21:46 22,1 °C 8,7 °C 54 % 85 % 1008,4 hPa 0,0 l/m² 0,0 km/h (0 Bft) W-NW 303 ° 0 min 0 W/m² 6,3 °C 8,7 °C 0,0 km/h (0 Bft)
25.01.2025 21:47 22,1 °C 8,7 °C 54 % 85 % 1008,5 hPa 0,0 l/m² 0,0 km/h (0 Bft) W-NW 303 ° 0 min 0 W/m² 6,3 °C 8,7 °C 0,0 km/h (0 Bft)
25.01.2025 21:48 22,1 °C 8,7 °C 54 % 85 % 1008,4 hPa 0,0 l/m² 0,0 km/h (0 Bft) W-NW 303 ° 0 min 0 W/m² 6,3 °C 8,7 °C 0,0 km/h (0 Bft)
25.01.2025 21:49 22,1 °C 8,7 °C 54 % 85 % 1008,5 hPa 0,0 l/m² 0,0 km/h (0 Bft) W-NW 303 ° 0 min 0 W/m² 6,3 °C 8,7 °C 0,0 km/h (0 Bft)
25.01.2025 21:51 22,1 °C 8,7 °C 54 % 85 % 1008,5 hPa 0,0 l/m² 0,0 km/h (0 Bft) W-NW 303 ° 0 min 0 W/m² 6,3 °C 8,7 °C 0,0 km/h (0 Bft)
25.01.2025 21:53 22,1 °C 8,7 °C 54 % 85 % 1008,5 hPa 0,0 l/m² 0,0 km/h (0 Bft) W-NW 303 ° 0 min 0 W/m² 6,3 °C 8,7 °C 1,6 km/h (1 Bft)
25.01.2025 21:54 22,1 °C 8,6 °C 54 % 85 % 1008,4 hPa 0,0 l/m² 0,0 km/h (0 Bft) W-NW 303 ° 0 min 0 W/m² 6,2 °C 8,6 °C 0,0 km/h (0 Bft)
25.01.2025 21:55 22,1 °C 8,6 °C 54 % 85 % 1008,4 hPa 0,0 l/m² 0,9 km/h (0 Bft) W-NW 303 ° 0 min 0 W/m² 6,2 °C 8,6 °C 3,2 km/h (1 Bft)
25.01.2025 21:56 22,1 °C 8,6 °C 54 % 85 % 1008,4 hPa 0,0 l/m² 0,7 km/h (0 Bft) W-NW 303 ° 0 min 0 W/m² 6,2 °C 8,6 °C 1,6 km/h (1 Bft)
25.01.2025 21:57 22,1 °C 8,6 °C 54 % 86 % 1008,5 hPa 0,0 l/m² 0,0 km/h (0 Bft) W-NW 303 ° 0 min 0 W/m² 6,4 °C 8,6 °C 0,0 km/h (0 Bft)
25.01.2025 21:58 22,1 °C 8,6 °C 54 % 86 % 1008,5 hPa 0,0 l/m² 0,3 km/h (0 Bft) W-NW 303 ° 0 min 0 W/m² 6,4 °C 8,6 °C 1,6 km/h (1 Bft)
25.01.2025 21:59 22,1 °C 8,6 °C 54 % 86 % 1008,5 hPa 0,0 l/m² 1,5 km/h (1 Bft) W-NW 303 ° 0 min 0 W/m² 6,4 °C 8,6 °C 3,2 km/h (1 Bft)
25.01.2025 22:01 22,1 °C 8,6 °C 54 % 86 % 1008,5 hPa 0,2 l/m² 0,0 km/h (0 Bft) W-NW 303 ° 0 min 0 W/m² 6,4 °C 8,6 °C 1,6 km/h (1 Bft)
25.01.2025 22:03 22,2 °C 8,6 °C 54 % 86 % 1008,4 hPa 0,0 l/m² 0,0 km/h (0 Bft) W-NW 303 ° 0 min 0 W/m² 6,4 °C 8,6 °C 0,0 km/h (0 Bft)
25.01.2025 22:04 22,2 °C 8,5 °C 54 % 86 % 1008,4 hPa 0,0 l/m² 0,0 km/h (0 Bft) W-NW 303 ° 0 min 0 W/m² 6,3 °C 8,5 °C 0,0 km/h (0 Bft)
25.01.2025 22:05 22,1 °C 8,5 °C 54 % 86 % 1008,4 hPa 0,0 l/m² 0,0 km/h (0 Bft) W-NW 303 ° 0 min 0 W/m² 6,3 °C 8,5 °C 0,0 km/h (0 Bft)
25.01.2025 22:06 22,2 °C 8,5 °C 54 % 86 % 1008,5 hPa 0,0 l/m² 0,0 km/h (0 Bft) W-NW 303 ° 0 min 0 W/m² 6,3 °C 8,5 °C 0,0 km/h (0 Bft)
25.01.2025 22:07 22,2 °C 8,5 °C 54 % 86 % 1008,5 hPa 0,0 l/m² 0,0 km/h (0 Bft) W-NW 303 ° 0 min 0 W/m² 6,3 °C 8,5 °C 0,0 km/h (0 Bft)
25.01.2025 22:08 22,2 °C 8,4 °C 54 % 86 % 1008,4 hPa 0,0 l/m² 0,0 km/h (0 Bft) W-NW 303 ° 0 min 0 W/m² 6,2 °C 8,4 °C 0,0 km/h (0 Bft)
25.01.2025 22:09 22,2 °C 8,4 °C 54 % 86 % 1008,4 hPa 0,0 l/m² 0,0 km/h (0 Bft) W-NW 303 ° 0 min 0 W/m² 6,2 °C 8,4 °C 0,0 km/h (0 Bft)
25.01.2025 22:11 22,2 °C 8,4 °C 54 % 86 % 1008,4 hPa 0,0 l/m² 0,0 km/h (0 Bft) W-NW 303 ° 0 min 0 W/m² 6,2 °C 8,4 °C 0,0 km/h (0 Bft)
25.01.2025 22:13 22,2 °C 8,4 °C 54 % 86 % 1008,5 hPa 0,0 l/m² 0,0 km/h (0 Bft) W-NW 303 ° 0 min 0 W/m² 6,2 °C 8,4 °C 0,0 km/h (0 Bft)
25.01.2025 22:14 22,2 °C 8,4 °C 54 % 85 % 1008,5 hPa 0,2 l/m² 0,0 km/h (0 Bft) W-NW 303 ° 0 min 0 W/m² 6,0 °C 8,4 °C 0,0 km/h (0 Bft)
25.01.2025 22:15 22,2 °C 8,4 °C 54 % 85 % 1008,4 hPa 0,0 l/m² 0,0 km/h (0 Bft) W-NW 303 ° 0 min 0 W/m² 6,0 °C 8,4 °C 0,0 km/h (0 Bft)
25.01.2025 22:16 22,2 °C 8,3 °C 54 % 85 % 1008,4 hPa 0,0 l/m² 0,0 km/h (0 Bft) W-NW 303 ° 0 min 0 W/m² 5,9 °C 8,3 °C 0,0 km/h (0 Bft)
25.01.2025 22:17 22,2 °C 8,3 °C 54 % 85 % 1008,4 hPa 0,0 l/m² 0,0 km/h (0 Bft) W-NW 303 ° 0 min 0 W/m² 5,9 °C 8,3 °C 0,0 km/h (0 Bft)
25.01.2025 22:18 22,2 °C 8,3 °C 54 % 86 % 1008,4 hPa 0,0 l/m² 0,1 km/h (0 Bft) W-NW 303 ° 0 min 0 W/m² 6,1 °C 8,3 °C 1,6 km/h (1 Bft)
25.01.2025 22:19 22,1 °C 8,3 °C 54 % 86 % 1008,4 hPa 0,0 l/m² 0,0 km/h (0 Bft) W-NW 303 ° 0 min 0 W/m² 6,1 °C 8,3 °C 0,0 km/h (0 Bft)
25.01.2025 22:21 22,1 °C 8,3 °C 54 % 86 % 1008,3 hPa 0,2 l/m² 0,5 km/h (0 Bft) W-NW 303 ° 0 min 0 W/m² 6,1 °C 8,3 °C 3,2 km/h (1 Bft)
25.01.2025 22:23 22,1 °C 8,3 °C 53 % 86 % 1008,4 hPa 0,0 l/m² 0,4 km/h (0 Bft) W-NW 303 ° 0 min 0 W/m² 6,1 °C 8,3 °C 3,2 km/h (1 Bft)
25.01.2025 22:24 22,1 °C 8,3 °C 53 % 86 % 1008,4 hPa 0,0 l/m² 0,0 km/h (0 Bft) W-NW 303 ° 0 min 0 W/m² 6,1 °C 8,3 °C 0,0 km/h (0 Bft)
25.01.2025 22:25 22,1 °C 8,2 °C 53 % 86 % 1008,3 hPa 0,0 l/m² 0,0 km/h (0 Bft) W-NW 303 ° 0 min 0 W/m² 6,0 °C 8,2 °C 0,0 km/h (0 Bft)
25.01.2025 22:26 22,1 °C 8,2 °C 53 % 86 % 1008,4 hPa 0,0 l/m² 0,0 km/h (0 Bft) W-NW 303 ° 0 min 0 W/m² 6,0 °C 8,2 °C 0,0 km/h (0 Bft)
25.01.2025 22:27 22,1 °C 8,2 °C 53 % 86 % 1008,4 hPa 0,0 l/m² 0,0 km/h (0 Bft) W-NW 303 ° 0 min 0 W/m² 6,0 °C 8,2 °C 0,0 km/h (0 Bft)
25.01.2025 22:28 22,1 °C 8,2 °C 53 % 86 % 1008,4 hPa 0,2 l/m² 0,0 km/h (0 Bft) W-NW 303 ° 0 min 0 W/m² 6,0 °C 8,2 °C 0,0 km/h (0 Bft)
25.01.2025 22:29 22,1 °C 8,2 °C 53 % 86 % 1008,4 hPa 0,0 l/m² 1,5 km/h (1 Bft) W-NW 303 ° 0 min 0 W/m² 6,0 °C 8,2 °C 3,2 km/h (1 Bft)
25.01.2025 22:31 22,1 °C 8,2 °C 53 % 87 % 1008,6 hPa 0,0 l/m² 2,0 km/h (1 Bft) W-NW 303 ° 0 min 0 W/m² 6,2 °C 8,2 °C 3,2 km/h (1 Bft)
25.01.2025 22:33 22,1 °C 8,2 °C 53 % 87 % 1008,5 hPa 0,0 l/m² 1,8 km/h (1 Bft) W-NW 303 ° 0 min 0 W/m² 6,2 °C 8,2 °C 3,2 km/h (1 Bft)
25.01.2025 22:34 22,1 °C 8,1 °C 53 % 87 % 1008,6 hPa 0,0 l/m² 0,1 km/h (0 Bft) W-NW 303 ° 0 min 0 W/m² 6,1 °C 8,1 °C 1,6 km/h (1 Bft)
25.01.2025 22:35 22,1 °C 8,1 °C 53 % 87 % 1008,6 hPa 0,2 l/m² 0,1 km/h (0 Bft) W-NW 303 ° 0 min 0 W/m² 6,1 °C 8,1 °C 1,6 km/h (1 Bft)
25.01.2025 22:36 22,1 °C 8,1 °C 53 % 87 % 1008,6 hPa 0,0 l/m² 0,0 km/h (0 Bft) W-NW 303 ° 0 min 0 W/m² 6,1 °C 8,1 °C 0,0 km/h (0 Bft)
25.01.2025 22:37 22,1 °C 8,1 °C 53 % 87 % 1008,6 hPa 0,0 l/m² 0,8 km/h (0 Bft) W-NW 303 ° 0 min 0 W/m² 6,1 °C 8,1 °C 1,6 km/h (1 Bft)
25.01.2025 22:38 22,1 °C 8,1 °C 53 % 87 % 1008,6 hPa 0,0 l/m² 0,3 km/h (0 Bft) W-NW 303 ° 0 min 0 W/m² 6,1 °C 8,1 °C 1,6 km/h (1 Bft)
25.01.2025 22:39 22,1 °C 8,1 °C 53 % 87 % 1008,6 hPa 0,2 l/m² 0,5 km/h (0 Bft) W-NW 303 ° 0 min 0 W/m² 6,1 °C 8,1 °C 3,2 km/h (1 Bft)
25.01.2025 22:41 22,1 °C 8,1 °C 53 % 87 % 1008,7 hPa 0,0 l/m² 1,4 km/h (1 Bft) W-NW 303 ° 0 min 0 W/m² 6,1 °C 8,1 °C 3,2 km/h (1 Bft)
25.01.2025 22:43 22,1 °C 8,0 °C 53 % 87 % 1008,6 hPa 0,2 l/m² 0,2 km/h (0 Bft) W-NW 303 ° 0 min 0 W/m² 6,0 °C 8,0 °C 3,2 km/h (1 Bft)
25.01.2025 22:44 22,0 °C 8,0 °C 53 % 87 % 1008,5 hPa 0,0 l/m² 0,0 km/h (0 Bft) W-NW 303 ° 0 min 0 W/m² 6,0 °C 8,0 °C 0,0 km/h (0 Bft)
25.01.2025 22:45 22,1 °C 8,0 °C 53 % 87 % 1008,4 hPa 0,0 l/m² 0,0 km/h (0 Bft) W-NW 303 ° 0 min 0 W/m² 6,0 °C 8,0 °C 0,0 km/h (0 Bft)
25.01.2025 22:46 22,0 °C 7,9 °C 53 % 87 % 1008,4 hPa 0,0 l/m² 0,0 km/h (0 Bft) W-NW 303 ° 0 min 0 W/m² 5,9 °C 7,9 °C 0,0 km/h (0 Bft)
25.01.2025 22:47 22,0 °C 7,9 °C 53 % 87 % 1008,3 hPa 0,2 l/m² 0,0 km/h (0 Bft) W-NW 303 ° 0 min 0 W/m² 5,9 °C 7,9 °C 0,0 km/h (0 Bft)
25.01.2025 22:48 22,0 °C 7,9 °C 53 % 87 % 1008,3 hPa 0,0 l/m² 0,0 km/h (0 Bft) W-NW 303 ° 0 min 0 W/m² 5,9 °C 7,9 °C 0,0 km/h (0 Bft)
25.01.2025 22:49 22,0 °C 7,9 °C 53 % 87 % 1008,4 hPa 0,2 l/m² 0,0 km/h (0 Bft) W-NW 303 ° 0 min 0 W/m² 5,9 °C 7,9 °C 0,0 km/h (0 Bft)
25.01.2025 22:51 22,0 °C 7,8 °C 53 % 87 % 1008,3 hPa 0,0 l/m² 0,0 km/h (0 Bft) W-NW 303 ° 0 min 0 W/m² 5,8 °C 7,8 °C 0,0 km/h (0 Bft)
25.01.2025 22:53 22,0 °C 7,8 °C 53 % 88 % 1008,1 hPa 0,2 l/m² 0,0 km/h (0 Bft) NW 304 ° 0 min 0 W/m² 5,9 °C 7,8 °C 1,6 km/h (1 Bft)
25.01.2025 22:54 22,0 °C 7,8 °C 53 % 88 % 1007,9 hPa 0,0 l/m² 1,1 km/h (1 Bft) W-NW 303 ° 0 min 0 W/m² 5,9 °C 7,8 °C 3,2 km/h (1 Bft)
25.01.2025 22:55 22,0 °C 7,8 °C 53 % 88 % 1007,8 hPa 0,0 l/m² 0,9 km/h (0 Bft) N-NW 328 ° 0 min 0 W/m² 5,9 °C 7,8 °C 3,2 km/h (1 Bft)
25.01.2025 22:56 21,9 °C 7,8 °C 53 % 88 % 1007,6 hPa 0,0 l/m² 0,9 km/h (0 Bft) N-NW 340 ° 0 min 0 W/m² 5,9 °C 7,8 °C 3,2 km/h (1 Bft)
25.01.2025 22:57 21,9 °C 7,8 °C 53 % 88 % 1007,7 hPa 0,0 l/m² 0,4 km/h (0 Bft) N-NW 340 ° 0 min 0 W/m² 5,9 °C 7,8 °C 3,2 km/h (1 Bft)
25.01.2025 22:58 21,9 °C 7,8 °C 53 % 88 % 1007,8 hPa 0,0 l/m² 0,6 km/h (0 Bft) N-NW 340 ° 0 min 0 W/m² 5,9 °C 7,8 °C 3,2 km/h (1 Bft)
25.01.2025 22:59 21,9 °C 7,7 °C 53 % 88 % 1007,7 hPa 0,0 l/m² 0,0 km/h (0 Bft) N-NW 340 ° 0 min 0 W/m² 5,8 °C 7,7 °C 0,0 km/h (0 Bft)
25.01.2025 23:01 21,9 °C 7,7 °C 53 % 88 % 1007,7 hPa 0,2 l/m² 0,1 km/h (0 Bft) N-NW 340 ° 0 min 0 W/m² 5,8 °C 7,7 °C 1,6 km/h (1 Bft)
25.01.2025 23:03 21,9 °C 7,7 °C 53 % 88 % 1007,7 hPa 0,0 l/m² 0,2 km/h (0 Bft) N-NW 340 ° 0 min 0 W/m² 5,8 °C 7,7 °C 1,6 km/h (1 Bft)
25.01.2025 23:04 21,9 °C 7,7 °C 53 % 88 % 1007,7 hPa 0,0 l/m² 0,0 km/h (0 Bft) N-NW 340 ° 0 min 0 W/m² 5,8 °C 7,7 °C 0,0 km/h (0 Bft)
25.01.2025 23:05 21,9 °C 7,7 °C 53 % 88 % 1007,7 hPa 0,0 l/m² 0,5 km/h (0 Bft) N-NW 340 ° 0 min 0 W/m² 5,8 °C 7,7 °C 1,6 km/h (1 Bft)
25.01.2025 23:06 21,9 °C 7,6 °C 53 % 88 % 1007,7 hPa 0,0 l/m² 0,1 km/h (0 Bft) N-NW 340 ° 0 min 0 W/m² 5,7 °C 7,6 °C 1,6 km/h (1 Bft)
25.01.2025 23:07 21,9 °C 7,6 °C 53 % 88 % 1007,7 hPa 0,0 l/m² 0,0 km/h (0 Bft) N-NW 340 ° 0 min 0 W/m² 5,7 °C 7,6 °C 0,0 km/h (0 Bft)
25.01.2025 23:08 21,9 °C 7,6 °C 53 % 88 % 1007,7 hPa 0,0 l/m² 0,0 km/h (0 Bft) N-NW 340 ° 0 min 0 W/m² 5,7 °C 7,6 °C 0,0 km/h (0 Bft)
25.01.2025 23:09 21,9 °C 7,6 °C 53 % 88 % 1007,7 hPa 0,0 l/m² 0,0 km/h (0 Bft) N-NW 340 ° 0 min 0 W/m² 5,7 °C 7,6 °C 0,0 km/h (0 Bft)
25.01.2025 23:11 21,9 °C 7,6 °C 53 % 88 % 1007,7 hPa 0,0 l/m² 0,0 km/h (0 Bft) N-NW 340 ° 0 min 0 W/m² 5,7 °C 7,6 °C 0,0 km/h (0 Bft)
25.01.2025 23:13 21,9 °C 7,6 °C 53 % 89 % 1007,6 hPa 0,0 l/m² 0,0 km/h (0 Bft) N-NW 340 ° 0 min 0 W/m² 5,9 °C 7,6 °C 0,0 km/h (0 Bft)
25.01.2025 23:14 21,9 °C 7,6 °C 53 % 88 % 1007,6 hPa 0,0 l/m² 0,0 km/h (0 Bft) N-NW 340 ° 0 min 0 W/m² 5,7 °C 7,6 °C 0,0 km/h (0 Bft)
25.01.2025 23:15 21,9 °C 7,6 °C 54 % 88 % 1007,6 hPa 0,0 l/m² 0,0 km/h (0 Bft) N-NW 340 ° 0 min 0 W/m² 5,7 °C 7,6 °C 0,0 km/h (0 Bft)
25.01.2025 23:16 21,9 °C 7,5 °C 54 % 89 % 1007,5 hPa 0,0 l/m² 0,0 km/h (0 Bft) N 0 ° 0 min 0 W/m² 5,8 °C 7,5 °C 0,0 km/h (0 Bft)
25.01.2025 23:17 21,9 °C 7,5 °C 53 % 89 % 1007,4 hPa 0,0 l/m² 0,0 km/h (0 Bft) N 0 ° 0 min 0 W/m² 5,8 °C 7,5 °C 0,0 km/h (0 Bft)
25.01.2025 23:18 21,9 °C 7,5 °C 53 % 89 % 1007,5 hPa 0,0 l/m² 0,0 km/h (0 Bft) N 0 ° 0 min 0 W/m² 5,8 °C 7,5 °C 0,0 km/h (0 Bft)
25.01.2025 23:19 21,9 °C 7,5 °C 53 % 89 % 1007,5 hPa 0,0 l/m² 0,0 km/h (0 Bft) N 0 ° 0 min 0 W/m² 5,8 °C 7,5 °C 0,0 km/h (0 Bft)
25.01.2025 23:20 21,9 °C 7,4 °C 54 % 89 % 1007,6 hPa 0,0 l/m² 0,0 km/h (0 Bft) N 0 ° 0 min 0 W/m² 5,7 °C 7,4 °C 0,0 km/h (0 Bft)
25.01.2025 23:21 21,9 °C 7,5 °C 54 % 89 % 1007,7 hPa 0,0 l/m² 0,0 km/h (0 Bft) N 0 ° 0 min 0 W/m² 5,8 °C 7,5 °C 0,0 km/h (0 Bft)
25.01.2025 23:26 21,8 °C 7,4 °C 54 % 89 % 1007,9 hPa 0,0 l/m² 0,0 km/h (0 Bft) N-NW 340 ° 0 min 0 W/m² 5,7 °C 7,4 °C 0,0 km/h (0 Bft)
25.01.2025 23:28 21,8 °C 7,4 °C 54 % 89 % 1007,7 hPa 0,0 l/m² 0,0 km/h (0 Bft) N-NW 340 ° 0 min 0 W/m² 5,7 °C 7,4 °C 0,0 km/h (0 Bft)
25.01.2025 23:29 21,8 °C 7,4 °C 54 % 89 % 1007,7 hPa 0,0 l/m² 0,1 km/h (0 Bft) N-NW 340 ° 0 min 0 W/m² 5,7 °C 7,4 °C 1,6 km/h (1 Bft)
25.01.2025 23:31 21,8 °C 7,4 °C 54 % 89 % 1007,2 hPa 0,0 l/m² 3,5 km/h (1 Bft) N-NW 345 ° 0 min 0 W/m² 5,7 °C 7,4 °C 8,0 km/h (2 Bft)
25.01.2025 23:32 21,8 °C 7,4 °C 54 % 89 % 1007,2 hPa 0,0 l/m² 4,9 km/h (1 Bft) N-NW 341 ° 0 min 0 W/m² 5,7 °C 7,4 °C 6,4 km/h (2 Bft)
25.01.2025 23:34 21,8 °C 7,4 °C 54 % 89 % 1007,3 hPa 0,0 l/m² 4,7 km/h (1 Bft) N-NW 342 ° 0 min 0 W/m² 5,7 °C 7,4 °C 6,4 km/h (2 Bft)
25.01.2025 23:36 21,8 °C 7,3 °C 54 % 89 % 1007,3 hPa 0,0 l/m² 4,0 km/h (1 Bft) N 9 ° 0 min 0 W/m² 5,6 °C 7,3 °C 6,4 km/h (2 Bft)
25.01.2025 23:38 21,8 °C 7,3 °C 54 % 89 % 1007,0 hPa 0,0 l/m² 5,0 km/h (1 Bft) N 360 ° 0 min 0 W/m² 5,6 °C 7,3 °C 8,0 km/h (2 Bft)
25.01.2025 23:40 21,8 °C 7,3 °C 54 % 90 % 1006,9 hPa 0,2 l/m² 4,4 km/h (1 Bft) N 5 ° 0 min 0 W/m² 5,8 °C 7,3 °C 6,4 km/h (2 Bft)
25.01.2025 23:41 21,8 °C 7,3 °C 54 % 90 % 1007,0 hPa 0,0 l/m² 1,8 km/h (1 Bft) N-NW 348 ° 0 min 0 W/m² 5,8 °C 7,3 °C 4,8 km/h (1 Bft)
25.01.2025 23:42 21,8 °C 7,3 °C 54 % 90 % 1007,0 hPa 0,0 l/m² 3,9 km/h (1 Bft) N-NW 343 ° 0 min 0 W/m² 5,8 °C 7,3 °C 6,4 km/h (2 Bft)
25.01.2025 23:44 21,8 °C 7,3 °C 54 % 90 % 1007,2 hPa 0,0 l/m² 2,9 km/h (1 Bft) N-NW 333 ° 0 min 0 W/m² 5,8 °C 7,3 °C 6,4 km/h (2 Bft)
25.01.2025 23:46 21,8 °C 7,3 °C 54 % 90 % 1007,3 hPa 0,0 l/m² 0,5 km/h (0 Bft) N-NW 327 ° 0 min 0 W/m² 5,8 °C 7,3 °C 3,2 km/h (1 Bft)
25.01.2025 23:48 21,8 °C 7,3 °C 54 % 90 % 1007,4 hPa 0,0 l/m² 0,9 km/h (0 Bft) N-NW 327 ° 0 min 0 W/m² 5,8 °C 7,3 °C 3,2 km/h (1 Bft)
25.01.2025 23:49 21,8 °C 7,3 °C 54 % 90 % 1007,4 hPa 0,0 l/m² 0,5 km/h (0 Bft) NW 325 ° 0 min 0 W/m² 5,8 °C 7,3 °C 1,6 km/h (1 Bft)
25.01.2025 23:50 21,8 °C 7,3 °C 54 % 90 % 1007,4 hPa 0,0 l/m² 0,9 km/h (0 Bft) W-NW 296 ° 0 min 0 W/m² 5,8 °C 7,3 °C 3,2 km/h (1 Bft)
25.01.2025 23:52 21,8 °C 7,3 °C 54 % 90 % 1007,2 hPa 0,0 l/m² 2,1 km/h (1 Bft) NW 306 ° 0 min 0 W/m² 5,8 °C 7,3 °C 4,8 km/h (1 Bft)
25.01.2025 23:53 21,8 °C 7,3 °C 54 % 90 % 1007,2 hPa 0,0 l/m² 2,4 km/h (1 Bft) NW 306 ° 0 min 0 W/m² 5,8 °C 7,3 °C 4,8 km/h (1 Bft)
25.01.2025 23:55 21,8 °C 7,3 °C 54 % 90 % 1007,2 hPa 0,0 l/m² 1,0 km/h (0 Bft) NW 306 ° 0 min 0 W/m² 5,8 °C 7,3 °C 4,8 km/h (1 Bft)
25.01.2025 23:56 21,8 °C 7,3 °C 54 % 90 % 1007,3 hPa 0,0 l/m² 0,0 km/h (0 Bft) NW 306 ° 0 min 0 W/m² 5,8 °C 7,3 °C 0,0 km/h (0 Bft)
25.01.2025 23:57 21,8 °C 7,3 °C 54 % 90 % 1007,3 hPa 0,0 l/m² 0,5 km/h (0 Bft) NW 306 ° 0 min 0 W/m² 5,8 °C 7,3 °C 3,2 km/h (1 Bft)
25.01.2025 23:59 21,8 °C 7,2 °C 54 % 90 % 1007,3 hPa 0,0 l/m² 2,6 km/h (1 Bft) N-NW 338 ° 0 min 0 W/m² 5,7 °C 7,2 °C 6,4 km/h (2 Bft)
_ Min-Zeit 08:01 23:59 11:40 12:54 11:45 - 23:56 - - - - 07:27 07:41 23:56
Minimum _ 21,5 °C 7,2 °C 46 % 57 % 1004,5 hPa - 0,0 km/h (0 Bft) - - - - 4,3 °C 3,7 °C 0,0 km/h (0 Bft)
_ Max-Zeit 22:18 15:25 19:34 23:59 22:41 23:40 15:15 - - 15:41 11:45 17:53 13:39 15:14
Maximum _ 22,2 °C 14,3 °C 56 % 90 % 1008,7 hPa 0,2 l/m² 27,7 km/h
S-SW (5 Bft)
- - 2 min 325 W/m² 8,0 °C 12,9 °C 38,6 km/h
SW (6 Bft)
Durchschnitt _ 21,8 °C 10,3 °C 52 % 75 % 1006,6 hPa #2,4 l/m² 7,5 km/h (2 Bft) S - #4:43 h 23 W/m² 6,0 °C 8,7 °C 11,1 km/h (2 Bft)
© 2009 Mathias Hoßbach